[[{"header":{"parameterUnit":"m.s-1","parameterCategory":1,"la1":30.6,"la2":28.766,"lo1":-90.7593,"lo2":-88.6598,"dx":0.0162,"dy":0.0183,"nx":116,"ny":114,"refTime":"2022-12-28T18:00:00:Z","depth":0,"parameterNumber":2,"parameterNumberName":"U-component_of_WINDS"},"data":[0.0,0.0,0.0,0.0,0.0,0.0,0.0,0.0,0.0,0.0,0.0,0.0,0.0,0.0,0.0,0.0,0.0,0.0,0.0,0.0,0.0,0.0,0.0,0.0,0.0,0.0,0.0,0.0,0.0,0.0,0.0,0.0,0.0,0.0,0.0,0.0,0.0,0.0,0.0,0.0,0.0,0.0,0.0,0.0,0.0,0.0,0.0,0.0,0.0,0.0,0.0,0.0,0.0,0.0,0.0,0.0,0.0,0.0,0.0,0.0,0.0,0.0,0.0,0.0,0.0,0.0,0.0,0.0,0.0,0.0,0.0,0.0,0.0,0.0,0.0,0.0,0.0,0.0,0.0,0.0,0.0,0.0,0.0,0.0,0.0,0.0,0.0,0.0,0.0,0.0,0.0,0.0,0.0,0.0,0.0,0.0,0.0,0.0,0.0,0.0,0.0,0.0,0.0,0.0,0.0,0.0,0.0,0.0,0.0,0.0,0.0,0.0,0.0,0.0,0.0,0.0,0.0,0.0,0.0,0.0,0.0,0.0,0.0,0.0,0.0,0.0,0.0,0.0,0.0,0.0,0.0,0.0,0.0,0.0,0.0,0.0,0.0,0.0,0.0,0.0,0.0,0.0,0.0,0.0,0.0,0.0,0.0,0.0,0.0,0.0,0.0,0.0,0.0,0.0,0.0,0.0,0.0,0.0,0.0,0.0,0.0,0.0,0.0,0.0,0.0,0.0,0.0,0.0,0.0,0.0,0.0,0.0,0.0,0.0,0.0,0.0,0.0,0.0,0.0,0.0,0.0,0.0,0.0,0.0,0.0,0.0,0.0,0.0,0.0,0.0,0.0,0.0,0.0,0.0,0.0,0.0,0.0,0.0,0.0,0.0,0.0,0.0,0.0,0.0,0.0,0.0,0.0,0.0,0.0,0.0,0.0,0.0,0.0,0.0,0.0,0.0,0.0,0.0,0.0,0.0,0.0,0.0,0.0,0.0,0.0,0.0,0.0,0.0,0.0,0.0,0.0,0.0,0.0,0.0,0.0,0.0,0.0,0.0,0.0,0.0,0.0,0.0,0.0,0.0,0.0,0.0,0.0,0.0,0.0,0.0,0.0,0.0,0.0,0.0,0.0,0.0,0.0,0.0,0.0,0.0,0.0,0.0,0.0,0.0,0.0,0.0,0.0,0.0,0.0,0.0,0.0,0.0,0.0,0.0,0.0,0.0,0.0,0.0,0.0,0.0,0.0,0.0,0.0,0.0,0.0,0.0,0.0,0.0,0.0,0.0,0.0,0.0,0.0,0.0,0.0,0.0,0.0,0.0,0.0,0.0,0.0,0.0,0.0,0.0,0.0,0.0,0.0,0.0,0.0,0.0,0.0,0.0,0.0,0.0,0.0,0.0,0.0,0.0,0.0,0.0,0.0,0.0,0.0,0.0,0.0,0.0,0.0,0.0,0.0,0.0,0.0,0.0,0.0,0.0,0.0,0.0,0.0,0.0,0.0,0.0,0.0,0.0,0.0,0.0,0.0,0.0,0.0,0.0,0.0,0.0,0.0,0.0,0.0,0.0,0.0,0.0,0.0,0.0,0.0,0.0,0.0,0.0,0.0,0.0,0.0,0.0,0.0,0.0,0.0,0.0,0.0,0.0,0.0,0.0,0.0,0.0,0.0,0.0,0.0,0.0,0.0,0.0,0.0,0.0,0.0,0.0,0.0,0.0,0.0,0.0,0.0,0.0,0.0,0.0,0.0,0.0,0.0,0.0,0.0,0.0,0.0,0.0,0.0,0.0,0.0,0.0,0.0,0.0,0.0,0.0,0.0,0.0,0.0,0.0,0.0,0.0,0.0,0.0,0.0,0.0,0.0,0.0,0.0,0.0,0.0,0.0,0.0,0.0,0.0,0.0,0.0,0.0,0.0,0.0,0.0,0.0,0.0,0.0,0.0,0.0,0.0,0.0,0.0,0.0,0.0,0.0,0.0,0.0,0.0,0.0,0.0,0.0,0.0,0.0,0.0,0.0,0.0,0.0,0.0,0.0,0.0,0.0,0.0,0.0,0.0,0.0,0.0,0.0,0.0,0.0,0.0,0.0,0.0,0.0,0.0,0.0,0.0,0.0,0.0,0.0,0.0,0.0,0.0,0.0,0.0,0.0,0.0,0.0,0.0,0.0,0.0,0.0,0.0,0.0,0.0,0.0,0.0,0.0,0.0,0.0,0.0,0.0,0.0,0.0,0.0,0.0,0.0,0.0,0.0,0.0,0.0,0.0,0.0,0.0,0.0,0.0,0.0,0.0,0.0,0.0,0.0,0.0,0.0,0.0,0.0,0.0,0.0,0.0,0.0,0.0,0.0,0.0,0.0,0.0,0.0,0.0,0.0,0.0,0.0,0.0,0.0,0.0,0.0,0.0,0.0,0.0,0.0,0.0,0.0,0.0,0.0,0.0,0.0,0.0,0.0,0.0,0.0,0.0,0.0,0.0,0.0,0.0,0.0,0.0,0.0,0.0,0.0,0.0,0.0,0.0,0.0,0.0,0.0,0.0,0.0,0.0,0.0,0.0,0.0,0.0,0.0,0.0,0.0,0.0,0.0,0.0,0.0,0.0,0.0,0.0,0.0,0.0,0.0,0.0,0.0,0.0,0.0,0.0,0.0,0.0,0.0,0.0,0.0,0.0,0.0,0.0,0.0,0.0,0.0,0.0,0.0,0.0,0.0,0.0,0.0,0.0,0.0,0.0,0.0,0.0,0.0,0.0,0.0,0.0,0.0,0.0,0.0,0.0,0.0,0.0,0.0,0.0,0.0,0.0,0.0,0.0,0.0,0.0,0.0,0.0,0.0,0.0,0.0,0.0,0.0,0.0,0.0,0.0,0.0,0.0,0.0,0.0,0.0,0.0,0.0,0.0,0.0,0.0,0.0,0.0,0.0,0.0,0.0,0.0,0.0,0.0,0.0,0.0,0.0,0.0,0.0,0.0,0.0,0.0,0.0,0.0,0.0,0.0,0.0,0.0,0.0,0.0,0.0,0.0,0.0,0.0,0.0,0.0,0.0,0.0,0.0,0.0,0.0,0.0,0.0,0.0,0.0,0.0,0.0,0.0,0.0,0.0,0.0,0.0,0.0,0.0,0.0,0.0,0.0,0.0,0.0,0.0,0.0,0.0,0.0,0.0,0.0,0.0,0.0,0.0,0.0,0.0,0.0,0.0,0.0,0.0,0.0,0.0,0.0,0.0,0.0,0.0,0.0,0.0,0.0,0.0,0.0,0.0,0.0,0.0,0.0,0.0,0.0,0.0,0.0,0.0,0.0,0.0,0.0,0.0,0.0,0.0,0.0,0.0,0.0,0.0,0.0,0.0,0.0,0.0,0.0,0.0,0.0,0.0,0.0,0.0,0.0,0.0,0.0,0.0,0.0,0.0,0.0,0.0,0.0,0.0,0.0,0.0,0.0,0.0,0.0,0.0,0.0,0.0,0.0,0.0,0.0,0.0,0.0,0.0,0.0,0.0,0.0,0.0,0.0,0.0,0.0,0.0,0.0,0.0,0.0,0.0,0.0,0.0,0.0,0.0,0.0,0.0,0.0,0.0,0.0,0.0,0.0,0.0,0.0,0.0,0.0,0.0,0.0,0.0,0.0,0.0,0.0,0.0,0.0,0.0,0.0,0.0,0.0,0.0,0.0,0.0,0.0,0.0,0.0,0.0,0.0,0.0,0.0,0.0,0.0,0.0,0.0,0.0,0.0,0.0,0.0,0.0,0.0,0.0,0.0,0.0,0.0,0.0,0.0,0.0,0.0,0.0,0.0,0.0,0.0,0.0,0.0,0.0,0.0,0.0,0.0,0.0,0.0,0.0,0.0,0.0,0.0,0.0,0.0,0.0,0.0,0.0,0.0,0.0,0.0,0.0,0.0,0.0,0.0,0.0,0.0,0.0,0.0,0.0,0.0,0.0,0.0,0.0,0.0,0.0,0.0,0.0,0.0,0.0,0.0,0.0,0.0,0.0,0.0,0.0,0.0,0.0,0.0,0.0,0.0,0.0,0.0,0.0,0.0,0.0,0.0,0.0,0.0,0.0,0.0,0.0,0.0,0.0,0.0,0.0,0.0,0.0,0.0,0.0,0.0,0.0,0.0,0.0,0.0,0.0,0.0,0.0,0.0,0.0,0.0,0.0,0.0,0.0,0.0,0.0,0.0,0.0,0.0,0.0,0.0,0.0,0.0,0.0,0.0,0.0,0.0,0.0,0.0,0.0,0.0,0.0,0.0,0.0,0.0,0.0,0.0,0.0,0.0,0.0,0.0,0.0,0.0,0.0,0.0,0.0,0.0,0.0,0.0,0.0,0.0,0.0,0.0,0.0,0.0,0.0,0.0,0.0,0.0,0.0,0.0,0.0,0.0,0.0,0.0,0.0,0.0,0.0,0.0,0.0,0.0,0.0,0.0,0.0,0.0,0.0,0.0,0.0,0.0,0.0,0.0,0.0,0.0,0.0,0.0,0.0,0.0,0.0,0.0,0.0,0.0,0.0,0.0,0.0,0.0,0.0,0.0,0.0,0.0,0.0,0.0,0.0,0.0,0.0,0.0,0.0,0.0,0.0,0.0,0.0,0.0,0.0,0.0,0.0,0.0,0.0,0.0,0.0,0.0,0.0,0.0,0.0,0.0,0.0,0.0,0.0,0.0,0.0,0.0,0.0,0.0,0.0,0.0,0.0,0.0,0.0,0.0,0.0,0.0,0.0,0.0,0.0,0.0,0.0,0.0,0.0,0.0,0.0,0.0,0.0,0.0,0.0,0.0,0.0,0.0,0.0,0.0,0.0,0.0,0.0,0.0,0.0,0.0,0.0,0.0,0.0,0.0,0.0,0.0,0.0,0.0,0.0,0.0,0.0,0.0,0.0,0.0,0.0,0.0,0.0,0.0,0.0,0.0,0.0,0.0,0.0,0.0,0.0,0.0,0.0,0.0,0.0,0.0,0.0,0.0,0.0,0.0,0.0,0.0,0.0,0.0,0.0,0.0,0.0,0.0,0.0,0.0,0.0,0.0,0.0,0.0,0.0,0.0,0.0,0.0,0.0,0.0,0.0,0.0,0.0,0.0,0.0,0.0,0.0,0.0,0.0,0.0,0.0,0.0,0.0,0.0,0.0,0.0,0.0,0.0,0.0,0.0,0.0,0.0,0.0,0.0,0.0,0.0,0.0,0.0,0.0,0.0,0.0,0.0,0.0,0.0,0.0,0.0,0.0,0.0,0.0,0.0,0.0,0.0,0.0,0.0,0.0,0.0,0.0,0.0,0.0,0.0,0.0,0.0,0.0,0.0,0.0,0.0,0.0,0.0,0.0,0.0,0.0,0.0,0.0,0.0,0.0,0.0,0.0,0.0,0.0,0.0,0.0,0.0,0.0,0.0,0.0,0.0,0.0,0.0,0.0,0.0,0.0,0.0,0.0,0.0,0.0,0.0,0.0,0.0,0.0,0.0,0.0,0.0,0.0,0.0,0.0,0.0,0.0,0.0,0.0,0.0,0.0,0.0,0.0,0.0,0.0,0.0,0.0,0.0,0.0,0.0,0.0,0.0,0.0,0.0,0.0,0.0,0.0,0.0,0.0,0.0,0.0,0.0,0.0,0.0,0.0,0.0,0.0,0.0,0.0,0.0,0.0,0.0,0.0,0.0,0.0,0.0,0.0,0.0,0.0,0.0,0.0,0.0,0.0,0.0,0.0,0.0,0.0,0.0,0.0,0.0,0.0,0.0,0.0,0.0,0.0,0.0,0.0,0.0,0.0,0.0,0.0,0.0,0.0,0.0,0.0,0.0,0.0,0.0,0.0,0.0,0.0,0.0,0.0,0.0,0.0,0.0,0.0,0.0,0.0,0.0,0.0,0.0,0.0,0.0,0.0,0.0,0.0,0.0,0.0,0.0,0.0,0.0,0.0,0.0,0.0,0.0,0.0,0.0,0.0,0.0,0.0,0.0,0.0,0.0,0.0,0.0,0.0,0.0,0.0,0.0,0.0,0.0,0.0,0.0,0.0,0.0,0.0,0.0,0.0,0.0,0.0,0.0,0.0,0.0,0.0,0.0,0.0,0.0,0.0,0.0,0.0,0.0,0.0,-1.8671,-1.7711,0.0,0.0,0.0,0.0,0.0,0.0,0.0,0.0,0.0,0.0,0.0,0.0,0.0,0.0,0.0,0.0,0.0,0.0,0.0,0.0,0.0,0.0,0.0,0.0,0.0,0.0,0.0,0.0,0.0,0.0,0.0,0.0,0.0,0.0,0.0,0.0,-1.5111,-1.5977,-1.5909,-1.7054,-1.9288,-1.8296,-1.7135,-1.5946,0.0,0.0,0.0,0.0,0.0,0.0,0.0,0.0,0.0,0.0,0.0,0.0,0.0,0.0,0.0,0.0,0.0,0.0,0.0,0.0,0.0,0.0,0.0,0.0,0.0,0.0,0.0,0.0,0.0,0.0,0.0,0.0,0.0,0.0,0.0,0.0,0.0,0.0,0.0,0.0,0.0,0.0,0.0,0.0,0.0,0.0,0.0,0.0,0.0,0.0,0.0,0.0,0.0,0.0,0.0,0.0,0.0,0.0,0.0,0.0,0.0,0.0,0.0,0.0,0.0,0.0,0.0,0.0,0.0,0.0,-1.9586,-1.9025,0.0,0.0,0.0,0.0,0.0,0.0,0.0,0.0,0.0,0.0,0.0,0.0,0.0,0.0,0.0,0.0,0.0,0.0,0.0,0.0,0.0,0.0,0.0,-1.7069,-1.6325,-1.6489,-1.5899,-1.5566,0.0,0.0,0.0,0.0,0.0,0.0,0.0,-1.5279,-1.5723,-1.7155,-1.8281,-2.0156,-2.2676,-2.3105,-2.1973,-1.9512,-1.7754,0.0,0.0,0.0,0.0,0.0,0.0,0.0,0.0,0.0,0.0,0.0,0.0,0.0,0.0,0.0,0.0,0.0,0.0,0.0,0.0,0.0,0.0,0.0,0.0,0.0,0.0,0.0,0.0,0.0,0.0,0.0,0.0,0.0,0.0,0.0,0.0,0.0,0.0,0.0,0.0,0.0,0.0,0.0,0.0,0.0,0.0,0.0,0.0,0.0,0.0,0.0,0.0,0.0,0.0,0.0,0.0,0.0,0.0,0.0,0.0,0.0,0.0,0.0,-2.1029,-2.1243,-2.1296,-2.1537,-2.1937,-2.2378,-2.1162,-2.1042,-2.155,-1.9559,0.0,0.0,0.0,0.0,0.0,0.0,0.0,0.0,0.0,0.0,0.0,0.0,0.0,0.0,0.0,0.0,0.0,0.0,0.0,0.0,0.0,-1.6616,-1.6443,-1.7179,-1.6488,-1.6183,-1.6512,0.0,0.0,0.0,0.0,0.0,-1.5457,-1.5762,-1.6926,-1.8945,-2.2734,-2.5,-2.5801,-2.623,-2.6211,-2.5684,-2.2087,-2.0312,-1.9803,0.0,0.0,0.0,0.0,0.0,0.0,0.0,0.0,0.0,0.0,0.0,0.0,0.0,0.0,0.0,0.0,0.0,0.0,0.0,0.0,0.0,0.0,0.0,0.0,0.0,0.0,0.0,0.0,0.0,0.0,0.0,0.0,0.0,0.0,0.0,0.0,0.0,0.0,0.0,0.0,0.0,-2.1945,-2.2435,0.0,0.0,0.0,0.0,0.0,0.0,0.0,0.0,0.0,0.0,0.0,0.0,0.0,-1.9945,-2.0494,-2.1296,-2.1844,-2.2138,-2.2966,-2.35,-2.3741,-2.3781,-2.3981,-2.4275,-2.4088,0.0,-2.2258,-2.1697,0.0,0.0,0.0,0.0,0.0,0.0,0.0,0.0,0.0,0.0,0.0,0.0,0.0,0.0,0.0,0.0,0.0,0.0,0.0,0.0,0.0,-1.8074,-1.832,-1.9453,-1.9414,-1.8906,-1.7837,-1.7408,0.0,0.0,0.0,-1.5527,-1.5811,-1.7181,-1.9686,-2.3281,-2.6367,-2.8105,-2.8535,-2.8711,-2.8672,-2.8359,-2.6426,-2.4238,-2.1975,-2.0546,0.0,0.0,0.0,0.0,0.0,0.0,0.0,0.0,0.0,0.0,0.0,0.0,0.0,0.0,0.0,0.0,0.0,0.0,0.0,0.0,0.0,0.0,0.0,0.0,0.0,0.0,0.0,0.0,0.0,0.0,0.0,0.0,0.0,0.0,0.0,0.0,0.0,0.0,0.0,-2.1518,-2.1845,-2.1217,-2.0538,-1.9495,0.0,0.0,0.0,0.0,0.0,0.0,0.0,0.0,0.0,-2.1042,-2.1363,-2.1884,-2.2645,-2.3207,-2.3541,-2.3674,-2.4062,-2.4329,-2.4449,-2.4449,-2.4516,-2.4636,-2.4636,-2.4262,-2.3607,-2.2806,-2.2024,-2.1156,0.0,0.0,0.0,0.0,-2.0714,-2.1287,0.0,0.0,0.0,0.0,0.0,0.0,0.0,0.0,0.0,0.0,0.0,0.0,-1.9322,-1.978,-2.0469,-2.1736,-2.1992,-2.1406,-1.9902,-1.9026,-1.7876,-1.6309,-1.5703,-1.5723,-1.6418,-1.9314,-2.2773,-2.6875,-2.9023,-3.0234,-3.0527,-3.0644,-3.0527,-3.0272,-2.9668,-2.7519,-2.4284,-2.3047,-2.1172,-1.8945,0.0,0.0,0.0,0.0,0.0,0.0,0.0,0.0,0.0,0.0,0.0,0.0,0.0,0.0,0.0,0.0,0.0,0.0,0.0,0.0,0.0,0.0,0.0,0.0,0.0,0.0,0.0,0.0,0.0,0.0,0.0,0.0,0.0,0.0,0.0,0.0,0.0,-2.1527,-2.1587,-2.0436,-2.0739,-2.0022,0.0,0.0,0.0,0.0,0.0,0.0,-2.1069,-2.1189,-2.1737,-2.2846,-2.3166,-2.3634,-2.4302,-2.4529,-2.4636,-2.4636,-2.4636,-2.4676,-2.4756,-2.4756,-2.4796,-2.4863,-2.4863,-2.4863,-2.4783,-2.3741,-2.3006,-2.2458,-2.167,-2.1029,-2.0641,-2.1243,-2.1603,-2.2188,0.0,0.0,0.0,0.0,0.0,0.0,0.0,0.0,0.0,0.0,0.0,-1.8625,-2.033,-2.1271,-2.2266,-2.3555,-2.293,-2.2617,-2.2953,-2.0234,-1.8559,-1.8442,-1.6473,-1.6016,-1.7318,-2.2268,-2.5898,-2.8203,-3.0351,-3.1426,-3.1465,-3.1875,-3.2111,-3.1992,-3.1172,-2.9551,-2.7356,-2.5176,-2.3965,-2.3144,-1.9453,0.0,0.0,0.0,0.0,0.0,0.0,0.0,0.0,0.0,0.0,0.0,0.0,0.0,0.0,0.0,0.0,0.0,0.0,0.0,0.0,0.0,0.0,0.0,0.0,0.0,0.0,0.0,0.0,0.0,0.0,0.0,0.0,0.0,0.0,0.0,0.0,0.0,0.0,-2.1714,-2.1152,0.0,0.0,0.0,0.0,-2.0047,-2.0428,-2.1122,-2.2271,-2.2592,-2.3166,-2.4088,-2.4396,-2.4569,-2.4609,-2.4549,-2.4636,-2.4636,-2.4636,-2.4783,-2.5064,-2.5064,-2.5211,-2.5464,-2.5464,-2.5464,-2.5424,-2.4796,-2.3875,-2.2859,-2.31,-2.2498,-2.1722,-2.3086,-2.3621,-2.3808,0.0,0.0,0.0,0.0,0.0,-1.5787,-1.5709,-1.5792,-1.5937,-1.6269,-1.8008,-1.9785,-2.125,-2.3184,-2.4883,-2.6172,-2.625,-2.5703,-2.4519,-2.209,-2.0605,-2.0294,-1.8208,-1.8867,-2.2676,-2.5371,-2.793,-3.0371,-3.1133,-3.166,-3.1934,-3.209,-3.2229,-3.2209,-3.1855,-3.1133,-3.0019,-2.8125,-2.6269,-2.4473,-2.2812,-2.0801,0.0,0.0,0.0,0.0,0.0,0.0,0.0,0.0,0.0,0.0,0.0,0.0,0.0,0.0,0.0,0.0,0.0,0.0,0.0,0.0,0.0,0.0,0.0,0.0,0.0,0.0,0.0,0.0,0.0,0.0,0.0,0.0,0.0,0.0,0.0,0.0,0.0,-2.0569,-2.095,0.0,-2.0281,-2.0989,-2.1603,-2.1897,-2.2565,-2.3207,-2.3808,-2.3941,-2.4155,-2.4476,-2.4583,-2.4636,-2.4636,-2.4823,-2.4917,-2.493,-2.5117,-2.5251,-2.5358,-2.5358,-2.5411,-2.5518,-2.5518,-2.5518,-2.5491,-2.5291,-2.4943,-2.4583,-2.469,-2.4476,-2.4168,-2.469,-2.489,-2.4957,0.0,0.0,0.0,0.0,-1.541,-1.541,-1.541,-1.5811,-1.6359,-1.7083,-1.916,-2.125,-2.2988,-2.5098,-2.6797,-2.7793,-2.8125,-2.7617,-2.6104,-2.3809,-2.2324,-2.1914,-2.0508,-2.1699,-2.5859,-2.75,-2.9355,-3.1523,-3.1797,-3.209,-3.2383,-3.2519,-3.2598,-3.2578,-3.2441,-3.2226,-3.1855,-3.0566,-2.8691,-2.6554,-2.5644,-2.3672,-2.1094,0.0,0.0,0.0,0.0,0.0,0.0,0.0,0.0,0.0,0.0,0.0,0.0,0.0,0.0,0.0,0.0,0.0,0.0,0.0,0.0,0.0,0.0,0.0,0.0,0.0,0.0,0.0,0.0,0.0,0.0,0.0,0.0,0.0,0.0,-2.0468,-2.1285,-2.0328,-2.1456,-2.2137,-2.147,-2.2392,-2.314,-2.3434,-2.4008,-2.4436,-2.4623,-2.4636,-2.4636,-2.4636,-2.473,-2.4783,-2.4783,-2.5077,-2.5224,-2.5224,-2.5424,-2.5558,-2.5665,-2.5665,-2.5718,-2.5812,-2.5812,-2.5812,-2.5812,-2.5812,-2.5812,-2.5798,-2.5705,-2.5665,-2.5678,-2.5772,-2.5865,-2.5972,0.0,0.0,0.0,-1.541,-1.541,-1.541,-1.541,-1.5801,-1.6887,-1.9004,-2.082,-2.2891,-2.5421,-2.6914,-2.7904,-2.8262,-2.8301,-2.8125,-2.7748,-2.5234,-2.3594,-2.3227,-2.3325,-2.4382,-2.6445,-2.8555,-3.0273,-3.1562,-3.2383,-3.2793,-3.2832,-3.3242,-3.3418,-3.3398,-3.2988,-3.2812,-3.2793,-3.2383,-3.1289,-2.9531,-2.7812,-2.6328,-2.4969,0.0,0.0,0.0,0.0,0.0,0.0,0.0,0.0,0.0,0.0,0.0,0.0,0.0,0.0,0.0,0.0,0.0,0.0,0.0,0.0,0.0,0.0,0.0,0.0,0.0,0.0,0.0,0.0,0.0,0.0,0.0,0.0,0.0,-1.9511,-2.0717,-2.147,-2.1189,-2.2699,-2.3527,-2.3008,-2.3688,-2.4329,-2.4609,-2.4636,-2.4636,-2.4636,-2.4649,-2.4649,-2.4649,-2.4943,-2.509,-2.509,-2.5384,-2.5531,-2.5531,-2.5531,-2.5692,-2.605,-2.605,-2.6119,-2.6386,-2.6386,-2.6386,-2.6386,-2.64,-2.64,-2.6373,-2.6079,-2.605,-2.609,-2.6306,-2.6587,-2.6881,-1.5968,-1.57,-1.541,-1.541,-1.541,-1.541,-1.541,-1.6055,-1.7207,-1.9043,-2.1388,-2.3555,-2.5479,-2.7168,-2.8164,-2.8281,-2.8301,-2.8125,-2.7748,-2.5234,-2.3594,-2.3164,-2.584,-2.7754,-2.8672,-3.0195,-3.1465,-3.2441,-3.2676,-3.2949,-3.3242,-3.3379,-3.3418,-3.3418,-3.3301,-3.3242,-3.3242,-3.3125,-3.2637,-3.1758,-3.0019,-2.8359,-2.6777,0.0,0.0,0.0,0.0,0.0,0.0,0.0,0.0,0.0,0.0,0.0,0.0,0.0,0.0,0.0,0.0,0.0,0.0,0.0,0.0,0.0,0.0,0.0,0.0,0.0,0.0,0.0,0.0,0.0,0.0,0.0,-1.9733,-2.0655,-2.0361,-2.139,-2.2151,-2.2071,-2.2886,-2.3474,-2.3514,-2.3941,-2.4329,-2.4609,-2.4636,-2.4636,-2.4636,-2.4836,-2.4957,-2.4957,-2.5237,-2.5398,-2.5398,-2.5692,-2.5838,-2.5838,-2.6052,-2.6186,-2.6266,-2.6266,-2.6319,-2.6386,-2.6386,-2.6386,-2.6413,-2.6613,-2.6707,-2.668,-2.6386,-2.64,-2.66,-2.668,-2.6894,-2.7161,-1.5853,-1.5642,-1.541,-1.541,-1.541,-1.541,-1.541,-1.6141,-1.7447,-1.9588,-2.1818,-2.401,-2.6005,-2.748,-2.8301,-2.8301,-2.8125,-2.7695,-2.6914,-2.5098,-2.4336,-2.5,-2.7519,-2.9297,-3.0098,-3.1387,-3.2305,-3.2793,-3.2969,-3.3184,-3.3418,-3.3418,-3.3418,-3.3418,-3.3418,-3.3418,-3.3355,-3.2765,-3.2758,-3.2887,-3.1137,-2.993,-2.916,-2.8027,-2.6333,-2.453,-2.4435,-2.353,-2.2412,-2.2255,0.0,0.0,0.0,0.0,0.0,0.0,0.0,0.0,0.0,0.0,0.0,0.0,0.0,0.0,0.0,0.0,0.0,0.0,0.0,0.0,0.0,0.0,0.0,0.0,-2.0855,-2.1643,-2.1603,-2.2285,-2.2806,-2.2806,-2.322,-2.3634,-2.3928,-2.4102,-2.4329,-2.4609,-2.4636,-2.4636,-2.4636,-2.4917,-2.5077,-2.5077,-2.5478,-2.5692,-2.5692,-2.5985,-2.6132,-2.6146,-2.6306,-2.6386,-2.6386,-2.652,-2.6573,-2.6573,-2.6707,-2.676,-2.6774,-2.6934,-2.7001,-2.6987,0.0,0.0,0.0,0.0,-2.7295,-2.7468,-1.541,-1.541,-1.541,-1.541,-1.541,-1.541,-1.541,-1.6141,-1.7642,-2.0331,-2.2112,-2.4102,-2.6797,-2.7773,-2.8242,-2.8281,-2.7949,-2.7207,-2.5908,-2.5195,-2.5625,-2.7552,-2.8496,-2.959,-3.0859,-3.209,-3.2773,-3.2871,-3.3242,-3.3418,-3.3418,-3.3418,-3.3418,-3.3418,-3.3418,-3.3418,-3.3292,-3.211,-3.2174,-3.3,-3.1381,-3.1114,-3.1562,-3.0742,-2.9865,-2.8878,-2.7877,-2.689,-2.5794,-2.3938,0.0,0.0,0.0,0.0,0.0,0.0,0.0,0.0,0.0,0.0,0.0,0.0,0.0,0.0,0.0,0.0,0.0,0.0,0.0,0.0,0.0,0.0,0.0,0.0,-2.1871,-2.2565,-2.2887,-2.31,-2.3273,-2.3273,-2.35,-2.3794,-2.4128,-2.4155,-2.4289,-2.4609,-2.4636,-2.4649,-2.469,-2.497,0.0,0.0,0.0,-2.609,-2.609,-2.6266,-2.6386,-2.6386,-2.6386,-2.6413,-2.6453,-2.6707,-2.6841,-2.6894,-2.7148,-2.7268,-2.7268,-2.7308,-2.7335,-2.7362,-2.7321,-2.7321,-2.7348,-2.7642,-2.7749,-2.7872,-1.541,-1.541,-1.541,-1.541,-1.541,-1.541,-1.541,-1.6141,-1.7759,-2.0683,-2.1992,-2.3887,-2.7187,-2.7748,-2.793,-2.8262,-2.8223,-2.7773,-2.6836,-2.6934,-2.707,-2.7129,-2.8613,-2.9902,-3.0859,-3.1816,-3.2617,-3.3301,-3.3379,-3.3418,-3.3418,-3.3418,-3.3418,-3.3418,-3.3418,-3.3418,-3.3355,-3.3102,-3.2492,-3.1707,-3.1295,-3.1759,-3.25,-3.1973,-3.089,-2.9624,-3.0374,-2.9719,-2.8443,-2.8464,-2.7815,-2.6762,-2.54,-2.4022,0.0,0.0,0.0,0.0,0.0,0.0,0.0,0.0,0.0,0.0,0.0,0.0,0.0,0.0,0.0,0.0,0.0,0.0,0.0,-2.1029,-2.2044,-2.2792,-2.2928,-2.2913,-2.2953,-2.2953,-2.3006,-2.333,-2.3808,-2.3848,-2.4075,-2.4596,-2.4636,-2.4743,-2.4983,-2.5264,-2.5545,-2.5785,-2.6119,-2.6306,-2.6306,-2.636,-2.6386,-2.6386,-2.6386,0.0,-2.6734,-2.68,-2.6947,-2.7188,-2.7241,-2.7268,-2.7281,-2.7522,-2.7762,-2.8033,-2.7709,-2.7615,-2.7655,-2.7949,-2.814,-2.8308,-1.5468,-1.541,-1.541,-1.541,-1.541,-1.541,-1.541,-1.5977,-1.7324,-1.9922,-2.1191,-2.2852,-2.5449,-2.5918,-2.6035,-2.6035,-2.6035,-2.6133,-2.6367,-2.6777,-2.7305,-2.793,-2.9004,-2.998,-3.0879,-3.1738,-3.248,-3.3105,-3.332,-3.3418,-3.3418,-3.3418,-3.3418,-3.3418,-3.3418,-3.3418,-3.3355,-3.2638,-3.2365,-3.2282,-3.1357,-3.1741,-3.2649,-3.1096,-3.0247,-2.9984,-3.0404,-3.0322,-2.9962,-2.9549,-2.9106,-2.8442,-2.727,-2.6113,-2.4883,0.0,0.0,0.0,0.0,0.0,0.0,0.0,0.0,0.0,0.0,0.0,0.0,0.0,0.0,-1.8971,-1.9853,0.0,-2.1136,-2.1871,-2.2485,-2.2928,-2.2928,-2.2928,-2.2928,-2.2928,-2.2928,-2.3046,-2.35,-2.3688,-2.3888,-2.4182,-2.4476,-2.4636,-2.4636,-2.505,-2.5438,-2.5718,-2.6026,-2.6239,-2.6386,-2.6386,-2.6386,-2.6386,-2.6386,-2.6547,-2.6827,-2.6974,-2.7201,-2.7495,-2.7642,-2.7792,-2.7792,-2.7856,-2.8003,-2.8207,-2.7976,-2.7923,-2.7936,-2.8167,-2.8726,-2.9635,-1.5526,-1.541,-1.541,-1.541,-1.541,-1.541,-1.541,-1.5811,-1.6809,-1.8769,-2.0098,-2.1484,-2.3125,-2.3672,-2.3848,-2.3691,-2.3887,-2.4551,-2.5781,-2.6426,-2.7363,-2.873,-2.9219,-2.9824,-3.0625,-3.1484,-3.2129,-3.2539,-3.2969,-3.3184,-3.3184,-3.3184,-3.3184,-3.3184,-3.3262,-3.3262,-3.3121,-3.2023,-3.2068,-3.2623,-3.1195,-3.1127,-3.1626,-2.9401,-2.935,-3.0482,-3.0209,-3.0553,-3.0937,-2.9739,-2.9496,-2.9486,-2.8348,-2.7578,-2.6865,-2.5488,-2.3982,0.0,0.0,0.0,0.0,0.0,0.0,0.0,0.0,-1.8452,-1.8224,-1.9359,-1.9599,-1.996,-2.1149,-2.1363,-2.167,-2.2619,-2.2887,-2.2928,-2.2928,-2.2928,-2.2928,-2.2928,-2.2928,-2.2979,-2.33,-2.3541,-2.3714,-2.3768,-2.4262,-2.4476,-2.4302,-2.4796,-2.5237,-2.5585,-2.5825,-2.6092,-2.6386,-2.6386,-2.6386,-2.6386,-2.6386,-2.6573,-2.6921,-2.7161,-2.7455,-2.7802,-2.8043,-2.8221,-2.8221,-2.8221,-2.8221,-2.8221,-2.8221,-2.8221,-2.8221,-2.8558,-2.9551,-3.0871,-1.5526,-1.541,-1.541,-1.541,-1.541,-1.541,-1.541,-1.5811,-1.6594,-1.7969,-1.8945,-2.0019,-2.1327,-2.1914,-2.2461,-2.3208,-2.4323,-2.5312,-2.625,-2.7422,-2.8164,-2.8359,-2.8769,-2.9219,-2.9707,-3.0586,-3.125,-3.166,-3.209,-3.2305,-3.2305,-3.2305,-3.2305,-3.2324,-3.2695,-3.2656,-3.2324,-3.2572,-3.1813,-3.0463,-3.0222,-2.9502,-2.8449,-2.7871,-2.9426,-3.1966,-3.1927,-3.199,-3.1893,-3.1065,-3.0971,-3.0935,-2.9233,-2.8838,-2.8728,-2.7327,-2.529,-2.3339,-2.2758,-2.1176,-1.9507,-1.8695,-1.8695,-1.9372,0.0,-2.0779,-2.0615,-2.179,-2.2031,-2.2071,-2.2245,-2.2271,-2.2311,-2.2445,-2.2686,-2.2928,-2.2928,-2.2928,-2.2928,-2.2928,-2.2928,-2.2979,-2.33,-2.3354,-2.3487,-2.3754,-2.4075,-2.4356,-2.4569,-2.4903,-2.5331,-2.597,-2.601,-2.6092,-2.6386,-2.6386,-2.6386,-2.6386,-2.6386,-2.668,-2.7215,-2.7255,-2.7575,-2.8181,-2.8207,-2.8221,-2.8221,-2.8221,-2.8221,-2.8221,-2.8221,-2.8221,-2.8389,-2.9955,-3.0622,-3.1286,-1.6054,-1.6226,-1.634,-1.5997,-1.5623,-1.541,-1.541,-1.5566,-1.6055,-1.7096,-1.7793,-1.8477,-1.9241,-1.9297,-1.9609,-2.0449,-2.2402,-2.4062,-2.5156,-2.7148,-2.8301,-2.8301,-2.8457,-2.875,-2.918,-2.9805,-3.0332,-3.0742,-3.1211,-3.1426,-3.1426,-3.168,-3.1797,-3.1797,-3.1973,-3.209,-3.2168,-3.209,-3.1786,-3.1317,-3.1009,-3.0531,-2.9989,-2.9642,-3.0282,-3.1366,-3.0553,-3.0619,0.0,-3.0626,-3.0509,-3.0354,-2.941,-2.8897,-2.852,-2.7788,-2.5621,-2.3231,-2.1967,-2.077,-1.9766,-1.9533,-1.9631,-2.0024,-2.0899,-2.0722,-2.0748,-2.1924,-2.2031,-2.2017,-2.2352,-2.2418,-2.2472,-2.2645,-2.3666,-2.4465,-2.4465,-2.462,-2.4734,-2.4734,-2.3776,-2.3113,-2.306,-2.322,-2.338,-2.35,-2.3941,-2.4262,-2.4382,-2.4663,-2.501,-2.5438,-2.5451,-2.5665,-2.6132,-2.6132,-2.6306,-2.664,-2.664,-2.6947,-2.7522,-2.7522,-2.7749,-2.8221,-2.8221,-2.8221,-2.8221,-2.8221,-2.8221,-2.8221,-2.8221,-2.8221,-2.8305,-2.9048,-3.0538,-3.2525,-1.668,-1.6793,-1.68,-1.6397,-1.594,-1.5584,-1.5439,-1.541,-1.5644,-1.632,-1.6789,-1.7129,-1.7441,-1.709,-1.7227,-1.8169,-2.0547,-2.2617,-2.4141,-2.6562,-2.8047,-2.8281,-2.8301,-2.8437,-2.873,-2.918,-2.9531,-2.9844,-3.0293,-3.0527,-3.0527,-3.084,-3.0976,-3.0976,-3.1094,-3.1269,-3.1445,-3.125,-3.1269,-3.1426,-3.1113,-3.0976,-3.0937,-3.0644,-3.0449,-3.0237,-2.9389,-2.9527,-2.9941,-2.9473,-2.9381,-2.9312,-2.8689,-2.8332,-2.8052,-2.7937,-2.5789,-2.2999,-2.0925,-2.0067,-1.9907,-2.0361,-2.0468,-2.0548,-2.0855,-2.0815,-2.0962,-2.1804,-2.1951,-2.211,-2.2458,-2.2539,-2.2768,-2.3543,-2.4713,-2.5781,-2.6283,-2.6493,-2.6643,-2.6643,-2.5072,-2.3927,-2.3681,-2.339,-2.3193,-2.3193,-2.3754,-2.4088,-2.4088,-2.4436,-2.477,-2.5064,-2.5157,-2.5438,-2.5959,-2.6039,-2.6293,-2.6707,-2.6787,-2.7094,-2.7589,-2.7749,-2.7936,-2.8221,-2.8221,-2.8221,-2.8221,-2.8221,-2.8221,-2.8221,-2.8221,-2.8221,-2.8221,-2.8726,-3.0856,-3.3526,-1.7274,-1.6715,-1.6312,-1.6312,-1.6283,-1.6083,-1.5497,-1.541,-1.5488,-1.5702,-1.5959,-1.6144,-1.6144,-1.5723,-1.5996,-1.7305,-1.9412,-2.1564,-2.3672,-2.584,-2.7422,-2.8262,-2.8301,-2.8301,-2.832,-2.873,-2.8945,-2.8965,-2.9394,-2.9665,-2.9665,-2.9685,-2.9685,-2.9648,-3.0059,-3.0019,-2.9668,-3.0078,-3.0,-2.9704,-2.9629,-2.9685,-2.9685,-2.9609,-2.9355,-2.9023,-2.9453,-2.9609,-2.9336,-2.7676,-2.7656,-2.815,-2.6981,-2.7132,-2.7848,-2.8108,-2.6075,-2.3059,-2.0208,-1.9599,-2.0,-2.0869,-2.1082,-2.1162,-2.1521,-2.1802,-2.1937,-2.1977,-2.2432,-2.2901,-2.2914,-2.2846,-2.3475,-2.5212,-2.553,-2.6199,-2.7968,-2.8223,-2.8239,-2.8239,-2.6837,-2.5813,-2.556,-2.3914,-2.2873,-2.2873,-2.3434,-2.3781,-2.3781,-2.4329,-2.477,-2.5064,-2.5358,-2.5651,-2.6037,-2.6239,-2.6386,-2.6413,-2.6694,-2.6987,-2.7295,-2.7953,-2.8221,-2.8221,-2.8221,-2.8221,-2.8221,-2.8221,-2.8221,-2.8221,-2.8221,-2.8221,-2.8389,-3.0136,-3.185,-3.369,-1.7943,-1.7957,-1.7984,-1.7573,-1.7495,-1.7274,-1.6687,-1.6255,-1.6075,-1.6267,-1.6035,0.0,0.0,0.0,0.0,0.0,-1.8652,-2.0508,-2.2402,-2.4805,-2.6543,-2.7402,-2.7988,-2.8301,-2.8301,-2.8437,-2.8496,-2.8496,-2.8379,-2.8354,-2.8354,-2.8354,-2.8354,-2.8374,-2.8457,-2.8594,-2.8711,-2.8574,-2.8594,-2.873,-2.873,-2.873,-2.8809,-2.9668,-2.9023,-2.7676,0.0,-2.7695,-2.7324,-2.6465,-2.6317,-2.6551,-2.621,-2.6129,-2.578,-2.3983,-2.3502,-2.3041,-2.0856,-2.0307,-2.0588,-2.147,-2.1403,-2.1389,-2.2356,-2.2865,-2.3407,-2.4516,-2.5101,-2.5462,-2.5673,-2.5719,-2.5883,-2.6476,-2.7829,-2.9086,-2.968,-3.0115,-3.0416,-3.0416,-2.8873,-2.7842,-2.7734,-2.5143,-2.338,-2.318,-2.3714,-2.4062,-2.4062,-2.4422,-2.4676,-2.4783,-2.5064,-2.5371,-2.5665,-2.5959,-2.6293,-2.668,-2.7175,-2.7562,-2.7939,-2.814,-2.8221,-2.8221,-2.8221,-2.8221,-2.8305,-2.9467,-2.9969,-3.0038,-3.1188,-3.167,-3.1753,-3.233,-3.3786,-3.5704,-1.8795,-1.8693,-1.8575,-1.8174,-1.8093,0.0,0.0,0.0,0.0,0.0,0.0,0.0,0.0,0.0,0.0,0.0,0.0,-1.9409,-2.1074,-2.3184,-2.4883,-2.6035,-2.6465,-2.6968,-2.7589,-2.7291,-2.743,-2.8066,-2.7629,-2.7495,-2.7708,-2.75,-2.7441,-2.7441,-2.7441,-2.7578,-2.7812,-2.7559,-2.7851,-2.8476,-2.8027,-2.793,-2.8105,-2.8476,-2.7461,0.0,-2.5508,-2.5137,-2.4707,-2.4231,-2.4485,-2.5011,-2.4938,-2.5111,-2.4889,-2.2343,-2.2377,-2.2894,-2.1403,-2.0909,-2.1168,-2.2566,-2.2544,-2.2553,-2.3918,-2.449,-2.5095,-2.6277,-2.6438,-2.6565,-2.7026,-2.701,-2.7142,-2.7997,-2.9648,-3.1081,-3.1647,-3.2175,-3.2456,-3.2316,-3.0795,-2.9752,-2.9621,-2.7276,-2.53,-2.433,-2.4798,-2.4925,-2.4356,-2.473,-2.4943,-2.4943,-2.5237,-2.5478,-2.5665,-2.5959,-2.64,-2.6987,-2.7362,-2.7749,-2.8221,-2.8221,-2.8221,-2.8221,-2.8221,-2.8558,-2.9216,-3.0372,-3.1203,-3.185,-3.2987,-3.3397,-3.3479,-3.4132,-3.5342,-3.6816,-1.9872,-1.8948,-1.8216,0.0,0.0,0.0,0.0,0.0,0.0,0.0,0.0,0.0,0.0,0.0,0.0,0.0,0.0,0.0,-1.9668,-2.1055,-2.2542,-2.4225,-2.4016,-2.4621,-2.6249,-2.5537,-2.5925,-2.7577,-2.7085,-2.7117,-2.7584,-2.7102,-2.6906,-2.6875,-2.6914,-2.6914,-2.6914,-2.6914,-2.7598,-2.8574,-2.7324,-2.7051,-2.7285,-2.6113,-2.4824,-2.3555,-2.2812,-2.2246,-2.1797,-2.1385,-2.2418,-2.3828,-2.3413,-2.4296,-2.5112,-2.3182,-2.2696,-2.2644,-2.1795,-2.1427,-2.181,-2.4043,-2.4422,-2.4625,-2.6088,-2.6616,-2.6953,-2.7308,-2.6712,-2.6311,-2.7048,-2.6936,-2.7442,-2.9607,-3.0995,-3.2263,-3.3572,-3.4128,-3.4238,-3.3853,-3.2508,-3.1511,-3.1219,-3.0161,-2.8577,-2.6453,-2.666,-2.6298,-2.4784,-2.5246,-2.5568,-2.5518,-2.5876,-2.6114,-2.6037,-2.6318,-2.684,-2.7431,-2.7431,-2.7741,-2.8305,-2.8221,-2.8221,-2.8221,-2.8305,-2.93,-3.0788,-3.0954,-3.2015,-3.356,-3.3642,-3.3642,-3.3887,-3.5527,-3.6654,-3.7308,0.0,0.0,0.0,0.0,0.0,0.0,0.0,0.0,0.0,0.0,0.0,0.0,0.0,0.0,0.0,0.0,0.0,0.0,-1.7983,-1.9653,-2.1318,-2.2941,-2.4304,-2.5508,-2.6431,-2.6648,-2.6994,-2.7446,-2.6883,-2.6539,-2.6329,-2.5762,-2.5371,-2.5098,-2.541,-2.5566,-2.5566,-2.5566,-2.5566,-2.5488,0.0,-2.4023,-2.3887,-2.4512,-2.3555,-2.1951,-2.2734,-2.2305,-2.1444,-2.2012,-2.3402,-2.4977,-2.5497,-2.5315,-2.4731,-2.3419,-2.304,-2.286,-2.1892,-2.2651,-2.3839,-2.4466,-2.5191,-2.6088,-2.744,-2.798,-2.8286,-2.85,-2.8781,-2.876,-2.8063,-2.9015,-3.0057,-3.0356,-3.2034,-3.329,-3.3376,-3.3725,-3.3927,-3.3817,-3.3451,-3.3188,-3.3098,-3.2822,-3.1931,-3.0236,-2.8121,-2.6721,-2.6298,-2.6729,-2.6533,-2.5504,-2.7004,-2.7235,-2.6037,-2.7465,-2.8561,-2.9272,-2.9177,-2.9424,-3.0122,-2.881,-2.8221,-2.8305,-2.9551,-3.0372,-3.1037,-3.3642,-3.4944,-3.5511,-3.6752,-3.725,-3.7365,-3.8132,-3.8725,-3.9194,0.0,0.0,0.0,0.0,0.0,0.0,0.0,0.0,0.0,0.0,0.0,0.0,0.0,0.0,0.0,0.0,0.0,0.0,0.0,-1.8627,-2.0036,-2.1358,-2.2305,-2.3345,-2.4486,-2.4505,-2.5127,-2.6349,-2.5351,-2.5051,-2.5443,-2.4661,-2.3989,-2.3418,-2.423,-2.4388,-2.4142,-2.4432,0.0,0.0,0.0,0.0,0.0,-2.2977,-2.199,-2.0742,-2.1699,-2.2285,-2.275,-2.3848,-2.4946,-2.5887,-2.628,-2.6258,-2.5887,-2.5067,-2.4932,-2.4792,-2.3448,-2.44,-2.5728,-2.5728,-2.6627,-2.7889,-2.8975,-2.944,-2.9502,-2.9375,-2.9207,-2.8989,-2.8483,-2.9726,-3.0841,-3.0846,-3.2927,-3.4377,-3.3779,-3.4112,-3.4209,-3.3835,-3.3817,-3.3817,-3.3817,-3.3817,-3.3451,-3.2578,-3.0601,-2.9112,-2.8453,-2.8895,-2.8792,-2.8085,-2.909,-2.9256,-2.8361,-2.9374,-3.0265,-3.0941,-3.0934,-3.1269,-3.1936,-3.0949,-3.0441,-3.0524,-3.152,-3.2412,-3.3233,-3.5187,-3.6414,-3.7232,-3.8225,-3.856,-3.8695,-3.924,-3.9726,-4.0214,0.0,0.0,0.0,0.0,0.0,0.0,0.0,0.0,0.0,0.0,-1.9695,-1.9553,0.0,0.0,0.0,0.0,0.0,0.0,0.0,0.0,-1.8934,-1.9874,-1.9745,-2.0375,-2.2008,-2.1431,-2.2318,-2.4772,-2.3386,-2.3367,-2.453,-2.3602,-2.2764,0.0,0.0,0.0,0.0,0.0,0.0,0.0,0.0,0.0,0.0,0.0,0.0,-1.998,-2.0547,-2.2285,-2.4551,-2.5927,-2.6601,-2.6779,-2.6795,-2.7141,-2.7539,-2.7185,-2.7204,-2.7068,-2.5692,-2.6321,-2.7387,-2.7387,-2.8526,-2.9772,-3.0401,-3.0624,-3.0405,-2.95,-2.8597,-2.8009,-2.8161,-2.9392,-3.0531,-3.094,-3.3378,-3.5067,-3.4408,-3.4599,-3.4552,-3.3853,-3.3817,-3.3817,-3.3817,-3.3817,-3.3886,-3.3886,-3.3393,-3.2363,-3.0801,-3.134,-3.1634,-3.1606,-3.1453,-3.13,-3.13,-3.1529,-3.2013,-3.2663,-3.2692,-3.3047,-3.374,-3.3499,-3.3431,-3.3397,-3.3642,-3.4603,-3.5994,-3.6236,-3.7232,-3.864,-3.864,-3.8756,-3.8848,-3.9714,-4.0304,-4.0796,0.0,0.0,0.0,0.0,0.0,0.0,0.0,0.0,0.0,0.0,-2.1434,-1.9759,0.0,0.0,0.0,0.0,0.0,0.0,0.0,0.0,0.0,-1.9448,-2.0457,-2.1374,-2.2219,-2.2551,-2.2917,-2.3423,0.0,-2.2839,-2.2752,-2.2286,-2.1747,0.0,0.0,0.0,0.0,0.0,0.0,0.0,0.0,0.0,0.0,0.0,0.0,0.0,-2.123,-2.2617,-2.4153,-2.5913,-2.7237,-2.8388,-2.9088,-2.846,-2.7539,-2.7792,-2.73,-2.6663,-2.6729,-2.7784,-2.8937,-2.8937,-3.0195,-3.1212,-3.0315,-3.056,-3.0178,-2.7333,-2.7321,-2.7405,-2.6085,-2.7999,-2.993,-3.0411,-3.2407,-3.3951,-3.3932,-3.3941,-3.3959,-3.3817,-3.3817,-3.3817,-3.3817,-3.4094,-3.4301,-3.4301,-3.5116,-3.4756,-3.2767,-3.318,-3.3426,-3.3356,-3.1988,-3.13,-3.13,-3.269,-3.3788,-3.4529,-3.4444,-3.4761,-3.5508,-3.4029,-3.3419,-3.3479,-3.4944,-3.5753,-3.6075,-3.757,-3.8322,-3.864,-3.9035,-3.9398,-3.9813,-4.0626,-4.1203,-4.1638,0.0,0.0,0.0,0.0,0.0,0.0,0.0,-2.3636,-2.4536,-2.628,-2.5385,-2.4004,-2.2573,-2.1141,-2.0095,0.0,0.0,0.0,0.0,0.0,0.0,0.0,0.0,0.0,0.0,-2.1568,0.0,0.0,0.0,0.0,0.0,0.0,0.0,0.0,0.0,0.0,0.0,0.0,0.0,0.0,0.0,0.0,0.0,0.0,0.0,0.0,-2.1504,-2.2852,-2.427,-2.5421,-2.716,-2.8993,-2.9657,-2.9531,-2.913,-2.9588,-2.9358,-2.8961,-2.8801,-2.9705,-3.052,-2.9982,-3.0972,-3.1734,-3.0222,-3.0113,-2.9604,-2.6839,-2.6705,-2.6846,-2.6032,-2.7688,-2.9478,-3.018,-3.2334,-3.3888,-3.3962,-3.4228,-3.4301,-3.4163,-3.3955,-3.3817,-3.3817,-3.4163,-3.437,-3.437,-3.5679,-3.5991,-3.4828,-3.5193,-3.5389,-3.5363,-3.4371,-3.3827,-3.3827,-3.4822,-3.5677,-3.6251,-3.6376,-3.6852,-3.759,-3.6603,-3.6271,-3.6494,-3.7072,-3.7312,-3.741,-3.8243,-3.856,-3.864,-3.9114,-3.9515,-3.9986,-4.1062,-4.1743,-4.2245,0.0,0.0,0.0,0.0,0.0,0.0,0.0,-2.5743,-2.6696,-2.9202,-2.954,-2.8687,-2.628,-2.3853,-2.1919,0.0,0.0,0.0,0.0,0.0,0.0,0.0,0.0,0.0,0.0,0.0,0.0,0.0,0.0,0.0,0.0,0.0,0.0,0.0,0.0,0.0,0.0,0.0,0.0,0.0,0.0,0.0,0.0,0.0,0.0,0.0,0.0,-2.2656,-2.4004,-2.4805,-2.6567,-2.8487,-2.9298,-2.9924,-3.049,-3.0907,-3.1157,-3.1195,-3.0719,-3.1304,-3.1782,-3.0954,-3.1616,-3.1979,-3.0006,-2.968,-2.908,-2.6629,-2.625,-2.6367,-2.6269,-2.7559,-2.893,-2.9925,-3.2027,-3.365,-3.4019,-3.4518,-3.469,-3.4439,-3.4163,-3.4024,-3.3955,-3.437,-3.4646,-3.4646,-3.5978,-3.6726,-3.6561,-3.6897,-3.7034,-3.696,-3.6516,-3.6367,-3.6442,-3.6664,-3.7034,-3.7568,-3.7892,-3.8402,-3.9049,-3.886,-3.8984,-3.9299,-3.8919,-3.8798,-3.8877,-3.8798,-3.8798,-3.8956,-3.9351,-3.9832,-4.0325,-4.1484,-4.223,-4.2756,0.0,0.0,0.0,0.0,0.0,0.0,0.0,-2.804,-3.0259,-3.3652,-3.2817,-3.1436,-3.0206,-2.7168,-2.4173,0.0,0.0,0.0,0.0,0.0,0.0,0.0,0.0,0.0,0.0,0.0,0.0,0.0,0.0,0.0,0.0,0.0,0.0,0.0,0.0,0.0,0.0,0.0,0.0,0.0,0.0,0.0,0.0,0.0,0.0,0.0,0.0,-2.166,-2.2422,-2.4441,-2.5527,-2.6267,-2.7902,-2.9124,-3.0073,-3.0471,-3.0888,-3.1262,-3.1552,-3.2011,-3.2358,-3.2211,-3.253,-3.2195,-2.97,-2.9639,-2.9238,-2.5879,-2.584,-2.6269,-2.581,-2.6875,-2.8213,-2.9526,-3.095,-3.2267,-3.3463,-3.4069,-3.4369,-3.4402,-3.4646,-3.4715,-3.437,-3.499,-3.5421,-3.5421,-3.6538,-3.7423,-3.7782,-3.7897,-3.7715,-3.7329,-3.696,-3.6886,-3.7274,-3.696,-3.7181,-3.7936,-3.7974,-3.8224,-3.8701,-3.8974,-3.9166,-3.9294,-3.9262,-3.943,-3.9745,-3.943,-3.943,-3.9823,-4.0197,-4.07,-4.1202,-4.2026,-4.2615,-4.3144,0.0,0.0,0.0,0.0,0.0,0.0,-2.7568,-2.8595,-3.0468,-3.4449,-3.4835,-3.4073,-3.229,-3.0306,-2.7293,-2.2874,0.0,0.0,0.0,0.0,0.0,0.0,0.0,0.0,0.0,0.0,0.0,0.0,0.0,0.0,0.0,0.0,0.0,0.0,0.0,0.0,0.0,0.0,0.0,0.0,0.0,0.0,0.0,0.0,0.0,0.0,0.0,0.0,-2.2402,-2.3242,-2.4512,-2.581,-2.6543,-2.7596,-2.8793,-2.9968,-3.0487,-3.0983,-3.2108,-3.2541,-3.274,-3.2912,-3.2928,-3.2257,-2.9927,-2.9381,-2.875,-2.6348,-2.5937,-2.6191,-2.6777,-2.7109,-2.7779,-2.9383,-3.0529,-3.1419,-3.2243,-3.3187,-3.386,-3.3899,-3.424,-3.4569,-3.4696,-3.5196,-3.5819,-3.6549,-3.7039,-3.7604,-3.8316,-3.8155,-3.7936,-3.7789,-3.7329,-3.7255,-3.7421,-3.7495,-3.7715,-3.8009,-3.8228,-3.8588,-3.8996,-3.9123,-3.9338,-3.9682,-3.9634,-3.9745,-3.9902,-3.9745,-3.9745,-3.9902,-4.0353,-4.0779,-4.1281,-4.2106,-4.2695,-4.3144,0.0,0.0,0.0,0.0,0.0,-2.4575,-2.8191,-2.91,-3.076,-3.4799,-3.5512,-3.5077,-3.3495,-3.1436,-2.8599,-2.4675,-2.3572,0.0,0.0,0.0,0.0,0.0,0.0,0.0,0.0,0.0,-2.3045,-2.3504,-2.411,0.0,0.0,0.0,0.0,0.0,0.0,0.0,0.0,0.0,0.0,0.0,0.0,0.0,0.0,0.0,0.0,0.0,0.0,0.0,0.0,0.0,0.0,-2.5176,-2.5265,-2.6055,-2.7356,-2.9394,-3.0238,-3.0819,-3.2224,-3.282,-3.3102,-3.3355,-3.3105,-3.2226,-3.0059,-2.9336,-2.8594,-2.6758,-2.625,-2.6348,-2.7148,-2.7246,-2.7559,-2.8633,-2.9766,-3.0742,-3.1426,-3.2525,-3.338,-3.3681,-3.426,-3.47,-3.485,-3.544,-3.6247,-3.7246,-3.7402,-3.7793,-3.8535,-3.8302,-3.8155,-3.8155,-3.7789,-3.7623,-3.777,-3.7936,-3.8082,-3.8155,-3.8428,-3.873,-3.9043,-3.9154,-3.9449,-3.9893,-3.9931,-4.0023,-4.0294,-4.0137,-4.0137,-4.0294,-4.0607,-4.0937,-4.1266,-4.2067,-4.2617,-4.2969,0.0,0.0,0.0,0.0,0.0,0.0,-2.7939,-2.9816,-3.1992,-3.5086,-3.46,-3.3922,-3.3897,-2.9955,-2.7329,-2.7243,-2.4732,0.0,0.0,0.0,0.0,0.0,0.0,0.0,0.0,0.0,-2.416,-2.4491,-2.5037,-2.4919,-2.4194,-2.3247,0.0,0.0,0.0,0.0,0.0,0.0,0.0,0.0,0.0,0.0,-2.3891,0.0,0.0,0.0,0.0,0.0,0.0,0.0,0.0,0.0,0.0,-2.4727,-2.5732,-2.8746,-3.0195,-3.1074,-3.1934,-3.2793,-3.3418,-3.3418,-3.3105,-3.2226,-3.0059,-2.9626,-2.9019,-2.6836,-2.6719,-2.6875,-2.6465,-2.709,-2.7519,-2.7109,-2.8476,-3.0039,-3.1328,-3.2266,-3.3155,-3.4093,-3.4918,-3.5257,-3.4835,-3.5947,-3.6836,-3.7266,-3.7676,-3.8105,-3.8555,-3.8574,-3.8574,-3.8574,-3.8228,-3.8155,-3.8574,-3.8228,-3.8228,-3.8574,-3.8574,-3.8574,-3.8594,-3.9023,-3.9453,-3.9922,-3.9874,-4.0376,-4.1172,-4.0666,-4.0763,-4.1172,-4.1172,-4.1172,-4.1289,-4.2109,-4.2422,-4.2558,0.0,0.0,0.0,0.0,0.0,0.0,0.0,-2.7188,-2.8685,-3.1539,-3.1414,-3.1361,-3.2089,-2.9252,-2.7293,-2.7293,0.0,0.0,0.0,0.0,0.0,0.0,0.0,0.0,0.0,0.0,-2.5176,-2.6386,-2.682,-2.6895,-2.6698,-2.4959,-2.365,-2.2704,0.0,0.0,0.0,0.0,0.0,0.0,0.0,-2.4315,-2.4554,0.0,0.0,0.0,0.0,0.0,0.0,0.0,0.0,0.0,0.0,0.0,0.0,-2.6758,-2.8633,-3.0039,-3.037,-3.1465,-3.2422,-3.1836,-3.1348,-3.0684,-2.9414,-2.8906,-2.8418,-2.7513,-2.7129,-2.707,-2.7226,-2.748,-2.8061,-2.9023,-2.9902,-3.082,-3.1816,-3.2949,-3.3711,-3.3681,-3.47,-3.5441,-3.5578,-3.5986,-3.6523,-3.7246,-3.7676,-3.8105,-3.8555,-3.8574,-3.8574,-3.8574,-3.8501,-3.8428,-3.8574,-3.8501,-3.8501,-3.8574,-3.8574,-3.8574,-3.8594,-3.9004,-3.9453,-3.9922,-4.0179,-4.0607,-4.1172,-4.1016,-4.1094,-4.1172,-4.1172,-4.1172,-4.1269,-4.2109,-4.2422,-4.2539,0.0,0.0,0.0,0.0,0.0,0.0,0.0,-2.5802,-2.6884,-2.8849,-2.8775,-2.9101,-3.0633,-2.7946,-2.6465,-2.7494,0.0,0.0,0.0,0.0,0.0,0.0,0.0,0.0,0.0,-2.4404,-2.5735,-2.7829,-2.847,-2.8699,-2.8477,-2.718,-2.5399,-2.3185,-2.1887,-2.1075,0.0,0.0,0.0,0.0,-2.4742,-2.5031,-2.5252,0.0,0.0,0.0,0.0,0.0,0.0,0.0,0.0,0.0,0.0,0.0,0.0,0.0,-2.6816,-2.8516,-2.9141,-3.0234,-3.1152,-3.0723,-3.0293,-2.9746,-2.8867,-2.8594,-2.832,-2.7578,-2.7324,-2.7285,-2.7402,-2.7422,-2.7656,-2.8398,-2.9297,-3.0273,-3.1289,-3.2539,-3.3496,-3.3867,-3.4629,-3.5312,-3.5742,-3.6074,-3.6543,-3.7246,-3.7832,-3.8281,-3.8555,-3.8574,-3.8574,-3.8574,-3.8574,-3.8574,-3.8574,-3.8574,-3.8574,-3.8574,-3.8574,-3.8574,-3.8594,-3.9004,-3.9453,-3.9922,-4.0332,-4.0781,0.0,-4.1172,-4.1172,-4.1172,-4.1172,-4.1172,-4.1269,-4.2109,-4.2422,-4.2539,0.0,0.0,0.0,0.0,0.0,0.0,0.0,-2.5369,-2.6283,-2.7042,-2.6675,-2.7102,-2.9151,-2.6113,-2.4926,-2.7448,0.0,0.0,0.0,0.0,0.0,0.0,0.0,0.0,-2.3747,-2.4318,-2.5935,-2.8736,-2.9942,-3.0191,-2.9584,-2.9632,-2.7327,-2.3159,-2.2754,-2.1816,-2.0683,0.0,0.0,0.0,-2.5345,-2.5995,0.0,0.0,0.0,0.0,0.0,0.0,0.0,0.0,0.0,0.0,0.0,0.0,0.0,0.0,0.0,0.0,0.0,-2.9004,-2.9531,-2.9883,-2.9707,-2.9219,-2.8398,-2.8555,0.0,-2.7266,-2.7363,-2.7591,-2.7129,-2.7031,-2.6797,-2.6064,-2.7402,-2.8926,-3.0195,-3.1543,-3.3008,-3.4648,-3.4766,-3.4902,-3.543,-3.6172,-3.6816,-3.7266,-3.8086,-3.8574,-3.8574,-3.8574,-3.8574,-3.8574,-3.8574,-3.8574,-3.8574,-3.8574,-3.8574,-3.8574,-3.8574,-3.8574,-3.8594,-3.9004,-3.9453,-3.9922,-4.0332,-4.0781,-4.1172,-4.1172,-4.1172,-4.1172,-4.1172,-4.1172,-4.1269,-4.209,-4.2402,-4.2539,0.0,0.0,0.0,0.0,0.0,0.0,0.0,0.0,0.0,0.0,-2.4933,-2.4782,-2.531,-2.4155,-2.3362,0.0,0.0,0.0,0.0,0.0,0.0,0.0,0.0,0.0,-2.4293,-2.5126,-2.6697,-2.9013,-3.0779,-3.1103,-3.0092,-3.0114,-2.7984,-2.4036,-2.334,-2.2132,-2.0625,-2.1312,0.0,0.0,-2.4381,-2.5179,0.0,0.0,0.0,0.0,-2.2872,-2.269,0.0,0.0,0.0,0.0,0.0,0.0,0.0,0.0,-2.4336,-2.4551,-2.5273,0.0,-2.8047,-2.7812,-2.7949,-2.7969,0.0,-2.7891,-2.8164,-2.7207,-2.7363,-2.7689,-2.7591,-2.7246,-2.7383,-2.8496,-2.957,-3.0723,-3.2012,-3.3594,-3.5019,-3.6074,-3.5312,-3.5137,-3.6269,-3.625,-3.6484,-3.7246,-3.8086,-3.8574,-3.8574,-3.8574,-3.8574,-3.8574,-3.8574,-3.8574,-3.8574,-3.8574,-3.8574,-3.8574,-3.8574,-3.8574,-3.8594,-3.9004,-3.9453,-3.9922,-4.0332,-4.0781,-4.1172,-4.1172,-4.1172,-4.1172,-4.1172,-4.1172,-4.123,-4.1758,-4.2148,-4.25,0.0,0.0,0.0,0.0,0.0,0.0,0.0,0.0,0.0,0.0,0.0,0.0,0.0,0.0,0.0,0.0,0.0,0.0,0.0,0.0,0.0,0.0,0.0,-2.3368,-2.4336,-2.5031,-2.6883,-2.991,-3.1458,-3.1996,-3.1534,-3.1607,-2.9254,-2.4922,-2.3086,-2.1641,-2.0625,-2.1431,-2.253,-2.3865,-2.494,0.0,0.0,0.0,0.0,0.0,-2.3089,-2.2836,0.0,-2.3945,-2.4668,-2.4933,0.0,0.0,0.0,0.0,-2.3965,-2.3887,-2.4297,-2.5566,-2.6777,-2.6738,-2.6914,-2.707,-2.7031,-2.7226,-2.7285,-2.6816,-2.707,-2.7363,-2.7363,-2.7656,-2.8125,-2.8867,-3.0391,-3.207,-3.375,-3.5137,-3.5996,-3.6074,-3.5449,-3.5215,-3.5723,-3.5918,-3.6367,-3.7226,-3.8086,-3.8574,-3.8574,-3.8574,-3.8574,-3.8574,-3.8574,-3.8574,-3.8574,-3.8574,-3.8574,-3.8574,-3.8574,-3.8574,-3.8594,-3.9238,-3.9668,-3.9922,-4.0547,-4.0957,-4.1172,-4.1172,-4.1172,-4.1172,-4.1172,-4.1172,-4.125,-4.1855,-4.2226,-4.2519,0.0,0.0,0.0,0.0,0.0,0.0,0.0,0.0,0.0,0.0,0.0,0.0,0.0,0.0,0.0,0.0,0.0,0.0,0.0,0.0,0.0,0.0,0.0,-2.3356,-2.4418,-2.4749,-2.6734,-3.0443,-3.1809,-3.2474,-3.2521,-3.2997,-3.0537,-2.5586,-2.273,-2.1172,-2.0664,-2.1765,-2.2966,-2.4245,-2.5577,0.0,0.0,0.0,0.0,0.0,0.0,0.0,0.0,-2.4336,-2.5215,-2.5566,-2.5098,0.0,0.0,0.0,0.0,0.0,-2.4453,-2.5206,-2.5977,-2.6152,-2.6328,-2.6543,-2.6758,-2.6699,-2.6543,-2.6426,-2.6777,-2.7187,-2.7461,-2.8281,-2.8906,-2.8887,-3.084,-3.3066,-3.5098,-3.6074,-3.6309,-3.5586,-3.5371,-3.5176,-3.4922,-3.5586,-3.6367,-3.7226,-3.8086,-3.8574,-3.8574,-3.8574,-3.8574,-3.8574,-3.8574,-3.8574,-3.8574,-3.8574,-3.8574,-3.8574,-3.8574,-3.8574,-3.8613,-3.9492,-3.9902,-3.9941,-4.0801,-4.1172,-4.1172,-4.1172,-4.1172,-4.1172,-4.1172,-4.1172,-4.1269,-4.2051,-4.2363,-4.2539,0.0,0.0,0.0,0.0,0.0,0.0,0.0,0.0,0.0,0.0,0.0,0.0,0.0,0.0,0.0,0.0,0.0,0.0,0.0,0.0,0.0,0.0,-2.2917,-2.3726,-2.5522,-2.5505,-2.6474,-2.8468,-3.0928,-3.154,-3.0338,-3.235,-3.0588,-2.5596,-2.3666,-2.1992,-2.0625,-2.1154,-2.1748,-2.2451,-2.4049,0.0,0.0,0.0,0.0,0.0,0.0,0.0,0.0,-2.3652,-2.4512,-2.5098,-2.4648,0.0,0.0,0.0,0.0,0.0,-2.507,-2.6172,-2.6562,-2.5527,-2.6094,-2.6738,-2.6044,-2.6738,-2.7266,-2.6543,-2.7012,-2.8008,-2.9453,-2.9277,-2.9492,-3.1289,-3.25,-3.373,-3.5195,-3.582,-3.6074,-3.5937,-3.5254,-3.5078,-3.5742,-3.5937,-3.6367,-3.7226,-3.8086,-3.8574,-3.8574,-3.8574,-3.8574,-3.8574,-3.8574,-3.8574,-3.8574,-3.8574,-3.8574,-3.8574,-3.8574,-3.8574,-3.8613,-3.9492,-3.9902,-3.9941,-4.0801,-4.1172,-4.1172,-4.1172,-4.1172,-4.1172,-4.1172,-4.1172,-4.123,-4.1719,-4.2129,-4.2539,0.0,0.0,0.0,0.0,0.0,0.0,0.0,0.0,0.0,0.0,0.0,0.0,0.0,0.0,0.0,0.0,0.0,0.0,0.0,0.0,0.0,-2.3276,-2.3316,-2.4033,-2.5469,-2.6235,-2.7415,-2.8943,-3.0997,-3.1844,-3.1532,-3.0701,-2.8548,-2.5293,-2.334,-2.1758,-2.0625,-2.1055,-2.1629,-2.2432,0.0,0.0,0.0,0.0,0.0,0.0,0.0,0.0,0.0,0.0,-2.4355,-2.5047,-2.4551,0.0,0.0,0.0,0.0,0.0,-2.4746,-2.5615,-2.6348,-2.6445,-2.7617,-2.8715,-2.8848,-2.8945,-2.8867,-2.8242,-2.8594,-2.9277,-3.0059,-3.0644,-3.1641,-3.3594,-3.4023,-3.4492,-3.5586,-3.5703,-3.5684,-3.5684,-3.5098,-3.4863,-3.5273,-3.5742,-3.6367,-3.7226,-3.8086,-3.8574,-3.8574,-3.8574,-3.8574,-3.8574,-3.8574,-3.8574,-3.8574,-3.8574,-3.8574,-3.8574,-3.8574,-3.8574,-3.8613,-3.9492,-3.9902,-3.9941,-4.0801,-4.1172,-4.1191,-4.1426,-4.1504,-4.1543,-4.1758,-4.1992,-4.2246,-4.2676,-4.2949,-4.3183,0.0,0.0,0.0,0.0,0.0,0.0,0.0,0.0,0.0,0.0,0.0,0.0,0.0,0.0,0.0,0.0,0.0,0.0,0.0,0.0,-2.2176,-2.3308,-2.3973,-2.4831,-2.6044,-2.7114,-2.8341,-2.9778,-3.1241,-3.2287,-3.2806,-2.9659,-2.7141,-2.5137,-2.3203,-2.1721,-2.0625,-2.0937,-2.1531,-2.2424,0.0,0.0,0.0,0.0,0.0,0.0,0.0,0.0,0.0,0.0,0.0,0.0,0.0,0.0,0.0,-2.4238,-2.3867,-2.3965,-2.4805,-2.5449,-2.6289,-2.7988,-2.9043,-2.9941,-3.1094,-3.0684,-3.0039,-3.0019,-3.0371,-3.0723,-3.0918,-3.2305,-3.3848,-3.5176,-3.5098,-3.5098,-3.5781,-3.5508,-3.5234,-3.5234,-3.4824,-3.4629,-3.4844,-3.5566,-3.6406,-3.7363,-3.8144,-3.8574,-3.8574,-3.8574,-3.8574,-3.8574,-3.8574,-3.8574,-3.8574,-3.8574,-3.8574,-3.8574,-3.8574,-3.8633,-3.875,-3.9531,-3.9941,-4.0078,-4.084,-4.123,-4.1348,-4.166,-4.1855,-4.1973,-4.2305,-4.2695,-4.3125,-4.3555,-4.3711,-4.3711,0.0,0.0,0.0,0.0,0.0,0.0,0.0,0.0,0.0,0.0,0.0,0.0,0.0,0.0,0.0,0.0,0.0,0.0,-2.0513,-2.0991,-2.1789,-2.2964,-2.4776,-2.6643,-2.8607,-2.8251,-2.8628,-2.9797,-3.1429,-3.2226,-3.2191,-3.0331,-2.8086,-2.5577,-2.4258,-2.25,-2.0605,-2.0644,-2.0899,-2.1391,-2.2266,0.0,0.0,0.0,0.0,0.0,0.0,0.0,0.0,0.0,0.0,0.0,0.0,0.0,-2.4492,-2.4394,-2.4102,-2.4238,-2.6269,-2.6602,-2.7031,-2.9941,-2.9238,-2.8452,-3.0469,-3.0254,-2.9941,-3.1133,-3.1719,-3.2266,-3.3047,-3.4297,-3.5254,-3.5371,-3.5371,-3.5371,-3.543,-3.5039,-3.4746,-3.4746,-3.4375,-3.4434,-3.5254,-3.5742,-3.6543,-3.7793,-3.8301,-3.8574,-3.8574,-3.8574,-3.8574,-3.8574,-3.8574,-3.8574,-3.8574,-3.8574,-3.8574,-3.8574,-3.8574,-3.8789,-3.918,-3.9668,-4.0098,-4.0508,-4.0976,-4.1387,-4.1758,-4.1797,-4.2031,-4.2383,-4.2422,-4.2695,-4.3125,-4.3555,-4.3711,-4.3711,0.0,0.0,0.0,0.0,0.0,0.0,0.0,0.0,0.0,0.0,0.0,0.0,0.0,0.0,0.0,0.0,0.0,0.0,-2.022,-2.0805,-2.1837,-2.3297,-2.4446,-2.5976,-2.7977,-2.9358,-3.0346,-3.0844,-3.2421,-3.3,-3.2502,-3.0093,-2.7512,-2.4863,-2.3574,-2.2402,-2.1407,-2.1094,-2.123,-2.1703,-2.2288,-2.2942,0.0,0.0,0.0,0.0,0.0,0.0,0.0,0.0,-2.2676,-2.3516,-2.3301,-2.3965,-2.4707,-2.418,-2.3906,-2.4023,-2.5098,-2.6269,-2.7578,-2.9258,-2.9863,-3.0547,-3.2441,-3.2617,-3.2578,-3.334,-3.3633,-3.3769,-3.3828,-3.4902,-3.5508,-3.4707,-3.4785,-3.4863,-3.4609,-3.418,-3.4101,-3.4629,-3.4336,-3.4531,-3.5664,-3.6172,-3.6836,-3.7851,-3.832,-3.8574,-3.8574,-3.8574,-3.8574,-3.8574,-3.8574,-3.8574,-3.8574,-3.8574,-3.8574,-3.8574,-3.8574,-3.8789,-3.9219,-3.9961,-4.0527,-4.0957,-4.166,-4.2051,-4.2207,-4.248,-4.2695,-4.291,-4.373,-4.3984,-4.4131,-4.5888,-4.5557,-4.4288,0.0,0.0,0.0,0.0,0.0,0.0,0.0,0.0,0.0,0.0,0.0,0.0,0.0,0.0,0.0,0.0,0.0,0.0,-2.0617,-2.0925,-2.1623,-2.2778,-2.3804,-2.5221,-2.7142,-3.0037,-3.1581,-3.1834,-3.3187,-3.3434,-3.2508,-2.9638,-2.7151,-2.498,-2.3555,-2.2754,-2.2441,-2.1738,-2.1621,-2.1938,-2.2231,-2.2658,0.0,0.0,0.0,0.0,0.0,0.0,0.0,0.0,-2.2129,-2.3008,-2.3086,-2.3828,-2.4656,-2.4277,-2.4668,-2.5234,-2.5391,-2.6719,-2.8359,-2.9629,-3.043,-3.1504,-3.375,-3.4062,-3.4101,-3.4941,-3.5019,-3.4883,-3.4707,-3.5312,-3.5488,-3.4434,-3.4512,-3.459,-3.4316,-3.3906,-3.3945,-3.4824,-3.4668,-3.4941,-3.6113,-3.6621,-3.7226,-3.8066,-3.8398,-3.8574,-3.8574,-3.8574,-3.8574,-3.8574,-3.8574,-3.8574,-3.8574,-3.8574,-3.8574,-3.8574,-3.8574,-3.8945,-3.9629,-4.0254,-4.0898,-4.1601,-4.2168,-4.25,-4.2656,-4.2949,-4.3242,-4.3594,-4.4629,-4.5182,-4.5657,-4.7624,-4.7084,-4.5704,0.0,0.0,0.0,0.0,0.0,0.0,0.0,0.0,0.0,0.0,0.0,0.0,0.0,0.0,0.0,0.0,0.0,0.0,-2.1761,-2.1237,-2.0985,-2.1201,-2.296,-2.4705,-2.6484,-3.0028,-3.2084,-3.2538,-3.3559,-3.3344,-3.1934,-2.906,-2.7239,-2.6289,-2.457,0.0,0.0,0.0,0.0,-2.1894,-2.1894,-2.2451,-2.3183,0.0,0.0,0.0,0.0,0.0,0.0,0.0,-2.1582,-2.158,-2.373,-2.4121,-2.3965,-2.4851,-2.6582,-2.8184,-2.7754,-2.8281,-2.9453,-3.1601,-3.0937,-3.0527,-3.3926,-3.4043,-3.3926,-3.5664,-3.5684,-3.5527,-3.5937,-3.5684,-3.5234,-3.4766,-3.4707,-3.4707,-3.4687,-3.4336,-3.4394,-3.5293,-3.5391,-3.5742,-3.6601,-3.7051,-3.7656,-3.8516,-3.8647,-3.8647,-3.8574,-3.8647,-3.8647,-3.8574,-3.8574,-3.8574,-3.8574,-3.8574,-3.8574,-3.8574,-3.8574,-3.9258,-4.0527,-4.0527,-4.123,-4.2441,-4.2441,-4.2695,-4.3086,-4.3086,-4.3613,-4.4433,-4.4863,-4.6081,-4.7776,-4.8232,-4.8108,-4.79,0.0,0.0,0.0,0.0,0.0,0.0,0.0,0.0,0.0,0.0,0.0,0.0,0.0,0.0,0.0,0.0,0.0,0.0,-2.1866,-2.125,-2.109,-2.1444,-2.363,-2.5206,-2.6107,-2.9669,-3.2971,-3.6022,-3.4505,-3.2986,-3.1549,-2.9057,-2.6899,-2.5,-2.5117,0.0,0.0,0.0,0.0,-2.3164,-2.2578,-2.2808,-2.3433,0.0,0.0,0.0,0.0,0.0,0.0,0.0,0.0,0.0,-2.2793,-2.3809,-2.4668,-2.4629,-2.5508,-2.6406,-2.5957,-2.8027,-3.0312,-3.0332,-3.2246,-3.4219,-3.4609,-3.4277,-3.4277,-3.5723,-3.5918,-3.5781,-3.5605,-3.5723,-3.5488,-3.4434,-3.4512,-3.459,-3.4297,-3.416,-3.4394,-3.5293,-3.5664,-3.6172,-3.7031,-3.75,-3.7969,-3.8535,-3.955,-3.9694,-3.8647,-3.955,-3.9694,-3.8647,-3.8574,-3.8574,-3.8574,-3.8574,-3.8574,-3.8574,-3.8887,-3.9551,-4.0527,-4.084,-4.168,-4.2891,-4.3203,-4.3398,-4.3516,-4.3516,-4.3867,-4.4601,-4.6236,-4.7419,-4.8484,-5.1432,-5.1466,-5.0227,0.0,0.0,0.0,0.0,0.0,0.0,0.0,0.0,-2.5816,-2.606,-2.591,-2.5676,0.0,0.0,0.0,-2.4819,-2.3489,-2.2605,-2.2523,-2.2273,-2.216,-2.2316,-2.4316,-2.6129,-2.7694,-3.0363,-3.2811,-3.5108,-3.3572,-3.2216,-3.0906,-2.9353,-2.7778,-2.6304,0.0,-2.6289,0.0,0.0,0.0,-2.3984,-2.3477,-2.347,-2.3619,0.0,0.0,0.0,0.0,0.0,0.0,0.0,0.0,0.0,-2.207,-2.2969,-2.3984,-2.4922,-2.6289,-2.7598,-2.8027,-3.0371,-3.2637,-3.2441,-3.3965,-3.5449,-3.5273,-3.5019,-3.5078,-3.5859,-3.6016,-3.5937,-3.5684,-3.5859,-3.5703,-3.4746,-3.4805,-3.4883,-3.4629,-3.525,-3.5805,-3.5888,-3.6955,-3.7649,-3.7571,-3.793,-3.857,-3.9385,-4.032,-4.0657,-4.0392,-4.1226,-4.1297,-4.0392,-3.9766,-3.9478,-3.9478,-3.8918,-3.8574,-3.8574,-3.918,-3.9941,-4.0801,-4.123,-4.2109,-4.334,-4.3594,-4.4103,-4.4658,-4.4021,-4.4082,-4.4837,-4.6882,-4.8526,-5.0016,-5.3146,-5.3465,-5.2518,0.0,0.0,0.0,0.0,0.0,0.0,0.0,-2.6327,-2.6179,-2.5945,-2.5746,-2.5535,0.0,0.0,0.0,-2.5276,-2.441,-2.379,-2.3595,-2.3758,-2.3803,-2.3607,-2.5264,-2.7514,-3.0348,-3.1579,-3.181,-3.112,-3.1421,-3.109,-3.0123,-2.9692,-2.9301,-2.8962,0.0,-2.8066,0.0,-2.5791,-2.4972,-2.4355,-2.4316,-2.4102,-2.373,-2.3218,0.0,0.0,0.0,0.0,0.0,0.0,0.0,0.0,-2.1642,-2.1914,-2.25,-2.5273,-2.793,-3.0312,-3.1953,-3.3828,-3.5527,-3.6348,-3.5703,-3.5078,-3.584,-3.6016,-3.6016,-3.6016,-3.6016,-3.6016,-3.6016,-3.6016,-3.5879,-3.5469,-3.5391,-3.5457,-3.5591,-3.711,-3.794,-3.7153,-3.8926,-3.9666,-3.8268,-3.8393,-3.9208,-4.0657,-4.0942,-4.1559,-4.2962,-4.3171,-4.3171,-4.3032,-4.17,-4.1013,-4.1013,-3.9694,-3.903,-3.9129,-3.983,-4.0715,-4.1756,-4.1837,-4.26,-4.3939,-4.3939,-4.4822,-4.6184,-4.4472,-4.4258,-4.5189,-4.7192,-4.9549,-5.1932,-5.3834,-5.4592,-5.4685,0.0,0.0,0.0,0.0,0.0,0.0,-2.6499,-2.6465,-2.6361,-2.6179,-2.5945,-2.5746,-2.5571,-2.5274,0.0,-2.53,-2.4723,-2.4342,-2.43,-2.4059,-2.4284,-2.5075,-2.7822,-2.991,-3.1141,-3.0627,-2.994,-2.9029,-3.0109,-3.0191,-2.9389,-2.886,0.0,-2.8157,0.0,-2.7082,-2.5391,-2.3848,-2.3477,-2.3906,-2.3574,-2.3619,-2.3711,-2.2949,-2.2745,0.0,0.0,0.0,0.0,0.0,0.0,0.0,-2.1642,-2.2109,-2.2578,-2.3555,-2.5918,-2.8413,-2.9062,-3.1992,-3.498,-3.5527,-3.5957,-3.6211,-3.6055,-3.6016,-3.6016,-3.6016,-3.6016,-3.6016,-3.6016,-3.6016,-3.5879,-3.5469,-3.5391,-3.5771,-3.6876,-3.7687,-3.8674,-3.9939,-4.0129,-4.0067,-3.9716,-3.9022,-3.9208,-4.0657,-4.1841,-4.2683,-4.2962,-4.4138,-4.4207,-4.3032,-4.2683,-4.2543,-4.2543,-4.2193,-4.2486,-4.3306,-4.253,-4.3538,-4.6057,-4.3476,-4.3518,-4.5698,-4.5698,-4.5941,-4.6204,-4.4829,-4.4551,-4.5379,-4.8921,-5.0909,-5.2099,-5.5264,-5.6438,-5.6494,0.0,0.0,0.0,0.0,0.0,0.0,0.0,0.0,-2.6095,-2.6198,-2.6109,-2.6044,-2.6006,-2.5646,0.0,0.0,-2.5204,-2.4891,-2.4891,-2.4787,-2.5385,-2.6852,-2.909,-3.0195,-2.9915,-2.9227,-2.8335,-2.7371,-2.7624,-2.8151,-2.8846,0.0,0.0,-2.8866,0.0,-2.6926,-2.5067,-2.4336,-2.3945,-2.3809,-2.4049,-2.401,-2.3672,-2.2617,-2.1966,-2.1367,-1.9836,0.0,0.0,0.0,0.0,0.0,0.0,0.0,-2.1875,-2.3276,-2.5312,-2.75,-2.959,-3.2539,-3.5234,-3.6094,-3.6484,-3.6562,-3.6113,-3.6016,-3.6016,-3.6016,-3.6016,-3.6016,-3.6016,-3.6016,-3.5937,-3.5723,-3.5703,-3.6154,-3.7579,-3.8982,-4.0246,-4.1152,-4.2092,-4.2336,-4.162,-4.0391,-4.0606,-4.2753,-4.2962,-4.3656,-4.5051,-4.5887,-4.5955,-4.5187,-4.4504,-4.407,-4.407,-4.3379,-4.3582,-4.4595,-4.4313,-4.5588,-4.8034,-4.6311,-4.6664,-4.8618,-4.7826,-4.7528,-4.739,-4.5882,-4.5167,-4.5379,-4.9209,-5.1131,-5.2099,-5.5691,-5.7021,-5.7021,0.0,0.0,0.0,0.0,0.0,0.0,0.0,0.0,0.0,-2.6447,-2.6487,-2.6494,-2.6554,-2.6103,-2.5886,0.0,0.0,0.0,-2.5394,-2.5741,-2.659,-2.8085,-2.9425,-2.9549,-2.8344,-2.7718,-2.7039,-2.6241,-2.5335,-2.6138,-2.845,0.0,0.0,-2.9569,0.0,-2.6777,-2.4941,-2.4883,-2.4258,-2.3398,-2.3945,-2.375,-2.3008,-2.1953,-2.0781,-1.9553,-1.8773,-1.8848,-1.9336,-1.9687,0.0,0.0,0.0,0.0,-2.0898,-2.3203,-2.4902,-2.6797,-3.0234,-3.3184,-3.5586,-3.6875,-3.6992,-3.6641,-3.6133,-3.6016,-3.6016,-3.6016,-3.6016,-3.6016,-3.6016,-3.6016,-3.6016,-3.6016,-3.6219,-3.6897,-3.8412,-4.0666,-4.226,-4.246,-4.4165,-4.4778,-4.3517,-4.2052,-4.2333,-4.5074,-4.4138,-4.4641,-4.7364,-4.7497,-4.7497,-4.7497,-4.6315,-4.5685,-4.5685,-4.4503,-4.4531,-4.5671,-4.6757,-4.7933,-4.9249,-4.9562,-5.0265,-5.1216,-4.9797,-4.9091,-4.8697,-4.7052,-4.5837,-4.5359,-4.9039,-5.0977,-5.2099,-5.5691,-5.7021,-5.7021,0.0,0.0,0.0,0.0,0.0,0.0,0.0,0.0,0.0,0.0,-2.758,-2.7532,-2.7361,-2.6882,-2.6551,-2.6625,-2.6135,-2.584,-2.584,0.0,0.0,-2.7619,-2.8716,-2.9051,-2.8396,-2.678,-2.6073,-2.6283,-2.5208,-2.5937,-2.8291,-2.7637,-2.7648,-2.8105,0.0,0.0,0.0,-2.2187,-2.1387,-2.1483,-2.0859,-2.0527,-2.041,-2.0234,-1.9609,-1.8715,-1.8227,-1.8613,-1.9297,-1.9355,-1.9902,0.0,0.0,0.0,-2.0215,-2.1288,-2.3042,-2.5039,-2.6719,-3.0898,-3.5117,-3.6426,-3.6992,-3.7012,-3.6211,-3.6016,-3.6016,-3.6016,-3.6016,-3.6016,-3.6016,-3.6016,-3.6016,-3.6016,-3.6991,-3.8454,-4.0363,-4.228,-4.4121,-4.5794,-4.5605,-4.521,-4.5005,-4.3587,-4.3448,-4.5142,-4.5142,-4.5752,-4.7431,-4.7497,-4.7497,-4.7497,-4.7298,-4.7232,-4.7232,-4.746,-4.8368,-4.9914,-5.184,-5.2131,-5.0985,-5.2465,-5.2465,-5.1293,-5.1062,-5.0109,-4.8741,-4.7388,-4.61,-4.5379,-4.9379,-5.1284,-5.2099,-5.5691,-5.7021,-5.7021,0.0,0.0,0.0,0.0,0.0,0.0,0.0,0.0,0.0,0.0,0.0,-2.794,-2.7964,-2.7484,-2.7176,-2.7246,-2.6518,-2.5765,-2.5158,-2.5838,-2.6287,-2.6287,-2.7152,-2.7322,-2.6676,-2.5271,-2.4649,-2.4785,-2.3268,-2.4071,-2.7073,-2.6982,-2.776,0.0,0.0,0.0,0.0,0.0,0.0,-2.0117,-1.9727,0.0,0.0,0.0,0.0,0.0,-1.834,-1.791,-1.8301,-1.8769,-1.9336,-1.9979,-2.0449,0.0,0.0,0.0,-2.1328,-2.3223,-2.7695,-3.1387,-3.4473,-3.6523,-3.758,-3.7912,-3.7334,-3.7796,-3.8109,-3.7327,-3.7193,-3.6944,-3.6152,-3.6016,-3.6016,-3.6016,-3.7193,-3.8807,-4.0715,-4.2655,-4.4495,-4.6436,-4.6632,-4.6516,-4.6516,-4.5187,-4.4914,-4.6382,-4.5752,-4.5978,-4.7431,-4.7497,-4.7497,-4.7497,-4.7497,-4.7642,-4.7954,-4.8459,-4.9686,-5.161,-5.3101,-5.3422,-5.2717,-5.3723,-5.3648,-5.2717,-5.2717,-5.1777,-5.0154,-4.9141,-4.8425,-4.817,-5.0457,-5.2093,-5.3505,-5.6013,-5.7021,-5.7021,0.0,0.0,0.0,0.0,0.0,0.0,0.0,0.0,0.0,0.0,0.0,-2.8525,-2.8606,0.0,0.0,0.0,-2.6602,-2.5551,-2.4454,-2.4767,-2.495,-2.4915,-2.5441,-2.5417,-2.4723,-2.3593,-2.3099,-2.3303,-2.2147,-2.315,-2.617,-2.7413,-2.8967,-3.0652,-2.7692,-2.5497,0.0,0.0,0.0,0.0,0.0,0.0,0.0,0.0,0.0,0.0,0.0,-1.875,-1.8848,-1.8773,-1.9082,-1.9551,-2.0233,-1.959,0.0,0.0,0.0,-2.1623,-2.7734,-3.0566,-3.2519,-3.5566,-3.7029,-3.763,-3.7616,-3.8639,-3.9343,-3.8308,-3.8109,-3.7775,-3.6742,-3.6219,-3.6016,-3.6016,-3.7461,-3.9226,-4.0934,-4.2986,-4.4935,-4.6693,-4.7257,-4.7497,-4.7497,-4.6516,-4.6315,-4.7431,-4.6449,-4.6315,-4.7431,-4.7497,-4.7497,-4.7497,-4.7642,-4.7954,-4.8483,-4.9421,-5.0768,-5.2499,-5.3389,-5.3822,-5.3822,-5.4173,-5.4272,-5.3972,-5.3972,-5.3096,-5.157,-5.0883,-5.0503,-5.0527,-5.1686,-5.3076,-5.4487,-5.6414,-5.718,-5.7204,0.0,0.0,0.0,0.0,0.0,0.0,0.0,0.0,0.0,0.0,0.0,-2.9626,-2.9369,-2.8859,-2.8139,-2.711,-2.635,-2.5389,-2.4122,-2.4041,-2.3999,-2.389,-2.3914,0.0,-2.3144,-2.1787,-2.1501,-2.2474,-2.312,-2.4421,-2.6375,-2.9485,-3.1421,-3.2185,-3.0233,-2.7302,-2.3708,0.0,0.0,0.0,0.0,0.0,0.0,0.0,0.0,0.0,0.0,0.0,-2.2438,-2.0059,-1.9531,-1.9883,-1.9941,-1.9299,-1.8617,0.0,0.0,0.0,-2.4323,-2.6328,-2.8359,-3.2578,-3.4283,-3.5152,-3.5888,-3.7193,-3.8175,-3.8109,-3.8109,-3.8109,-3.7975,-3.6876,-3.6016,-3.6016,-3.8308,-4.0454,-4.1593,-4.409,-4.623,-4.7329,-4.7473,-4.7497,-4.7497,-4.7431,-4.7431,-4.7497,-4.7431,-4.7431,-4.7497,-4.7497,-4.7497,-4.7497,-4.7978,-4.8507,-4.9036,-5.1081,-5.2427,-5.3029,-5.3558,-5.3822,-5.3822,-5.4173,-5.4397,-5.4322,-5.4322,-5.3624,-5.2412,-5.2155,-5.1538,-5.0969,-5.2901,-5.3888,-5.4592,-5.6734,-5.7576,-5.7625,0.0,0.0,0.0,0.0,0.0,0.0,0.0,0.0,0.0,0.0,0.0,0.0,0.0,-2.8895,-2.8387,-2.7527,-2.6554,-2.5403,-2.3957,-2.386,-2.3715,-2.3312,-2.3288,-2.3216,-2.2991,-2.1618,-2.1107,-2.1486,-2.1048,-2.2237,-2.4925,-2.7349,-2.8838,-2.9527,-2.894,-2.7944,-2.653,-2.2961,0.0,0.0,0.0,0.0,0.0,0.0,0.0,0.0,0.0,0.0,0.0,-2.2891,-2.1582,0.0,0.0,0.0,0.0,0.0,-1.8968,-2.0646,-2.3295,-2.5444,-2.7652,-3.0623,-3.378,-3.6473,-3.7635,-4.0054,-4.1915,-4.1457,-4.1061,-4.0257,-3.8441,-3.6944,-3.6016,-3.6016,-3.8374,-4.0607,-4.1637,-4.4179,-4.6319,-4.7377,-4.7497,-4.7497,-4.7497,-4.7497,-4.7497,-4.7497,-4.7497,-4.7497,-4.7497,-4.7834,-4.8002,-4.8002,-4.8507,-4.9397,-5.0624,-5.2067,-5.3053,-5.3558,-5.3726,-5.3822,-5.3822,-5.4496,-5.4645,-5.4397,-5.4645,-5.4397,-5.3696,-5.3148,-5.3278,-5.3849,-5.4657,-5.5584,-5.6574,-5.7631,-5.805,-5.8123,0.0,0.0,0.0,0.0,0.0,0.0,0.0,0.0,0.0,-2.9863,0.0,0.0,0.0,0.0,-2.8761,-2.7296,-2.6226,-2.4985,-2.3384,-2.3601,-2.3481,-2.2751,-2.2895,-2.2927,-2.2758,-2.1335,-2.0753,-2.1019,-2.0475,-2.1437,-2.3854,-2.6211,-2.7767,-2.8632,-2.8179,-2.8065,0.0,0.0,0.0,-2.239,0.0,0.0,-2.8301,0.0,0.0,0.0,0.0,0.0,0.0,0.0,0.0,0.0,0.0,0.0,0.0,0.0,0.0,0.0,-2.2247,-2.4346,-2.6589,-2.9053,-3.226,-3.5258,-3.7316,-4.0428,-4.2747,-4.2434,-4.2453,-4.1836,-3.9254,-3.7662,-3.6539,-3.6084,-3.8374,-4.0607,-4.1637,-4.4179,-4.6319,-4.7377,-4.7497,-4.7497,-4.7497,-4.7497,-4.7497,-4.7497,-4.7497,-4.7569,-4.7762,-4.8233,-4.8758,-4.9266,-4.999,-5.0885,-5.2018,-5.2884,-5.3485,-5.3822,-5.3822,-5.3822,-5.3822,-5.4669,-5.4892,-5.4645,-5.4892,-5.499,-5.4837,-5.4307,-5.4782,-5.5926,-5.624,-5.6837,-5.7631,-5.8286,-5.8644,-5.8867,0.0,0.0,0.0,0.0,0.0,0.0,0.0,0.0,-2.9927,-3.0189,0.0,0.0,0.0,0.0,0.0,-2.6467,-2.5368,-2.412,-2.2397,-2.3264,-2.3336,-2.2246,0.0,0.0,0.0,-2.086,-2.042,-2.1019,-2.1632,-2.2386,-2.3328,0.0,-2.8655,-2.9827,-2.8349,-2.7859,-2.812,0.0,-2.7138,-2.563,0.0,-2.9729,-2.8491,0.0,0.0,0.0,-3.2656,-3.1837,0.0,-3.0076,0.0,0.0,0.0,0.0,0.0,0.0,0.0,0.0,0.0,0.0,0.0,-2.7844,-2.9429,-3.118,-3.458,-3.7655,-3.9984,-4.0693,-4.2006,-4.2476,-4.0626,-3.9167,-3.7796,-3.6355,-3.8374,-4.052,-4.1615,-4.4113,-4.6254,-4.7353,-4.7497,-4.7497,-4.7497,-4.7497,-4.7497,-4.7497,-4.7497,-4.7714,-4.8243,-4.8743,-4.9699,-5.1211,-5.2306,-5.2987,-5.3053,-5.3558,-5.3822,-5.3822,-5.3822,-5.3822,-5.3822,-5.4669,-5.4967,-5.4967,-5.5065,-5.5286,-5.575,-5.5501,-5.5955,-5.6824,-5.7437,-5.7655,-5.7734,-5.8575,-5.921,-5.9756,0.0,0.0,0.0,0.0,0.0,-3.0433,-3.0327,-3.0408,-3.0482,0.0,0.0,0.0,-3.0427,-3.0277,-2.9711,-2.8522,-2.7478,-2.6033,-2.4001,-2.4145,-2.3688,-2.2246,-2.3095,-2.3336,-2.2775,-2.149,-2.0901,-2.106,-2.0299,0.0,0.0,0.0,0.0,-2.7774,-2.81,-2.8314,-2.8233,-2.6219,0.0,-2.5773,-2.8113,-2.9829,0.0,0.0,0.0,0.0,0.0,-3.6363,-3.5471,0.0,-3.1874,-2.9168,0.0,0.0,0.0,0.0,0.0,0.0,-2.1868,0.0,0.0,0.0,0.0,0.0,-3.3285,-3.5679,-3.8304,-4.1596,-4.2003,-4.1821,-4.2267,-4.1981,-4.1131,-3.9341,-3.8838,-3.9292,-4.0956,-4.3074,-4.5024,-4.6717,-4.7257,-4.7497,-4.7497,-4.7497,-4.7497,0.0,-4.7696,-4.7967,-4.8112,-4.9566,-5.1072,-5.2426,-5.306,-5.3326,-5.3053,-5.3558,-5.3822,-5.3822,-5.3822,-5.3972,-5.4272,-5.4794,-5.4967,-5.5065,-5.5757,-5.6001,-5.5908,-5.5569,-5.58,-5.6511,-5.7697,-5.8129,-5.8207,-5.9043,-5.9679,-6.023,0.0,0.0,-3.0458,-3.0598,-3.1006,-3.1332,-3.1272,-3.129,-3.1406,0.0,0.0,0.0,-3.1583,0.0,-3.0927,-2.9725,-2.8859,-2.7368,-2.5011,-2.5059,-2.4482,-2.2919,-2.364,-2.3833,-2.336,-2.232,-2.156,-2.1092,-2.0202,-2.0389,-2.1583,0.0,0.0,0.0,-2.6574,-2.6971,-2.7089,0.0,0.0,0.0,-3.0084,0.0,0.0,-3.4961,-3.6348,0.0,0.0,0.0,-3.715,-3.6491,-3.3948,0.0,0.0,0.0,0.0,0.0,0.0,0.0,0.0,0.0,0.0,0.0,0.0,0.0,-3.3772,-3.5858,-3.8293,-4.2631,-4.346,-4.3436,-4.3378,-4.3253,-4.2548,-4.0803,-3.9668,-3.9646,-4.1571,-4.3257,-4.4842,-4.6189,-4.6848,-4.7161,-4.7161,-4.7377,-4.7497,-4.7497,-4.7828,-4.8353,-4.9057,-5.1122,-5.2576,-5.3322,-5.3937,-5.4033,-5.3687,-5.3753,-5.3822,-5.3822,-5.3822,-5.4047,-5.4397,-5.4794,-5.5115,-5.5288,-5.6054,-5.6374,-5.6204,-5.6013,-5.6215,-5.6667,-5.7849,-5.831,-5.8389,-5.9198,-5.9985,-6.0738,0.0,0.0,-3.0971,-3.132,-3.1967,-3.2426,-3.2321,-3.2406,-3.2596,0.0,-3.2592,-3.2668,0.0,0.0,0.0,0.0,-2.9821,-2.8306,-2.5733,-2.5853,-2.5312,-2.3733,-2.4226,-2.4263,-2.3656,-2.2969,-2.2148,-2.1124,-2.0809,-2.0874,-2.1307,-2.2223,0.0,0.0,-2.4496,-2.4802,-2.5257,-2.4728,0.0,-2.7981,-3.3224,-3.3351,0.0,0.0,-3.5909,-3.4497,-3.6649,-3.7382,-3.7594,-3.8668,-3.6037,0.0,0.0,0.0,0.0,0.0,-2.514,0.0,0.0,0.0,0.0,0.0,0.0,0.0,-3.4415,-3.6386,-3.837,-4.2441,-4.43,-4.4785,-4.3409,-4.287,-4.2212,-4.0862,-4.0557,-4.1055,-4.2715,-4.4031,-4.5119,-4.5726,-4.6367,-4.6704,-4.6704,-4.7185,-4.7497,-4.7497,-4.7877,-4.8984,-5.0737,-5.2844,-5.4039,-5.4091,-5.472,-5.4868,-5.4397,-5.4047,-5.3822,-5.3822,-5.3822,-5.4047,-5.4496,-5.4818,-5.5263,-5.573,-5.6278,-5.6498,-5.6611,-5.6814,-5.6958,-5.71,-5.7971,-5.831,-5.8389,-5.9198,-6.0161,-6.109,-3.0499,-3.118,-3.1879,-3.2394,-3.3131,-3.3811,-3.4198,-3.3909,-3.3859,-3.4342,-3.4318,-3.4679,-3.5689,0.0,0.0,0.0,0.0,-2.9172,-2.7368,-2.6117,-2.466,-2.2912,-2.4081,-2.4045,-2.2555,-2.2284,-2.1905,-2.1403,-2.067,-2.1014,-2.2407,-2.2751,0.0,0.0,-2.4496,-2.456,-2.4791,-2.679,0.0,-3.0328,-3.1545,-3.328,-3.551,-3.8573,-3.9597,-3.9597,-4.1198,-4.1753,-4.1776,-4.1881,-3.9781,-3.6551,0.0,0.0,0.0,-2.8818,0.0,0.0,0.0,0.0,0.0,0.0,0.0,0.0,0.0,-3.089,-3.2901,-3.503,-3.5705,-3.66,-3.8728,-3.9411,-3.9394,-3.8697,-4.0657,-4.2324,-4.242,-4.3032,-4.3933,-4.5158,-4.6126,-4.6704,-4.6704,-4.7185,-4.7497,-4.7497,-4.8481,-4.9949,-5.174,-5.3017,-5.4002,-5.4613,-5.5211,-5.509,-5.4397,-5.4322,-5.4098,-5.3822,-5.3822,-5.4197,-5.4892,-5.4967,-5.5411,-5.6122,-5.675,-5.6844,-5.6661,-5.7228,-5.7242,-5.71,-5.7971,-5.831,-5.8389,-5.9198,-5.991,-6.0563,-3.0816,-3.1772,-3.2841,-3.3303,-3.4173,-3.4796,-3.4698,-3.4457,-3.4481,-3.5047,-3.5863,-3.6314,-3.605,0.0,0.0,0.0,0.0,0.0,-2.8258,-2.6825,-2.5457,-2.4002,-2.4413,-2.4492,-2.4168,-2.3555,-2.285,-2.1993,-2.123,-2.104,-2.1419,-2.1967,-2.3769,0.0,-2.4843,-2.5468,-2.7657,-2.7128,-2.8171,-3.0405,-3.3436,0.0,-3.7295,-3.9702,-4.0292,-3.9838,-4.0535,-4.1297,-4.1909,-4.206,-4.039,0.0,0.0,-3.5911,-3.519,0.0,-3.2889,-3.4318,0.0,0.0,0.0,-3.1023,0.0,0.0,0.0,0.0,-3.2295,-3.5713,-3.5593,-3.5665,-3.831,-3.8359,-3.8094,-3.8359,-4.0619,-4.2101,-4.1105,-4.2997,-4.4735,-4.5398,-4.6006,-4.6415,-4.668,-4.6944,-4.7461,-4.8391,-4.9303,-5.0461,-5.1983,-5.3381,-5.4315,-5.4677,-5.5283,-5.5337,-5.4719,-5.4496,-5.4197,-5.3822,-5.3822,-5.4197,-5.4967,-5.5311,-5.5881,-5.6622,-5.7348,-5.7364,-5.7029,-5.7472,-5.7339,-5.71,-5.7971,-5.831,-5.8389,-5.9198,-6.0035,-6.0788,-3.1139,-3.225,-3.3428,-3.3813,-3.4847,-3.5437,-3.4899,-3.4814,-3.5022,-3.5677,-3.7133,-3.7761,0.0,0.0,0.0,0.0,0.0,0.0,0.0,-2.8171,-2.7067,-2.6184,-2.498,-2.498,-2.6401,-2.4932,-2.3514,-2.213,-2.1755,-2.1195,-2.0477,-2.1352,-2.3902,0.0,0.0,0.0,-3.011,-2.7705,-2.8474,-3.1704,0.0,-3.797,-3.7548,-4.0362,-4.0352,-3.8915,-3.9485,-4.0792,-4.2241,-4.23,-4.1057,-3.9461,-3.9315,-3.8706,0.0,0.0,0.0,0.0,0.0,0.0,0.0,0.0,0.0,-3.1673,0.0,0.0,0.0,-3.6507,-3.6026,-3.5449,-3.7276,-3.6555,-3.6002,-3.6988,0.0,0.0,0.0,-4.2086,0.0,-4.4683,-4.5429,-4.5934,-4.5958,-4.603,-4.7029,-4.9239,-4.9527,-5.0288,-5.1983,-5.3658,-5.4561,-5.4561,-5.5279,-5.5411,-5.4967,-5.457,-5.4197,-5.3822,-5.3822,-5.4246,-5.504,-5.5631,-5.6277,-5.695,-5.7669,-5.7706,-5.7266,-5.7412,-5.7259,-5.71,-5.7971,-5.831,-5.8389,-5.9323,-6.0161,-6.0889,-3.1548,-3.2491,-3.3308,-3.3356,-3.4607,-3.5591,-3.5489,-3.5489,-3.5848,-3.6853,-3.7879,-3.9055,-4.041,0.0,0.0,0.0,0.0,0.0,-3.2971,0.0,0.0,-2.9226,-2.5684,-2.4891,-2.7448,-2.4537,-2.2308,-2.0902,-2.1498,-2.1739,-2.1691,0.0,0.0,0.0,-2.756,-2.845,-2.8234,-3.0663,-3.4294,0.0,-3.918,-3.7976,0.0,-4.1874,-4.2078,-3.9984,-4.2818,-4.538,-4.7258,0.0,-4.4872,-4.3745,0.0,-4.1672,-4.3083,-3.7647,0.0,0.0,0.0,0.0,0.0,0.0,-3.3789,0.0,0.0,0.0,-3.0615,-2.934,0.0,-2.9629,0.0,0.0,0.0,0.0,0.0,0.0,-3.5351,-3.7829,-3.9801,-4.0258,-4.3649,-4.5213,-4.3445,-4.3625,-4.5406,-4.9116,-4.8149,-4.8769,-5.1908,-5.3658,-5.4561,-5.4561,-5.5279,-5.5411,-5.4967,-5.457,-5.4197,-5.3822,-5.3822,-5.4289,-5.5202,-5.5652,-5.6173,-5.6666,-5.7281,-5.7217,-5.6877,-5.7042,-5.7021,-5.71,-5.7971,-5.831,-5.8438,-5.9747,-6.001,-5.9834,-3.1091,-3.2082,-3.2923,-3.3236,-3.4318,-3.501,-3.4621,-3.5905,-3.7028,-3.7504,-3.9033,-4.0154,-4.025,0.0,0.0,0.0,0.0,-3.7685,0.0,0.0,0.0,-2.9527,-2.6652,-2.5862,-2.765,-2.477,-2.2568,-2.1279,-2.0964,0.0,0.0,0.0,0.0,0.0,-2.9605,-3.1865,-3.4583,-3.4078,-3.5016,0.0,0.0,-3.6435,0.0,-4.2753,-4.3778,-4.1779,-4.3136,-4.5089,-4.6927,0.0,-4.5178,0.0,0.0,0.0,0.0,0.0,0.0,0.0,0.0,0.0,0.0,0.0,0.0,0.0,-3.0398,0.0,-2.9051,0.0,0.0,0.0,0.0,0.0,0.0,0.0,-3.2491,0.0,0.0,0.0,-3.831,0.0,0.0,0.0,-4.2289,-4.3433,-4.5667,-4.9141,-4.8056,-4.8774,-5.2334,-5.3532,-5.421,-5.4561,-5.5171,-5.5309,-5.5041,-5.4794,-5.4421,-5.3822,-5.3822,-5.4313,-5.5224,-5.5768,-5.6538,-5.7487,-5.7462,-5.755,-5.7653,-5.7163,-5.7021,-5.71,-5.7971,-5.8114,-5.7946,-5.9323,-5.9684,-5.9608,-3.047,0.0,-3.2394,-3.2779,-3.3813,-3.4531,-3.4299,-3.5795,-3.7225,-3.7999,-3.9608,-4.0636,-4.0466,-4.1004,0.0,0.0,-4.1389,-4.0186,0.0,0.0,-3.3386,-3.2803,-2.8705,-2.7418,-2.9487,-2.5835,-2.3082,-2.1422,-2.0642,-2.0391,0.0,0.0,0.0,0.0,0.0,-3.3935,-3.8214,-3.6916,-3.6843,-3.7608,-3.7757,-3.807,-3.8933,-4.289,-4.4504,-4.4542,-4.3705,-4.4838,-4.6677,-4.6167,-4.5214,0.0,-4.6824,0.0,0.0,0.0,0.0,0.0,-3.8407,0.0,0.0,0.0,0.0,0.0,0.0,0.0,0.0,0.0,0.0,0.0,0.0,0.0,0.0,0.0,0.0,-3.237,0.0,0.0,0.0,0.0,0.0,0.0,0.0,-4.1895,-4.4061,-4.8312,0.0,-4.8206,-5.2635,-5.3406,-5.3959,-5.4536,-5.5017,-5.5158,-5.5041,-5.4892,-5.4496,-5.3822,-5.3822,-5.431,-5.529,-5.5856,-5.6724,-5.7798,-5.78,-5.7819,-5.7697,-5.7345,-5.7004,-5.6908,-5.8069,-5.8163,-5.7823,-5.9223,-5.9633,-5.9583,-3.0013,-3.0995,-3.1741,-3.1765,-3.302,-3.4366,-3.5399,-3.5058,-3.5706,-3.8407,-3.9145,-4.0258,-4.2484,-4.4491,0.0,0.0,0.0,-4.5669,-4.1966,0.0,-3.8123,-4.1461,-3.2394,-2.9422,-3.4066,-2.8083,-2.3496,-2.0716,-2.0694,-2.1116,0.0,0.0,0.0,0.0,-3.0744,-3.3474,-3.5208,-3.8719,-4.199,-4.4645,-4.3673,-4.5092,-4.726,0.0,-4.3643,-4.8532,-4.5501,0.0,0.0,-4.6446,-4.587,0.0,0.0,0.0,0.0,0.0,0.0,0.0,0.0,0.0,0.0,-3.4775,0.0,0.0,0.0,0.0,-3.1308,0.0,0.0,0.0,0.0,0.0,0.0,0.0,0.0,0.0,0.0,0.0,0.0,0.0,0.0,0.0,0.0,0.0,0.0,0.0,0.0,0.0,-5.2535,-5.3406,-5.3959,-5.4536,-5.4755,-5.4866,-5.5041,-5.4645,-5.4197,-5.3822,-5.3822,-5.4375,-5.5439,-5.5872,-5.6454,-5.7076,-5.7892,-5.7521,-5.6378,-5.72,-5.7024,-5.645,-5.8313,-5.8728,-5.8413,-5.9797,-5.996,-5.9583,-3.0567,-3.148,-3.2106,-3.1765,-3.2707,-3.4246,-3.6338,-3.7082,-3.8238,-4.0586,-4.1362,-4.2317,-4.4117,-4.4972,-4.5694,0.0,0.0,-4.5838,-4.3168,-4.0607,0.0,-4.0884,-3.4389,-3.1523,0.0,0.0,-2.5308,-2.2607,-2.2026,-2.2201,0.0,0.0,0.0,0.0,0.0,-3.5192,-3.8647,0.0,0.0,0.0,0.0,-4.4515,-4.6573,0.0,-4.6418,-4.8372,-4.6949,-4.7525,0.0,-4.7786,-4.68,-4.6078,-4.692,-4.5766,-4.4347,-4.5549,-4.5285,0.0,0.0,0.0,-4.3794,-3.831,0.0,0.0,0.0,0.0,0.0,0.0,0.0,0.0,0.0,0.0,0.0,0.0,0.0,0.0,0.0,0.0,0.0,0.0,0.0,0.0,0.0,0.0,0.0,0.0,0.0,0.0,0.0,-5.2904,-5.3607,-5.4536,-5.4666,-5.4929,-5.5386,-5.5238,-5.5016,-5.4595,-5.4347,-5.4754,-5.5795,-5.5718,-5.6299,-5.7394,-5.7345,-5.7179,-5.6984,-5.6969,-5.6773,-5.657,-5.7957,-5.8591,-5.8805,-5.9876,-5.996,-5.9533,-3.148,-3.2178,-3.2611,-3.2058,-3.3164,-3.4823,-3.6867,-3.8431,-3.9994,-4.1749,-4.276,-4.3794,-4.4933,-4.5645,-4.6175,0.0,-4.7064,-4.6367,-4.4227,-4.2471,0.0,-4.1798,-3.7276,-3.4837,0.0,0.0,0.0,0.0,0.0,-2.3841,0.0,0.0,0.0,0.0,0.0,-3.5216,-3.9633,-4.1268,-4.312,0.0,0.0,-4.5549,0.0,0.0,-4.793,-4.7695,0.0,-4.8076,-4.9036,-4.8676,-4.8002,-4.7569,-4.894,-4.7617,-4.5886,-4.7401,-4.6992,-4.5934,-4.5357,-4.6078,0.0,-4.1124,-3.9946,0.0,-3.3693,0.0,0.0,0.0,0.0,0.0,0.0,0.0,0.0,0.0,0.0,0.0,0.0,0.0,0.0,0.0,0.0,0.0,0.0,0.0,0.0,0.0,0.0,0.0,0.0,0.0,-5.3432,-5.4536,-5.4561,-5.4945,-5.5607,-5.5632,-5.5411,-5.4967,-5.4719,-5.5056,-5.5974,-5.5718,-5.6221,-5.7394,-5.7369,-5.716,-5.6924,-5.7084,-5.6789,-5.644,-5.7913,-5.8669,-5.9014,-5.9822,-5.9829,-5.9483,-3.2635,-3.2996,-3.3236,-3.2731,-3.427,-3.5954,-3.7108,-3.9056,-4.0812,-4.1942,-4.3457,-4.4573,-4.5173,-4.6607,-4.7305,-4.6824,-4.7714,-4.7425,-4.5317,-4.4227,0.0,0.0,-4.0956,-3.9054,-3.9335,0.0,0.0,0.0,0.0,0.0,0.0,0.0,0.0,0.0,-2.9897,0.0,-3.8238,-4.086,-4.4154,-4.7617,-4.8122,-4.8291,-4.8382,-4.896,-4.8214,-4.6861,-4.6957,-4.7934,-4.9109,-4.9084,-4.9421,-4.983,-4.983,-5.0191,-5.0527,-5.0022,-5.0239,-5.0119,-4.7593,-4.7281,-4.6776,-4.312,-4.2158,0.0,0.0,0.0,-3.7926,0.0,0.0,0.0,0.0,0.0,0.0,0.0,0.0,0.0,0.0,0.0,0.0,0.0,0.0,0.0,0.0,0.0,0.0,0.0,0.0,0.0,0.0,0.0,-5.3281,-5.4607,-5.4561,-5.4945,-5.5607,-5.5632,-5.5411,-5.5041,-5.5041,-5.5381,-5.6051,-5.6051,-5.6401,-5.71,-5.7947,-5.7413,-5.6152,-5.7512,-5.7168,-5.6049,-5.8187,-5.9044,-5.8986,-5.9533,-5.9594,-5.9508,-3.3188,-3.4126,-3.4992,-3.4847,-3.4944,-3.5785,-3.8046,-3.9537,-4.1196,-4.3457,-4.478,-4.603,-4.7329,-4.7497,-4.7617,-4.7858,-4.8122,0.0,0.0,0.0,0.0,-4.6655,-4.3144,-4.1221,-4.1317,-3.7121,0.0,-3.2042,0.0,0.0,-2.7587,0.0,0.0,0.0,0.0,-3.3438,-3.932,-4.1172,-4.4563,-4.8676,-4.882,-4.8614,-4.8258,0.0,-4.9528,-4.8712,-4.8567,-4.9049,-4.9614,-4.9205,-4.9157,-4.9277,-4.9277,-4.9373,-4.9541,-4.9782,-4.9974,-5.0022,-4.9758,-4.9782,-4.9181,-4.6223,-4.49,-4.3529,0.0,0.0,0.0,0.0,0.0,0.0,0.0,0.0,0.0,0.0,0.0,0.0,0.0,0.0,0.0,0.0,0.0,0.0,0.0,0.0,0.0,0.0,0.0,0.0,0.0,0.0,0.0,-5.4461,-5.4561,-5.5089,-5.6047,-5.6072,-5.5999,-5.5926,-5.5632,-5.598,-5.6867,-5.6562,-5.7022,-5.7971,-5.8101,-5.7688,-5.6943,-5.7199,-5.7075,-5.68,-5.7891,-5.8756,-5.9533,-5.9972,-5.9907,-5.9431,-3.4366,-3.5569,-3.6651,-3.6651,-3.718,-3.8118,-3.9633,-3.9935,-4.0822,-4.3269,-4.4664,-4.5775,-4.6741,-4.8092,-4.8916,-4.8964,-4.8988,0.0,-4.7233,0.0,0.0,-4.6487,-4.514,-4.4194,-4.3789,-4.0669,0.0,-3.5086,0.0,0.0,-2.8634,0.0,0.0,0.0,0.0,-3.2938,-3.7781,-4.1701,-4.5044,-4.781,-4.9169,-4.9402,0.0,-5.0567,-5.0754,-5.04,-5.0308,-5.0392,-5.0446,-5.0156,-4.9921,-4.9782,-4.9782,-4.9782,-4.9806,-4.9854,-5.0046,-5.0333,-5.0521,-5.0475,-5.0044,-4.8662,-4.7606,-4.5957,-4.2687,-4.2936,-4.3442,0.0,-4.2245,-4.2567,0.0,0.0,0.0,0.0,0.0,0.0,0.0,0.0,0.0,0.0,0.0,0.0,0.0,0.0,0.0,0.0,0.0,0.0,0.0,0.0,0.0,-5.4084,-5.3733,-5.426,-5.5842,-5.5365,-5.5491,-5.6219,-5.6224,-5.6576,-5.7196,-5.7215,-5.7654,-5.8261,-5.8186,-5.7794,-5.7222,-5.705,-5.7022,-5.7073,-5.7949,-5.884,-5.9707,-5.9904,-5.9759,-5.9431,-3.5833,-3.7156,-3.8238,-3.8022,-3.9874,-4.1461,-4.1677,-4.0952,-4.1019,-4.2869,-4.4538,-4.5469,-4.5329,-4.8347,-5.0215,-4.9806,-4.971,-4.8892,-4.704,-4.8267,-4.8026,-4.5645,-4.6872,-4.7185,-4.6247,-4.4443,-4.1531,0.0,0.0,0.0,0.0,0.0,0.0,0.0,0.0,0.0,0.0,-4.2543,-4.5742,-4.6752,-4.9446,-5.06,-5.0649,-5.1554,-5.189,-5.196,-5.196,-5.1656,-5.1282,-5.1211,-5.1025,-5.0767,-5.0696,-5.0696,-5.06,-5.0189,-5.0381,-5.0717,-5.051,-5.0226,-5.0038,-5.0101,-4.9644,-4.8092,-4.4252,-4.4542,-4.5191,-4.3863,-4.2832,-4.3529,0.0,0.0,0.0,0.0,0.0,0.0,0.0,0.0,0.0,0.0,0.0,0.0,0.0,0.0,0.0,0.0,0.0,0.0,0.0,0.0,0.0,-5.3708,-5.2829,-5.3231,-5.5139,-5.4336,-5.4587,-5.5892,-5.6595,-5.7,-5.7172,-5.7744,-5.8111,-5.8221,-5.8136,-5.7744,-5.7198,-5.7174,-5.7198,-5.7374,-5.8403,-5.9175,-5.9636,-5.9528,-5.9483,-5.9431,-3.6916,-3.8575,-3.9561,-3.8214,-4.0531,-4.2928,-4.4251,-4.4999,-4.5541,-4.5923,-4.7782,-4.869,-4.7829,-4.83,-4.8844,-4.9181,-4.882,0.0,0.0,0.0,0.0,-4.7786,-4.8002,-4.805,-4.7882,-4.4996,-4.1849,0.0,0.0,0.0,0.0,0.0,0.0,0.0,0.0,0.0,-4.0989,-4.4717,0.0,-4.9972,-5.1129,-5.1534,-5.1603,-5.2119,-5.2446,-5.2723,-5.2723,-5.2308,-5.1656,-5.1306,-5.1141,-5.1095,-5.0767,-5.0696,-5.0742,-5.0904,-5.0998,-5.1044,-5.0486,-5.0572,-5.0445,-4.9068,-4.8956,-4.8694,-4.644,-4.7112,-4.7954,-4.7352,-4.7478,-4.7449,-4.6631,0.0,0.0,0.0,0.0,0.0,0.0,0.0,0.0,0.0,0.0,0.0,0.0,0.0,0.0,0.0,0.0,0.0,0.0,0.0,0.0,0.0,-5.3758,0.0,0.0,0.0,-5.4762,-5.416,-5.5641,-5.6572,-5.7049,-5.7223,-5.7547,-5.7975,-5.8044,-5.7672,-5.7049,-5.7525,-5.8001,-5.8478,-5.9106,-5.9405,-5.9556,-5.9533,-5.9483,-5.9431,-3.92,-4.009,-4.0812,-4.0836,-4.2591,-4.4443,-4.5742,-4.7329,-4.7753,-4.5969,-4.6678,-4.7103,-4.6607,-4.8359,-4.9638,-4.9902,-4.9686,-4.9541,-4.9541,-4.9782,-4.9686,-4.9133,-4.9109,-4.8844,-4.8315,-4.6776,-4.377,-3.9224,0.0,0.0,0.0,0.0,0.0,0.0,0.0,-3.5242,0.0,0.0,0.0,-4.9201,-5.1076,-5.182,-5.189,-5.2446,-5.2792,-5.2929,-5.2929,-5.2654,-5.2308,-5.1935,-5.1656,-5.1446,-5.133,-5.126,-5.133,-5.1446,-5.1376,-5.116,-5.1039,-5.0627,-5.0098,-4.9291,-4.8452,-4.7566,-4.6667,-4.7241,-4.794,-4.7773,-4.8891,-4.902,-4.6625,-4.3855,0.0,0.0,0.0,0.0,0.0,0.0,0.0,0.0,0.0,0.0,0.0,0.0,0.0,0.0,0.0,0.0,0.0,0.0,0.0,0.0,0.0,0.0,-5.4561,0.0,-5.4561,-5.544,-5.6244,-5.7072,-5.7926,-5.795,-5.8225,-5.8704,-5.82,-5.775,-5.7499,-5.7775,-5.8227,-5.878,-5.9282,-5.9483,-5.9483,-5.9483,-5.9483,-5.9431,-4.1437,-4.1701,-4.2254,-4.3481,-4.478,-4.5958,-4.6896,-4.8652,-4.8929,-4.6177,-4.6019,-4.6066,-4.5856,-4.8606,-5.0527,-5.0527,-5.0431,-5.0407,-5.0527,-5.0527,-5.0335,-4.9878,-4.9878,-4.9469,-4.8652,-4.8507,-4.5886,0.0,0.0,0.0,0.0,0.0,0.0,0.0,0.0,0.0,0.0,0.0,-4.7413,-4.8517,-5.0901,-5.196,-5.203,-5.2654,-5.2929,-5.2929,-5.2929,-5.2929,-5.2861,-5.2515,-5.2169,-5.189,-5.182,-5.1751,-5.1751,-5.189,-5.1656,-5.1394,-5.1476,-5.087,-5.0106,-4.9842,-4.8167,-4.6493,-4.6066,-4.6459,-4.6972,-4.7051,-4.8916,-4.9704,-4.6914,-4.5613,0.0,0.0,0.0,0.0,0.0,0.0,0.0,0.0,0.0,0.0,0.0,0.0,0.0,0.0,0.0,0.0,0.0,0.0,0.0,0.0,0.0,-5.2251,-5.431,0.0,-5.4486,-5.652,-5.6746,-5.7324,-5.8201,-5.8125,-5.8224,-5.8525,-5.78,-5.7625,-5.7901,-5.8027,-5.8403,-5.893,-5.9332,-5.9483,-5.9483,-5.9483,-5.9483,-5.9405,-4.2651,-4.3385,-4.4045,-4.4189,-4.5934,-4.7473,-4.805,-4.9133,-4.9614,-4.8803,-4.9571,-4.9811,-4.8827,-4.9424,-4.995,-4.995,-4.9517,-4.9421,-4.9902,-4.995,-4.9926,-4.9878,-4.9878,-4.983,-4.9734,-4.9253,-4.7329,0.0,0.0,-3.7685,0.0,0.0,0.0,0.0,0.0,0.0,0.0,-4.6706,-4.8658,-5.0944,-5.1931,-5.2377,-5.2352,-5.2792,-5.2929,-5.2929,-5.2929,-5.2929,-5.2861,-5.2515,-5.2377,-5.2308,-5.189,-5.1516,-5.1376,-5.2144,-5.2099,-5.1698,-5.1638,-5.1712,-5.148,-4.9875,-4.8366,-4.687,-4.5255,-4.5562,-4.6147,-4.5957,-4.8733,-5.0088,-4.6816,-4.9149,-4.9867,0.0,0.0,0.0,0.0,0.0,0.0,0.0,0.0,0.0,0.0,0.0,0.0,0.0,0.0,0.0,0.0,0.0,0.0,-5.1373,-5.1348,-5.1147,-5.0896,-5.3733,-5.5039,-5.4813,-5.5817,-5.6374,-5.6601,-5.6226,-5.5829,-5.5435,-5.5829,-5.6749,-5.7951,-5.8428,-5.8956,-5.9433,-5.9483,-5.9483,-5.9483,-5.9483,-5.9483,-5.9483,-4.5549,-4.5429,-4.5694,-4.6968,-4.7088,-4.7521,-4.9012,-4.9589,-4.9782,-4.9589,-4.9926,-5.0046,-4.9589,-5.0046,-5.0359,-5.0359,-5.0167,-5.0143,-5.0359,-5.0359,-5.0359,-5.0359,-5.0359,-5.007,-4.9397,-4.9181,-4.7377,0.0,0.0,0.0,0.0,-3.2926,-3.4493,-3.7933,0.0,-4.2253,-4.6511,-4.8474,-5.0056,-5.1211,-5.1796,-5.2169,-5.2446,-5.2792,-5.2929,-5.2929,-5.2929,-5.2929,-5.2861,-5.2515,-5.2377,-5.2308,-5.196,-5.189,-5.2005,-5.2308,-5.2308,-5.2114,-5.1979,-5.1804,-5.1562,-5.0722,-4.8584,-4.6873,-4.7906,-4.6808,-4.6043,-4.7549,-4.9628,-5.0646,-4.9158,-4.9651,-4.9846,-4.871,0.0,0.0,0.0,0.0,0.0,0.0,0.0,0.0,0.0,0.0,0.0,0.0,0.0,0.0,0.0,0.0,0.0,-4.8686,0.0,-5.2829,-5.1925,-5.4561,-5.5942,-5.6043,-5.6201,-5.6551,-5.6924,-5.6201,-5.5879,-5.5856,-5.6475,-5.6973,-5.7549,-5.8097,-5.8646,-5.9095,-5.9095,-5.9276,-5.9483,-5.9483,-5.9483,-5.9483,-4.7617,-4.7136,-4.7185,-4.8988,-4.8387,-4.8195,-4.9854,-5.0119,-5.0119,-5.0119,-5.0119,-5.0119,-5.0119,-5.0455,-5.0696,-5.0696,-5.0696,-5.0696,-5.0696,-5.0696,-5.0696,-5.0696,-5.0696,0.0,-4.9565,-4.9397,-4.8026,-4.5468,-4.2615,0.0,-3.682,-3.6273,-3.8154,0.0,-4.2178,-4.4344,-4.8002,-4.9902,-5.0978,-5.1376,-5.1681,-5.2099,-5.2585,-5.2792,-5.2929,-5.2929,-5.2929,-5.2861,-5.2723,-5.2515,-5.2308,-5.2169,-5.203,-5.2169,-5.2446,-5.2515,-5.2515,-5.2416,-5.2316,-5.2122,-5.1836,-5.1582,-4.933,-4.7671,-4.9583,-4.7959,-4.6799,-4.9131,-5.0425,-5.1135,-5.1078,-5.0538,-5.0167,-5.0563,0.0,0.0,0.0,0.0,0.0,0.0,0.0,0.0,0.0,0.0,0.0,0.0,0.0,0.0,0.0,0.0,0.0,0.0,0.0,0.0,-5.3155,-5.534,-5.6721,-5.7298,-5.6676,-5.6551,-5.6823,-5.5752,-5.5605,-5.6252,-5.6797,-5.7118,-5.7469,-5.7963,-5.8409,-5.8731,-5.8887,-5.912,-5.9353,-5.9508,-5.9483,-5.9483,-4.8171,-4.8267,-4.8603,-4.9662,-4.983,-5.0022,-5.06,-5.0696,-5.0696,-5.0696,-5.0696,-5.0696,-5.0696,-5.0696,-5.0696,-5.0696,-5.0696,-5.0696,-5.0696,-5.0696,-5.0696,0.0,0.0,-5.0696,-5.0672,-5.0143,-4.983,-4.9782,0.0,0.0,-4.4055,-3.9363,-3.9484,-4.3543,-4.2973,-4.5622,-5.0648,-5.0696,-5.1119,-5.182,-5.182,-5.2238,-5.2929,-5.2929,-5.2929,-5.2929,-5.2929,-5.2723,-5.2446,-5.2377,-5.2169,-5.189,-5.2308,-5.2377,-5.2446,-5.2792,-5.2654,-5.2446,-5.2767,-5.2929,-5.2779,-5.2226,-5.0936,-4.9731,-4.9201,-4.8671,-4.8646,-5.0065,-5.0963,-5.1575,-5.2008,-5.2528,-5.2015,-4.9445,0.0,0.0,0.0,0.0,0.0,0.0,0.0,-4.0646,-4.6388,0.0,0.0,0.0,0.0,0.0,0.0,0.0,0.0,-5.1122,-5.2352,0.0,-5.3683,-5.5917,-5.7323,-5.7876,-5.685,-5.6227,-5.5903,-5.4439,-5.4563,-5.5952,-5.6037,-5.6882,-5.8064,-5.8221,-5.8286,-5.8364,-5.8731,-5.8887,-5.8965,-5.9328,-5.9483,-5.9483,-4.983,-4.9926,-5.0046,-5.0383,-5.0431,-5.0503,-5.0672,-5.0696,-5.0696,-5.0696,-5.0696,-5.0696,-5.0696,-5.0696,-5.0696,0.0,-5.0696,-5.0696,0.0,-5.0696,-5.0696,-5.0696,-5.0696,-5.0527,-5.0143,-4.995,-4.9686,-4.9325,0.0,0.0,-4.475,-4.1155,-4.1883,-4.6196,-4.5021,-4.6137,-4.9126,-5.0506,-5.1571,-5.2337,-5.2643,-5.3064,-5.3457,-5.3457,-5.3231,-5.2929,-5.2929,-5.2723,-5.2377,-5.2377,-5.2308,-5.2238,-5.2377,-5.2377,-5.2446,-5.2515,-5.2654,-5.2792,-5.2861,-5.2929,-5.2879,-5.2703,-5.123,-5.0129,-5.0944,-5.0499,-5.008,-5.0506,-5.0875,-5.1135,-5.117,-5.1662,-5.1674,-5.0347,-5.1152,0.0,-5.0588,0.0,0.0,0.0,0.0,-4.8764,0.0,-4.5958,0.0,0.0,0.0,0.0,0.0,0.0,0.0,0.0,-5.3005,0.0,-5.3708,-5.6319,-5.7524,-5.7323,-5.6824,-5.5849,-5.4439,-5.397,-5.4563,-5.5927,-5.6341,-5.6958,-5.7654,-5.8065,-5.8129,-5.7892,-5.8286,-5.8653,-5.8965,-5.9328,-5.9483,-5.9483,-5.0835,-5.0884,-5.0978,-5.1119,-5.0978,-5.0884,-5.0884,-5.0767,-5.0768,-5.096,-5.084,-5.0792,-5.0984,-5.0816,0.0,-5.0696,-5.0696,-5.0767,-5.0908,-5.0767,-5.0767,-5.0908,-5.0767,-5.0527,-5.0191,-4.9974,0.0,-4.9373,-4.7521,-4.6511,-4.6254,-4.4118,-4.4589,-4.7204,-4.6636,-4.7231,-4.873,-5.0508,-5.1915,-5.2902,-5.3187,-5.3541,-5.4009,-5.3783,-5.3507,-5.3181,-5.3005,-5.2723,-5.2377,-5.2377,-5.2377,-5.2377,-5.2377,-5.2515,-5.2585,-5.2585,-5.2723,-5.2929,-5.2929,-5.2929,-5.2929,-5.2929,-5.1941,-5.1206,-5.1947,-5.153,-5.101,-5.101,-5.1012,-5.1004,-5.1086,-5.1492,-5.1575,-5.1023,-5.1402,-5.1687,-5.1352,0.0,0.0,0.0,0.0,0.0,0.0,-4.8075,-4.7129,0.0,0.0,0.0,0.0,0.0,-4.8736,-5.067,-5.4486,-5.6118,-5.529,-5.7022,-5.7725,-5.7349,-5.645,-5.5304,-5.3822,-5.3972,-5.481,-5.6223,-5.6491,-5.7081,-5.7716,-5.7981,-5.7813,-5.7418,-5.805,-5.8443,-5.8731,-5.9276,-5.9483,-5.9483,-5.1141,-5.1211,-5.1306,-5.1751,-5.1541,-5.126,-5.126,-5.1051,-5.1056,-5.1561,-5.1129,-5.1008,-5.1489,-5.1105,-5.0816,-5.0887,0.0,0.0,-5.119,-5.0956,-5.098,-5.1263,-5.1004,-5.0816,-5.0816,-5.0263,-4.995,-4.9878,-4.9373,-4.8868,-4.8363,-4.7702,-4.7133,-4.6696,-4.78,-4.8534,-4.9112,-5.0864,-5.2355,-5.3492,-5.3492,-5.397,-5.4561,-5.4034,-5.3758,-5.3632,-5.3155,-5.2748,-5.2377,-5.2446,-5.2446,-5.2377,-5.2446,-5.2654,-5.2929,-5.2929,-5.2929,-5.2929,-5.2929,-5.2929,-5.2929,-5.2929,-5.2929,-5.2804,-5.2277,-5.1879,-5.1582,-5.1514,-5.124,-5.1161,-5.1652,-5.1751,-5.1611,-5.1282,-5.1866,-5.2065,-5.1201,-5.1675,0.0,0.0,0.0,0.0,-4.7273,-4.7458,-4.853,0.0,0.0,0.0,0.0,0.0,-4.935,-5.5243,-5.6421,-5.7249,-5.7826,-5.7776,-5.7776,-5.775,-5.593,-5.4645,-5.3897,-5.4248,-5.5306,-5.6715,-5.6639,-5.7278,-5.831,-5.7813,-5.7418,-5.71,-5.7971,-5.831,-5.8389,-5.9198,-5.9483,-5.9483,-5.1141,-5.1211,-5.1306,-5.1751,-5.207,-5.2245,-5.2245,-5.2327,-5.2452,-5.2574,-5.2188,-5.1946,-5.2091,-5.197,-5.2043,-5.2332,-5.1367,-5.1006,-5.1724,-5.1773,-5.1824,-5.2019,-5.226,-5.226,-5.1898,-5.1369,-5.0696,-4.9878,-4.9734,-4.9421,-4.8892,-4.7633,-4.6657,-4.6102,-4.7686,-4.8106,-4.7942,-5.1119,-5.3083,-5.4008,-5.4324,-5.4758,-5.5189,-5.5039,-5.4461,-5.3683,-5.3557,-5.3048,-5.2446,-5.2723,-5.2585,-5.2421,-5.2723,-5.2861,-5.2929,-5.2929,-5.2929,-5.2929,-5.2929,-5.2929,-5.2929,-5.2929,-5.2929,-5.2904,-5.2754,-5.2454,-5.2109,-5.1807,-5.139,-5.1205,-5.1352,-5.1095,-5.1049,-5.1141,-5.1586,-5.1841,-5.1648,-5.2247,-5.2477,0.0,-5.148,-5.1073,-5.0665,-5.0421,-4.985,0.0,0.0,-4.9699,-5.1558,-5.0487,-5.1635,-5.5559,-5.5929,-5.6475,-5.7348,-5.6925,-5.68,-5.6701,-5.5881,-5.5189,-5.4744,-5.4794,-5.5706,-5.7171,-5.7171,-5.7586,-5.831,-5.8153,-5.7655,-5.71,-5.7971,-5.831,-5.8389,-5.9198,-5.9483,-5.9508,-5.1376,-5.1656,-5.1939,-5.2536,-5.2763,-5.2964,-5.3211,-5.3222,-5.3131,-5.323,-5.2841,-5.2647,-5.2889,-5.2695,-5.2792,-5.3346,-5.2402,-5.204,-5.288,-5.2762,-5.274,-5.2768,-5.2841,-5.272,-5.2283,-5.1994,-5.1441,-5.06,-5.06,-5.0215,-4.9445,-4.9132,-4.8298,-4.7067,-4.9229,-4.973,-4.9063,-5.176,-5.3571,-5.4574,-5.4819,-5.5258,-5.5742,-5.5491,-5.5013,-5.4436,-5.4185,-5.3593,-5.3003,-5.3028,-5.2854,-5.2654,-5.2654,-5.2792,-5.2929,-5.2929,-5.2929,-5.2929,-5.2929,-5.2929,-5.2929,-5.2929,-5.2929,-5.2929,-5.2929,-5.2654,-5.2308,-5.189,-5.1516,-5.1141,-5.1025,-5.0837,-5.0837,-5.1141,-5.1516,-5.189,-5.203,-5.2585,-5.2929,-5.2929,-5.2784,-5.2486,-5.1845,-5.1666,-5.1141,-4.9966,-5.0111,0.0,-5.2501,-5.2841,-5.3815,-5.5728,-5.6022,-5.6372,-5.6799,-5.6726,-5.6452,-5.6054,-5.5756,-5.5411,-5.4967,-5.5435,-5.6227,-5.7323,-5.7748,-5.8193,-5.8599,-5.8364,-5.7892,-5.7339,-5.805,-5.831,-5.8389,-5.9198,-5.9483,-5.9508,-5.1751,-5.2099,-5.264,-5.3437,-5.3378,-5.3441,-5.3989,-5.3827,-5.3689,-5.3888,-5.3498,-5.34,-5.3765,-5.3498,-5.3519,-5.4169,-5.3664,-5.3567,-5.4045,-5.3805,-5.3638,-5.3664,-5.3375,-5.3011,-5.267,-5.2525,-5.2139,-5.161,-5.1537,-5.1008,-5.0119,-5.1056,-5.0458,-4.8657,-5.1267,-5.1831,-5.0901,-5.2553,-5.3884,-5.4892,-5.4967,-5.5485,-5.6095,-5.5691,-5.5465,-5.534,-5.4863,-5.431,-5.3763,-5.3338,-5.3153,-5.2961,-5.264,-5.2729,-5.2955,-5.303,-5.298,-5.2929,-5.2929,-5.2929,-5.2929,-5.2929,-5.2929,-5.2929,-5.2929,-5.2654,-5.2308,-5.189,-5.1495,-5.1168,-5.0791,-5.0768,-5.0767,-5.078,-5.13,-5.1792,-5.1891,-5.2485,-5.2986,-5.303,-5.3088,-5.2886,-5.2091,-5.2035,-5.2187,-5.2525,-5.286,-5.3558,-5.4664,-5.5073,-5.538,-5.5626,-5.6067,-5.627,-5.6178,-5.6625,-5.6449,-5.5705,-5.5705,-5.5509,-5.5312,-5.6154,-5.685,-5.7548,-5.8351,-5.8775,-5.8887,-5.8443,-5.805,-5.7631,-5.805,-5.8232,-5.8389,-5.912,-5.9405,-5.9483,-5.1751,-5.2099,-5.254,-5.2961,-5.3337,-5.3839,-5.4415,-5.4533,-5.4741,-5.5213,-5.4918,-5.4672,-5.4745,-5.4696,-5.4869,-5.5285,-5.5237,-5.5038,-5.4713,-5.4615,-5.4595,-5.477,-5.4721,-5.4475,-5.4079,-5.3371,-5.2692,-5.2163,-5.1706,-5.1393,-5.1249,-5.1417,-5.0764,-4.9594,-5.1956,-5.2277,-5.1332,-5.3001,-5.3975,-5.4496,-5.4868,-5.5263,-5.5681,-5.5972,-5.5792,-5.539,-5.529,-5.4888,-5.4361,-5.3487,-5.3403,-5.3513,-5.3188,-5.3028,-5.3005,-5.3457,-5.3281,-5.2929,-5.2929,-5.2929,-5.2929,-5.2929,-5.2929,-5.2929,-5.2929,-5.2654,-5.2308,-5.189,-5.1883,-5.1604,-5.0839,-5.1056,-5.0768,-4.9033,-5.0198,-5.0958,-4.9995,-5.1743,-5.3258,-5.3513,-5.3449,-5.3271,-5.3173,-5.2598,-5.2621,-5.351,-5.3269,-5.3702,-5.5193,-5.4928,-5.4764,-5.4768,-5.4841,-5.5002,-5.5238,-5.5977,-5.6221,-5.6146,-5.6146,-5.6298,-5.6674,-5.6849,-5.745,-5.8503,-5.8603,-5.8775,-5.8887,-5.8443,-5.805,-5.7631,-5.7655,-5.7971,-5.8364,-5.8809,-5.9173,-5.9483,-5.1751,-5.2308,-5.2898,-5.3708,-5.4009,-5.4361,-5.4913,-5.5321,-5.5453,-5.5185,-5.5213,-5.5337,-5.5337,-5.5337,-5.5485,-5.5926,-5.5926,-5.5801,-5.5551,-5.5551,-5.5505,-5.5312,-5.5337,-5.4893,-5.3984,-5.3395,-5.2812,-5.2283,-5.226,-5.226,-5.2284,-5.2768,-5.2549,-5.1882,-5.3197,-5.3357,-5.2717,-5.3497,-5.4047,-5.4421,-5.4818,-5.5263,-5.5632,-5.6072,-5.6068,-5.5842,-5.5842,-5.5491,-5.4963,-5.4498,-5.4294,-5.416,-5.3973,-5.3869,-5.3858,-5.411,-5.3582,-5.2929,-5.2929,-5.2929,-5.2929,-5.2929,-5.2929,-5.2929,-5.2929,-5.2792,-5.2585,-5.2238,-5.1993,-5.1766,-5.1436,-5.1464,-5.132,-5.0809,-5.1459,-5.2032,-5.1926,-5.2903,-5.369,-5.3807,-5.3805,-5.3716,-5.3497,-5.3252,-5.3293,-5.3774,-5.387,-5.4207,-5.4928,-5.4965,-5.482,-5.4616,-5.5072,-5.5182,-5.4967,-5.6053,-5.652,-5.6219,-5.652,-5.6796,-5.7047,-5.7675,-5.8227,-5.873,-5.9006,-5.9205,-5.9198,-5.8809,-5.8364,-5.7971,-5.7971,-5.8129,-5.8364,-5.8731,-5.9173,-5.9483,-5.2189,-5.275,-5.3582,-5.4411,-5.4561,-5.4787,-5.5491,-5.5842,-5.5822,-5.5355,-5.558,-5.5779,-5.5779,-5.5779,-5.5852,-5.6146,-5.6219,-5.6219,-5.6219,-5.6219,-5.6072,-5.5779,-5.5632,-5.4991,-5.3766,-5.3422,-5.2935,-5.2405,-5.2696,-5.2913,-5.2937,-5.3789,-5.4034,-5.3766,-5.4327,-5.4347,-5.4047,-5.3972,-5.4197,-5.457,-5.4892,-5.5263,-5.5632,-5.6072,-5.6219,-5.6219,-5.6219,-5.5942,-5.5566,-5.5368,-5.5042,-5.4762,-5.4691,-5.4591,-5.4587,-5.4712,-5.4059,-5.3281,-5.313,-5.303,-5.2929,-5.2929,-5.2929,-5.2929,-5.2929,-5.2929,-5.2792,-5.2446,-5.2268,-5.2066,-5.1842,-5.1751,-5.1656,-5.175,-5.2162,-5.2644,-5.2943,-5.3483,-5.3975,-5.4191,-5.43,-5.4279,-5.3985,-5.3955,-5.3945,-5.3991,-5.4375,-5.4616,-5.4744,-5.5048,-5.5075,-5.4727,-5.5255,-5.5359,-5.4967,-5.6104,-5.6548,-5.642,-5.6821,-5.7173,-5.7449,-5.8328,-5.878,-5.893,-5.9332,-5.9483,-5.9508,-5.912,-5.8653,-5.831,-5.8153,-5.8207,-5.8389,-5.8653,-5.9043,-5.9483,-5.3295,-5.3939,-5.4461,-5.4632,-5.4561,-5.4938,-5.5993,-5.5742,-5.5792,-5.6722,-5.6421,-5.6146,-5.6146,-5.6146,-5.6146,-5.6219,-5.6219,-5.6219,-5.6219,-5.6219,-5.6219,-5.6146,-5.5779,-5.5138,-5.4181,-5.3766,-5.3278,-5.2744,-5.2841,-5.2913,-5.2937,-5.3789,-5.418,-5.4205,-5.4697,-5.4967,-5.4892,-5.4496,-5.457,-5.4967,-5.4967,-5.5263,-5.5632,-5.6072,-5.6219,-5.6219,-5.6219,-5.6194,-5.5995,-5.5131,-5.5077,-5.5268,-5.4882,-5.4702,-5.4662,-5.5189,-5.4913,-5.4336,-5.3783,-5.3306,-5.2929,-5.2929,-5.2929,-5.2929,-5.2929,-5.2929,-5.2792,-5.2446,-5.275,-5.2668,-5.1498,-5.1603,-5.1241,-4.896,-5.0333,-5.1246,-5.0186,-5.2085,-5.3912,-5.4665,-5.4868,-5.4918,-5.4918,-5.4546,-5.4391,-5.452,-5.4592,-5.4744,-5.5124,-5.5199,-5.5131,-5.4966,-5.4694,-5.4694,-5.4967,-5.5435,-5.6152,-5.6972,-5.7022,-5.7575,-5.8604,-5.8679,-5.8981,-5.9433,-5.9483,-5.9483,-5.9508,-5.912,-5.8653,-5.8232,-5.7813,-5.7892,-5.831,-5.831,-5.8834,-5.9483,-5.3706,-5.4206,-5.4662,-5.5013,-5.5089,-5.534,-5.6093,-5.6043,-5.6043,-5.647,-5.6344,-5.6219,-5.6219,-5.6219,-5.6068,-5.5742,-5.5691,-5.5691,-5.5691,-5.5691,-5.5867,-5.6194,-5.5852,-5.531,-5.4619,-5.3912,-5.3351,-5.2841,-5.3448,-5.3692,-5.3765,-5.489,-5.5309,-5.5089,-5.5312,-5.509,-5.4645,-5.4472,-5.4347,-5.4272,-5.4818,-5.5115,-5.5337,-5.5926,-5.6219,-5.6219,-5.6219,-5.6219,-5.6168,-5.5822,-5.5601,-5.5528,-5.5601,-5.5451,-5.5326,-5.5769,-5.5516,-5.5039,-5.4813,-5.4084,-5.3406,-5.3406,-5.3181,-5.2929,-5.2929,-5.2929,-5.2861,-5.2723,-5.2665,-5.263,-5.2379,-5.2152,-5.1797,-5.117,-5.1585,-5.2019,-5.2088,-5.318,-5.4108,-5.4525,-5.4819,-5.4941,-5.4733,-5.4606,-5.4551,-5.4592,-5.482,-5.4902,-5.4713,-5.4938,-5.5163,-5.5337,-5.4942,-5.4892,-5.4967,-5.5732,-5.6303,-5.6676,-5.7249,-5.7976,-5.873,-5.9056,-5.9307,-5.9483,-5.9483,-5.9483,-5.9508,-5.9353,-5.8887,-5.831,-5.8129,-5.7971,-5.7892,-5.8232,-5.8677,-5.9173,-5.4297,-5.473,-5.5189,-5.5591,-5.5641,-5.5842,-5.6394,-5.6319,-5.6269,-5.6445,-5.6319,-5.6219,-5.6219,-5.6219,-5.6068,-5.5666,-5.5491,-5.5465,-5.5641,-5.5641,-5.5817,-5.6194,-5.5926,-5.5505,-5.4957,-5.4351,-5.3741,-5.3274,-5.4007,-5.4424,-5.4424,-5.5651,-5.6072,-5.5779,-5.5779,-5.546,-5.4942,-5.4719,-5.457,-5.457,-5.4892,-5.5189,-5.5411,-5.5999,-5.6219,-5.6219,-5.6219,-5.6219,-5.6219,-5.6219,-5.5926,-5.5632,-5.5926,-5.5852,-5.5632,-5.5926,-5.587,-5.5641,-5.5641,-5.4963,-5.416,-5.3783,-5.3432,-5.313,-5.2955,-5.2929,-5.2929,-5.2929,-5.2723,-5.2615,-5.2684,-5.2266,-5.1963,-5.2114,-5.2043,-5.2357,-5.323,-5.3668,-5.4108,-5.472,-5.4794,-5.4791,-5.4706,-5.4579,-5.4503,-5.4351,-5.473,-5.4861,-5.4794,-5.5164,-5.5485,-5.5779,-5.5411,-5.5189,-5.5212,-5.5856,-5.6352,-5.67,-5.7475,-5.8278,-5.8981,-5.9332,-5.9483,-5.9483,-5.9483,-5.9483,-5.9483,-5.9483,-5.9043,-5.831,-5.831,-5.7971,-5.7655,-5.8129,-5.8521,-5.8965,-5.4967,-5.5632,-5.6219,-5.6219,-5.6219,-5.6394,-5.6947,-5.657,-5.642,-5.6972,-5.657,-5.6219,-5.6219,-5.6219,-5.6219,-5.6194,-5.5691,-5.5616,-5.6168,-5.6219,-5.6219,-5.6219,-5.6219,-5.5968,-5.5415,-5.5029,-5.4539,-5.4017,-5.4539,-5.4812,-5.4812,-5.5724,-5.6219,-5.6219,-5.6219,-5.6219,-5.6146,-5.5337,-5.5485,-5.6146,-5.5337,-5.5485,-5.6219,-5.6219,-5.6219,-5.6219,-5.6219,-5.6219,-5.6219,-5.6219,-5.5926,-5.5632,-5.5632,-5.5632,-5.5632,-5.5632,-5.5926,-5.6219,-5.6219,-5.5817,-5.5114,-5.4009,-5.3708,-5.3582,-5.3055,-5.2929,-5.2929,-5.2929,-5.2929,-5.2654,-5.196,-5.182,-5.1541,-5.0837,-5.1153,-5.1826,-5.2768,-5.3034,-5.369,-5.541,-5.4868,-5.457,-5.4967,-5.4645,-5.4248,-5.3822,-5.4197,-5.4794,-5.5558,-5.5999,-5.6219,-5.6219,-5.5852,-5.5658,-5.5777,-5.5683,-5.6179,-5.7323,-5.775,-5.8453,-5.9483,-5.9483,-5.9483,-5.9483,-5.9483,-5.9483,-5.9483,-5.9483,-5.9043,-5.831,-5.831,-5.805,-5.7655,-5.8129,-5.8521,-5.8965,-5.5337,-5.5632,-5.5852,-5.6146,-5.6219,-5.652,-5.7499,-5.6821,-5.6545,-5.7524,-5.6821,-5.6219,-5.6219,-5.6219,-5.6068,-5.5666,-5.5491,-5.5465,-5.5616,-5.5993,-5.6219,-5.6219,-5.6219,-5.6143,-5.5968,-5.5603,-5.511,-5.4563,-5.511,-5.5185,-5.4812,-5.5724,-5.6219,-5.6219,-5.6219,-5.6072,-5.5779,-5.5558,-5.5411,-5.5337,-5.5411,-5.5558,-5.5779,-5.6072,-5.6219,-5.6219,-5.6219,-5.6219,-5.6219,-5.6219,-5.5779,-5.5115,-5.4868,-5.5164,-5.5632,-5.5632,-5.5926,-5.6219,-5.6219,-5.6093,-5.5792,-5.5064,-5.4587,-5.426,-5.411,-5.4084,-5.4084,-5.4084,-5.4084,-5.4014,-5.3803,-5.2961,-5.2266,-5.2054,-5.1727,-5.1826,-5.2768,-5.323,-5.3887,-5.5041,-5.4967,-5.4719,-5.457,-5.4472,-5.4248,-5.3822,-5.4421,-5.5164,-5.5999,-5.6146,-5.6219,-5.6219,-5.6072,-5.5954,-5.5777,-5.5755,-5.6298,-5.7435,-5.7843,-5.8524,-5.9483,-5.9483,-5.9353,-5.9095,-5.9095,-5.9095,-5.9095,-5.9095,-5.8965,-5.8731,-5.8731,-5.8261,-5.7655,-5.8129,-5.8364,-5.8521,-5.5263,-5.5485,-5.5705,-5.6146,-5.6219,-5.652,-5.7424,-5.6796,-5.6545,-5.7449,-5.6771,-5.6219,-5.6219,-5.6219,-5.6068,-5.5742,-5.5516,-5.539,-5.539,-5.5691,-5.6068,-5.652,-5.6545,-5.6445,-5.6219,-5.5999,-5.5678,-5.5354,-5.5678,-5.5678,-5.5354,-5.5922,-5.6219,-5.6219,-5.6219,-5.6072,-5.5852,-5.5705,-5.5558,-5.5485,-5.5558,-5.5705,-5.5852,-5.6146,-5.6219,-5.6219,-5.6219,-5.6219,-5.6219,-5.6219,-5.5705,-5.4892,-5.4347,-5.4719,-5.5337,-5.5337,-5.5779,-5.6146,-5.5999,-5.6072,-5.6045,-5.5574,-5.5218,-5.4838,-5.4612,-5.4561,-5.4561,-5.4561,-5.4561,-5.4561,-5.442,-5.3719,-5.3045,-5.2759,-5.2354,-5.2332,-5.3302,-5.3424,-5.3911,-5.5336,-5.5016,-5.4794,-5.4868,-5.457,-5.4322,-5.4047,-5.4669,-5.5263,-5.5926,-5.6146,-5.6219,-5.6219,-5.642,-5.6352,-5.6071,-5.6292,-5.6811,-5.7527,-5.7938,-5.8596,-5.9483,-5.9483,-5.9251,-5.8887,-5.8887,-5.8887,-5.8887,-5.8887,-5.8887,-5.8887,-5.8887,-5.834,-5.7655,-5.8129,-5.831,-5.8364,-5.4967,-5.5337,-5.5705,-5.6146,-5.6244,-5.647,-5.7022,-5.6696,-5.657,-5.7123,-5.6696,-5.6369,-5.6369,-5.6369,-5.6369,-5.6369,-5.5867,-5.5516,-5.5465,-5.5516,-5.6018,-5.7072,-5.7173,-5.6972,-5.652,-5.6369,-5.6294,-5.6294,-5.6244,-5.6219,-5.6219,-5.6219,-5.6219,-5.6219,-5.6219,-5.6219,-5.6219,-5.5779,-5.5852,-5.6146,-5.5779,-5.5852,-5.6219,-5.6219,-5.6219,-5.6219,-5.6219,-5.6219,-5.6219,-5.6146,-5.5632,-5.4892,-5.4122,-5.4347,-5.4967,-5.4967,-5.5558,-5.6146,-5.5705,-5.5852,-5.6072,-5.5705,-5.5551,-5.534,-5.4838,-5.4712,-5.4712,-5.4712,-5.4712,-5.4641,-5.4284,-5.4091,-5.3852,-5.3131,-5.2986,-5.3229,-5.4034,-5.3594,-5.3886,-5.5924,-5.5164,-5.4794,-5.5558,-5.4868,-5.4397,-5.4496,-5.4794,-5.5189,-5.5632,-5.5999,-5.6244,-5.6294,-5.6771,-5.6875,-5.6636,-5.7127,-5.7475,-5.7524,-5.7935,-5.8569,-5.9405,-5.9483,-5.9251,-5.8887,-5.8887,-5.8887,-5.8887,-5.8887,-5.894,-5.8965,-5.8965,-5.8418,-5.7789,-5.8129,-5.831,-5.8364,-5.5337,-5.5263,-5.5337,-5.6072,-5.657,-5.7047,-5.7625,-5.76,-5.7725,-5.8278,-5.7876,-5.7524,-5.7524,-5.7524,-5.7524,-5.7524,-5.6997,-5.6495,-5.6068,-5.6445,-5.6997,-5.7675,-5.8127,-5.8478,-5.878,-5.7524,-5.6846,-5.6846,-5.642,-5.6219,-5.6219,-5.6219,-5.6219,-5.6219,-5.6219,-5.6219,-5.6219,-5.6146,-5.6146,-5.6219,-5.6146,-5.6146,-5.6219,-5.6219,-5.6219,-5.6219,-5.6219,-5.6219,-5.6146,-5.5852,-5.5411,-5.4892,-5.4421,-5.4645,-5.4967,-5.4967,-5.5558,-5.6146,-5.5705,-5.5632,-5.5705,-5.5632,-5.5606,-5.5628,-5.582,-5.5867,-5.5867,-5.5867,-5.5867,-5.5867,-5.5697,-5.5129,-5.4468,-5.4033,-5.3668,-5.3473,-5.3741,-5.3687,-5.4151,-5.5533,-5.5263,-5.5041,-5.5558,-5.4868,-5.457,-5.4892,-5.4967,-5.5337,-5.6072,-5.6146,-5.642,-5.6846,-5.6972,-5.7049,-5.7201,-5.7323,-5.7438,-5.754,-5.8035,-5.8554,-5.9018,-5.9353,-5.912,-5.8443,-5.8731,-5.8731,-5.8443,-5.8809,-5.912,-5.9353,-5.9353,-5.9043,-5.8575,-5.8364,-5.831,-5.8364,-5.6362,-5.5876,-5.5485,-5.6072,-5.6671,-5.7223,-5.7801,-5.8102,-5.8378,-5.8679,-5.8478,-5.8202,-5.7926,-5.7901,-5.7901,-5.7901,-5.7123,-5.662,-5.6595,-5.6394,-5.6872,-5.8227,-5.8554,-5.9207,-6.0286,-5.893,-5.8077,-5.7826,-5.7022,-5.6746,-5.6997,-5.647,-5.6344,-5.6595,-5.6319,-5.6219,-5.6219,-5.6219,-5.6219,-5.6219,-5.6219,-5.6219,-5.6219,-5.6219,-5.6219,-5.6219,-5.6219,-5.6219,-5.6146,-5.5779,-5.5337,-5.4967,-5.457,-5.4645,-5.4967,-5.4967,-5.5558,-5.6072,-5.5485,-5.5485,-5.5558,-5.5337,-5.5485,-5.5705,-5.6146,-5.6219,-5.6219,-5.6219,-5.6219,-5.6219,-5.6219,-5.5822,-5.5331,-5.4965,-5.4525,-5.4304,-5.4304,-5.4028,-5.4272,-5.5485,-5.5263,-5.5115,-5.5263,-5.4942,-5.4645,-5.4421,-5.5038,-5.5633,-5.6005,-5.6649,-5.7148,-5.7449,-5.77,-5.7647,-5.7373,-5.772,-5.7678,-5.7339,-5.7971,-5.8521,-5.8862,-5.9328,-5.9198,-5.8599,-5.8599,-5.8599,-5.8599,-5.8599,-5.8965,-5.9483,-5.9483,-5.9251,-5.8887,-5.8653,-5.8443,-5.8364,-5.7635,-5.687,-5.6047,-5.6146,-5.6746,-5.7349,-5.7826,-5.8428,-5.8855,-5.8981,-5.8905,-5.8704,-5.8353,-5.8227,-5.8127,-5.8052,-5.7173,-5.6746,-5.7022,-5.6369,-5.6821,-5.8755,-5.9006,-5.9809,-6.1291,-6.0311,-5.9483,-5.8855,-5.7725,-5.7424,-5.7876,-5.6947,-5.6746,-5.7173,-5.6696,-5.6445,-5.6344,-5.6344,-5.6294,-5.6219,-5.6219,-5.6219,-5.6219,-5.6219,-5.6219,-5.6219,-5.6219,-5.6219,-5.6146,-5.5852,-5.5411,-5.4967,-5.4645,-5.4645,-5.4892,-5.4967,-5.5558,-5.5926,-5.5189,-5.5263,-5.5485,-5.5115,-5.5337,-5.5705,-5.6146,-5.6219,-5.6219,-5.6219,-5.6219,-5.6219,-5.6219,-5.6219,-5.6072,-5.5705,-5.5263,-5.4967,-5.4892,-5.4272,-5.4197,-5.5337,-5.5337,-5.5189,-5.5115,-5.5041,-5.4768,-5.4168,-5.5131,-5.5877,-5.605,-5.7099,-5.7876,-5.7951,-5.8402,-5.8295,-5.7597,-5.8065,-5.7813,-5.7021,-5.7813,-5.8364,-5.8809,-5.9173,-5.9198,-5.8887,-5.8599,-5.8677,-5.8887,-5.8599,-5.8887,-5.9483,-5.9483,-5.9276,-5.8965,-5.8887,-5.8521,-5.8129,-5.8463,-5.785,-5.7231,-5.634,-5.7072,-5.7801,-5.7901,-5.8755,-5.9558,-6.0035,-5.9684,-5.9533,-5.9935,-5.9558,-5.9106,-5.8654,-5.8478,-5.8001,-5.7097,-5.7826,-5.8604,-5.9357,-6.0337,-6.1165,-6.1893,-6.1291,-6.0437,-5.9382,-5.8303,-5.7826,-5.7901,-5.775,-5.77,-5.7775,-5.77,-5.7399,-5.6922,-5.6922,-5.6646,-5.6219,-5.6219,-5.6219,-5.6219,-5.6219,-5.6219,-5.6219,-5.6219,-5.6219,-5.6219,-5.6146,-5.5632,-5.4967,-5.4967,-5.4719,-5.457,-5.4892,-5.5337,-5.5558,-5.5115,-5.5263,-5.5485,-5.5115,-5.5337,-5.5705,-5.6146,-5.6219,-5.6219,-5.6219,-5.6219,-5.6219,-5.6219,-5.6219,-5.6072,-5.5705,-5.5263,-5.4892,-5.457,-5.4122,-5.4122,-5.4967,-5.5632,-5.5926,-5.5558,-5.5189,-5.5163,-5.5479,-5.5402,-5.5646,-5.644,-5.6995,-5.7571,-5.8069,-5.845,-5.8571,-5.8187,-5.8261,-5.7813,-5.7021,-5.7497,-5.7971,-5.8364,-5.8809,-5.8965,-5.8965,-5.9198,-5.9198,-5.894,-5.9198,-5.9431,-5.9483,-5.9483,-5.9508,-5.9328,-5.8677,-5.7892,-5.7259,-5.9723,-5.8815,-5.7733,-5.6412,-5.7148,-5.7901,-5.7901,-5.9056,-6.0035,-6.0286,-6.0387,-6.0412,-6.0337,-5.9834,-5.9282,-5.8755,-5.8453,-5.8052,-5.7549,-5.7675,-5.8303,-5.9433,-5.9985,-6.0638,-6.1517,-6.0989,-6.0462,-5.996,-5.888,-5.8504,-5.878,-5.8177,-5.8052,-5.8328,-5.77,-5.7273,-5.7022,-5.6696,-5.6445,-5.6219,-5.6219,-5.6219,-5.6219,-5.6219,-5.6219,-5.6219,-5.6219,-5.6219,-5.6146,-5.5926,-5.5485,-5.4967,-5.4719,-5.457,-5.4496,-5.4892,-5.5263,-5.5485,-5.5115,-5.5263,-5.5485,-5.5115,-5.5337,-5.5705,-5.6146,-5.6219,-5.6219,-5.6219,-5.6219,-5.6219,-5.6219,-5.6219,-5.6146,-5.5999,-5.5411,-5.4967,-5.4719,-5.4197,-5.4122,-5.4892,-5.5485,-5.5779,-5.5632,-5.5263,-5.5113,-5.5402,-5.5567,-5.5981,-5.6671,-5.7608,-5.8266,-5.8539,-5.8925,-5.8896,-5.831,-5.831,-5.7813,-5.7021,-5.718,-5.7655,-5.831,-5.8731,-5.9018,-5.9251,-5.9198,-5.9198,-5.9173,-5.8965,-5.912,-5.9508,-5.8965,-5.8834,-5.8756,-5.8129,-5.7655,-5.7418]},{"header":{"parameterUnit":"m.s-1","parameterCategory":1,"la1":30.6,"la2":28.766,"lo1":-90.7593,"lo2":-88.6598,"dx":0.0162,"dy":0.0183,"nx":116,"ny":114,"refTime":"2022-12-28T18:00:00:Z","depth":0,"parameterNumber":3,"parameterNumberName":"V-component_of_WINDS"},"data":[0.0,0.0,0.0,0.0,0.0,0.0,0.0,0.0,0.0,0.0,0.0,0.0,0.0,0.0,0.0,0.0,0.0,0.0,0.0,0.0,0.0,0.0,0.0,0.0,0.0,0.0,0.0,0.0,0.0,0.0,0.0,0.0,0.0,0.0,0.0,0.0,0.0,0.0,0.0,0.0,0.0,0.0,0.0,0.0,0.0,0.0,0.0,0.0,0.0,0.0,0.0,0.0,0.0,0.0,0.0,0.0,0.0,0.0,0.0,0.0,0.0,0.0,0.0,0.0,0.0,0.0,0.0,0.0,0.0,0.0,0.0,0.0,0.0,0.0,0.0,0.0,0.0,0.0,0.0,0.0,0.0,0.0,0.0,0.0,0.0,0.0,0.0,0.0,0.0,0.0,0.0,0.0,0.0,0.0,0.0,0.0,0.0,0.0,0.0,0.0,0.0,0.0,0.0,0.0,0.0,0.0,0.0,0.0,0.0,0.0,0.0,0.0,0.0,0.0,0.0,0.0,0.0,0.0,0.0,0.0,0.0,0.0,0.0,0.0,0.0,0.0,0.0,0.0,0.0,0.0,0.0,0.0,0.0,0.0,0.0,0.0,0.0,0.0,0.0,0.0,0.0,0.0,0.0,0.0,0.0,0.0,0.0,0.0,0.0,0.0,0.0,0.0,0.0,0.0,0.0,0.0,0.0,0.0,0.0,0.0,0.0,0.0,0.0,0.0,0.0,0.0,0.0,0.0,0.0,0.0,0.0,0.0,0.0,0.0,0.0,0.0,0.0,0.0,0.0,0.0,0.0,0.0,0.0,0.0,0.0,0.0,0.0,0.0,0.0,0.0,0.0,0.0,0.0,0.0,0.0,0.0,0.0,0.0,0.0,0.0,0.0,0.0,0.0,0.0,0.0,0.0,0.0,0.0,0.0,0.0,0.0,0.0,0.0,0.0,0.0,0.0,0.0,0.0,0.0,0.0,0.0,0.0,0.0,0.0,0.0,0.0,0.0,0.0,0.0,0.0,0.0,0.0,0.0,0.0,0.0,0.0,0.0,0.0,0.0,0.0,0.0,0.0,0.0,0.0,0.0,0.0,0.0,0.0,0.0,0.0,0.0,0.0,0.0,0.0,0.0,0.0,0.0,0.0,0.0,0.0,0.0,0.0,0.0,0.0,0.0,0.0,0.0,0.0,0.0,0.0,0.0,0.0,0.0,0.0,0.0,0.0,0.0,0.0,0.0,0.0,0.0,0.0,0.0,0.0,0.0,0.0,0.0,0.0,0.0,0.0,0.0,0.0,0.0,0.0,0.0,0.0,0.0,0.0,0.0,0.0,0.0,0.0,0.0,0.0,0.0,0.0,0.0,0.0,0.0,0.0,0.0,0.0,0.0,0.0,0.0,0.0,0.0,0.0,0.0,0.0,0.0,0.0,0.0,0.0,0.0,0.0,0.0,0.0,0.0,0.0,0.0,0.0,0.0,0.0,0.0,0.0,0.0,0.0,0.0,0.0,0.0,0.0,0.0,0.0,0.0,0.0,0.0,0.0,0.0,0.0,0.0,0.0,0.0,0.0,0.0,0.0,0.0,0.0,0.0,0.0,0.0,0.0,0.0,0.0,0.0,0.0,0.0,0.0,0.0,0.0,0.0,0.0,0.0,0.0,0.0,0.0,0.0,0.0,0.0,0.0,0.0,0.0,0.0,0.0,0.0,0.0,0.0,0.0,0.0,0.0,0.0,0.0,0.0,0.0,0.0,0.0,0.0,0.0,0.0,0.0,0.0,0.0,0.0,0.0,0.0,0.0,0.0,0.0,0.0,0.0,0.0,0.0,0.0,0.0,0.0,0.0,0.0,0.0,0.0,0.0,0.0,0.0,0.0,0.0,0.0,0.0,0.0,0.0,0.0,0.0,0.0,0.0,0.0,0.0,0.0,0.0,0.0,0.0,0.0,0.0,0.0,0.0,0.0,0.0,0.0,0.0,0.0,0.0,0.0,0.0,0.0,0.0,0.0,0.0,0.0,0.0,0.0,0.0,0.0,0.0,0.0,0.0,0.0,0.0,0.0,0.0,0.0,0.0,0.0,0.0,0.0,0.0,0.0,0.0,0.0,0.0,0.0,0.0,0.0,0.0,0.0,0.0,0.0,0.0,0.0,0.0,0.0,0.0,0.0,0.0,0.0,0.0,0.0,0.0,0.0,0.0,0.0,0.0,0.0,0.0,0.0,0.0,0.0,0.0,0.0,0.0,0.0,0.0,0.0,0.0,0.0,0.0,0.0,0.0,0.0,0.0,0.0,0.0,0.0,0.0,0.0,0.0,0.0,0.0,0.0,0.0,0.0,0.0,0.0,0.0,0.0,0.0,0.0,0.0,0.0,0.0,0.0,0.0,0.0,0.0,0.0,0.0,0.0,0.0,0.0,0.0,0.0,0.0,0.0,0.0,0.0,0.0,0.0,0.0,0.0,0.0,0.0,0.0,0.0,0.0,0.0,0.0,0.0,0.0,0.0,0.0,0.0,0.0,0.0,0.0,0.0,0.0,0.0,0.0,0.0,0.0,0.0,0.0,0.0,0.0,0.0,0.0,0.0,0.0,0.0,0.0,0.0,0.0,0.0,0.0,0.0,0.0,0.0,0.0,0.0,0.0,0.0,0.0,0.0,0.0,0.0,0.0,0.0,0.0,0.0,0.0,0.0,0.0,0.0,0.0,0.0,0.0,0.0,0.0,0.0,0.0,0.0,0.0,0.0,0.0,0.0,0.0,0.0,0.0,0.0,0.0,0.0,0.0,0.0,0.0,0.0,0.0,0.0,0.0,0.0,0.0,0.0,0.0,0.0,0.0,0.0,0.0,0.0,0.0,0.0,0.0,0.0,0.0,0.0,0.0,0.0,0.0,0.0,0.0,0.0,0.0,0.0,0.0,0.0,0.0,0.0,0.0,0.0,0.0,0.0,0.0,0.0,0.0,0.0,0.0,0.0,0.0,0.0,0.0,0.0,0.0,0.0,0.0,0.0,0.0,0.0,0.0,0.0,0.0,0.0,0.0,0.0,0.0,0.0,0.0,0.0,0.0,0.0,0.0,0.0,0.0,0.0,0.0,0.0,0.0,0.0,0.0,0.0,0.0,0.0,0.0,0.0,0.0,0.0,0.0,0.0,0.0,0.0,0.0,0.0,0.0,0.0,0.0,0.0,0.0,0.0,0.0,0.0,0.0,0.0,0.0,0.0,0.0,0.0,0.0,0.0,0.0,0.0,0.0,0.0,0.0,0.0,0.0,0.0,0.0,0.0,0.0,0.0,0.0,0.0,0.0,0.0,0.0,0.0,0.0,0.0,0.0,0.0,0.0,0.0,0.0,0.0,0.0,0.0,0.0,0.0,0.0,0.0,0.0,0.0,0.0,0.0,0.0,0.0,0.0,0.0,0.0,0.0,0.0,0.0,0.0,0.0,0.0,0.0,0.0,0.0,0.0,0.0,0.0,0.0,0.0,0.0,0.0,0.0,0.0,0.0,0.0,0.0,0.0,0.0,0.0,0.0,0.0,0.0,0.0,0.0,0.0,0.0,0.0,0.0,0.0,0.0,0.0,0.0,0.0,0.0,0.0,0.0,0.0,0.0,0.0,0.0,0.0,0.0,0.0,0.0,0.0,0.0,0.0,0.0,0.0,0.0,0.0,0.0,0.0,0.0,0.0,0.0,0.0,0.0,0.0,0.0,0.0,0.0,0.0,0.0,0.0,0.0,0.0,0.0,0.0,0.0,0.0,0.0,0.0,0.0,0.0,0.0,0.0,0.0,0.0,0.0,0.0,0.0,0.0,0.0,0.0,0.0,0.0,0.0,0.0,0.0,0.0,0.0,0.0,0.0,0.0,0.0,0.0,0.0,0.0,0.0,0.0,0.0,0.0,0.0,0.0,0.0,0.0,0.0,0.0,0.0,0.0,0.0,0.0,0.0,0.0,0.0,0.0,0.0,0.0,0.0,0.0,0.0,0.0,0.0,0.0,0.0,0.0,0.0,0.0,0.0,0.0,0.0,0.0,0.0,0.0,0.0,0.0,0.0,0.0,0.0,0.0,0.0,0.0,0.0,0.0,0.0,0.0,0.0,0.0,0.0,0.0,0.0,0.0,0.0,0.0,0.0,0.0,0.0,0.0,0.0,0.0,0.0,0.0,0.0,0.0,0.0,0.0,0.0,0.0,0.0,0.0,0.0,0.0,0.0,0.0,0.0,0.0,0.0,0.0,0.0,0.0,0.0,0.0,0.0,0.0,0.0,0.0,0.0,0.0,0.0,0.0,0.0,0.0,0.0,0.0,0.0,0.0,0.0,0.0,0.0,0.0,0.0,0.0,0.0,0.0,0.0,0.0,0.0,0.0,0.0,0.0,0.0,0.0,0.0,0.0,0.0,0.0,0.0,0.0,0.0,0.0,0.0,0.0,0.0,0.0,0.0,0.0,0.0,0.0,0.0,0.0,0.0,0.0,0.0,0.0,0.0,0.0,0.0,0.0,0.0,0.0,0.0,0.0,0.0,0.0,0.0,0.0,0.0,0.0,0.0,0.0,0.0,0.0,0.0,0.0,0.0,0.0,0.0,0.0,0.0,0.0,0.0,0.0,0.0,0.0,0.0,0.0,0.0,0.0,0.0,0.0,0.0,0.0,0.0,0.0,0.0,0.0,0.0,0.0,0.0,0.0,0.0,0.0,0.0,0.0,0.0,0.0,0.0,0.0,0.0,0.0,0.0,0.0,0.0,0.0,0.0,0.0,0.0,0.0,0.0,0.0,0.0,0.0,0.0,0.0,0.0,0.0,0.0,0.0,0.0,0.0,0.0,0.0,0.0,0.0,0.0,0.0,0.0,0.0,0.0,0.0,0.0,0.0,0.0,0.0,0.0,0.0,0.0,0.0,0.0,0.0,0.0,0.0,0.0,0.0,0.0,0.0,0.0,0.0,0.0,0.0,0.0,0.0,0.0,0.0,0.0,0.0,0.0,0.0,0.0,0.0,0.0,0.0,0.0,0.0,0.0,0.0,0.0,0.0,0.0,0.0,0.0,0.0,0.0,0.0,0.0,0.0,0.0,0.0,0.0,0.0,0.0,0.0,0.0,0.0,0.0,0.0,0.0,0.0,0.0,0.0,0.0,0.0,0.0,0.0,0.0,0.0,0.0,0.0,0.0,0.0,0.0,0.0,0.0,0.0,0.0,0.0,0.0,0.0,0.0,0.0,0.0,0.0,0.0,0.0,0.0,0.0,0.0,0.0,0.0,0.0,0.0,0.0,0.0,0.0,0.0,0.0,0.0,0.0,0.0,0.0,0.0,0.0,0.0,0.0,0.0,0.0,0.0,0.0,0.0,0.0,0.0,0.0,0.0,0.0,0.0,0.0,0.0,0.0,0.0,0.0,0.0,0.0,0.0,0.0,0.0,0.0,0.0,0.0,0.0,0.0,0.0,0.0,0.0,0.0,0.0,0.0,0.0,0.0,0.0,0.0,0.0,0.0,0.0,0.0,0.0,0.0,0.0,0.0,0.0,0.0,0.0,0.0,0.0,0.0,0.0,0.0,0.0,0.0,0.0,0.0,0.0,0.0,0.0,0.0,0.0,0.0,0.0,0.0,0.0,0.0,0.0,0.0,0.0,0.0,0.0,0.0,0.0,0.0,0.0,0.0,0.0,0.0,0.0,0.0,0.0,0.0,0.0,0.0,0.0,0.0,0.0,0.0,0.0,0.0,0.0,0.0,0.0,0.0,0.0,0.0,0.0,0.0,0.0,0.0,0.0,0.0,0.0,0.0,0.0,0.0,0.0,0.0,0.0,0.0,0.0,0.0,0.0,0.0,0.0,0.0,0.0,0.0,0.0,0.0,0.0,0.0,0.0,0.0,0.0,0.0,0.0,0.0,0.0,0.0,0.0,0.0,0.0,0.0,0.0,0.0,0.0,0.0,0.0,0.0,0.0,0.0,0.0,0.0,0.0,0.0,0.0,0.0,0.0,0.0,0.0,0.0,0.0,0.0,0.0,0.0,0.0,0.0,0.0,0.0,0.0,0.0,0.0,0.0,0.0,0.0,0.0,0.0,0.0,0.0,0.0,0.0,0.0,0.0,0.0,0.0,0.0,0.0,4.9444,4.5544,0.0,0.0,0.0,0.0,0.0,0.0,0.0,0.0,0.0,0.0,0.0,0.0,0.0,0.0,0.0,0.0,0.0,0.0,0.0,0.0,0.0,0.0,0.0,0.0,0.0,0.0,0.0,0.0,0.0,0.0,0.0,0.0,0.0,0.0,0.0,0.0,2.478,2.6264,2.6807,2.917,3.3157,3.161,2.9754,2.769,0.0,0.0,0.0,0.0,0.0,0.0,0.0,0.0,0.0,0.0,0.0,0.0,0.0,0.0,0.0,0.0,0.0,0.0,0.0,0.0,0.0,0.0,0.0,0.0,0.0,0.0,0.0,0.0,0.0,0.0,0.0,0.0,0.0,0.0,0.0,0.0,0.0,0.0,0.0,0.0,0.0,0.0,0.0,0.0,0.0,0.0,0.0,0.0,0.0,0.0,0.0,0.0,0.0,0.0,0.0,0.0,0.0,0.0,0.0,0.0,0.0,0.0,0.0,0.0,0.0,0.0,0.0,0.0,0.0,0.0,5.3812,5.1396,0.0,0.0,0.0,0.0,0.0,0.0,0.0,0.0,0.0,0.0,0.0,0.0,0.0,0.0,0.0,0.0,0.0,0.0,0.0,0.0,0.0,0.0,0.0,2.5849,2.6509,2.6776,2.6858,2.6962,0.0,0.0,0.0,0.0,0.0,0.0,0.0,2.5681,2.7232,2.9788,3.1664,3.4912,3.9276,4.002,3.8058,3.3795,3.0751,0.0,0.0,0.0,0.0,0.0,0.0,0.0,0.0,0.0,0.0,0.0,0.0,0.0,0.0,0.0,0.0,0.0,0.0,0.0,0.0,0.0,0.0,0.0,0.0,0.0,0.0,0.0,0.0,0.0,0.0,0.0,0.0,0.0,0.0,0.0,0.0,0.0,0.0,0.0,0.0,0.0,0.0,0.0,0.0,0.0,0.0,0.0,0.0,0.0,0.0,0.0,0.0,0.0,0.0,0.0,0.0,0.0,0.0,0.0,0.0,0.0,0.0,0.0,5.7776,5.8364,5.851,5.9171,6.0272,6.1484,5.8143,5.7813,5.9208,5.3739,0.0,0.0,0.0,0.0,0.0,0.0,0.0,0.0,0.0,0.0,0.0,0.0,0.0,0.0,0.0,0.0,0.0,0.0,0.0,0.0,0.0,2.7247,2.8124,2.9458,2.8414,2.7959,2.8671,0.0,0.0,0.0,0.0,0.0,2.6438,2.7164,2.9244,3.2814,3.9377,4.3301,4.4688,4.5432,4.5399,4.4485,3.8352,3.5182,3.4213,0.0,0.0,0.0,0.0,0.0,0.0,0.0,0.0,0.0,0.0,0.0,0.0,0.0,0.0,0.0,0.0,0.0,0.0,0.0,0.0,0.0,0.0,0.0,0.0,0.0,0.0,0.0,0.0,0.0,0.0,0.0,0.0,0.0,0.0,0.0,0.0,0.0,0.0,0.0,0.0,0.0,4.4622,4.6383,0.0,0.0,0.0,0.0,0.0,0.0,0.0,0.0,0.0,0.0,0.0,0.0,0.0,5.4429,5.6308,5.851,6.0015,6.0823,6.3099,6.4567,6.5228,6.5338,6.5888,6.6696,6.6182,0.0,6.1153,5.9612,0.0,0.0,0.0,0.0,0.0,0.0,0.0,0.0,0.0,0.0,0.0,0.0,0.0,0.0,0.0,0.0,0.0,0.0,0.0,0.0,0.0,3.0154,3.1732,3.3694,3.3626,3.2747,3.0973,3.0228,0.0,0.0,0.0,2.6894,2.7317,2.9683,3.4011,4.0324,4.5669,4.868,4.9424,4.9729,4.9661,4.912,4.5771,4.1982,3.7966,3.5498,0.0,0.0,0.0,0.0,0.0,0.0,0.0,0.0,0.0,0.0,0.0,0.0,0.0,0.0,0.0,0.0,0.0,0.0,0.0,0.0,0.0,0.0,0.0,0.0,0.0,0.0,0.0,0.0,0.0,0.0,0.0,0.0,0.0,0.0,0.0,0.0,0.0,0.0,0.0,4.3395,4.6318,4.7936,4.6955,4.5788,0.0,0.0,0.0,0.0,0.0,0.0,0.0,0.0,0.0,5.7813,5.8694,6.0126,6.2218,6.3759,6.4677,6.5044,6.6109,6.6843,6.7173,6.7173,6.7357,6.7687,6.7687,6.6659,6.4861,6.2658,5.97,5.6397,0.0,0.0,0.0,0.0,5.3094,5.4213,0.0,0.0,0.0,0.0,0.0,0.0,0.0,0.0,0.0,0.0,0.0,0.0,3.1453,3.3412,3.5453,3.7743,3.8091,3.7077,3.4472,3.3038,3.1041,2.8247,2.7199,2.7232,2.8365,3.3368,3.9445,4.6549,5.027,5.2367,5.2875,5.3078,5.2875,5.2301,5.1386,4.7665,4.1955,3.9918,3.6671,3.2814,0.0,0.0,0.0,0.0,0.0,0.0,0.0,0.0,0.0,0.0,0.0,0.0,0.0,0.0,0.0,0.0,0.0,0.0,0.0,0.0,0.0,0.0,0.0,0.0,0.0,0.0,0.0,0.0,0.0,0.0,0.0,0.0,0.0,0.0,0.0,0.0,0.0,4.6165,4.8627,4.9798,5.0222,4.9713,0.0,0.0,0.0,0.0,0.0,0.0,5.7886,5.8217,5.9722,6.2768,6.3649,6.4934,6.6769,6.7393,6.7687,6.7687,6.7687,6.7797,6.8017,6.8017,6.8128,6.8311,6.8311,6.8311,6.8091,6.5228,6.3209,6.1704,5.9538,5.7776,5.6712,5.8364,5.9355,6.0347,0.0,0.0,0.0,0.0,0.0,0.0,0.0,0.0,0.0,0.0,0.0,3.2097,3.5036,3.6749,3.8565,4.0798,3.9715,3.9174,3.9656,3.5047,3.2226,3.2022,2.8604,2.774,2.992,3.8473,4.4857,4.8849,5.257,5.4431,5.4499,5.5209,5.5478,5.5412,5.3991,5.1183,4.7263,4.3606,4.1508,4.0087,3.3694,0.0,0.0,0.0,0.0,0.0,0.0,0.0,0.0,0.0,0.0,0.0,0.0,0.0,0.0,0.0,0.0,0.0,0.0,0.0,0.0,0.0,0.0,0.0,0.0,0.0,0.0,0.0,0.0,0.0,0.0,0.0,0.0,0.0,0.0,0.0,0.0,0.0,0.0,5.3242,5.5103,0.0,0.0,0.0,0.0,5.5265,5.6124,5.8033,6.119,6.2071,6.3649,6.6182,6.7026,6.7504,6.7614,6.7677,6.7687,6.7687,6.7687,6.8091,6.8862,6.8862,6.9265,6.9963,6.9963,6.9963,6.9853,6.8128,6.5595,6.2805,6.3466,6.1814,5.9478,6.3429,6.4897,6.5411,0.0,0.0,0.0,0.0,0.0,2.647,2.6471,2.7011,2.7604,2.818,3.119,3.4269,3.6806,4.0155,4.3098,4.5331,4.5466,4.4519,4.2361,3.8261,3.569,3.5238,3.1616,3.2679,3.9276,4.3944,4.8376,5.2604,5.3923,5.4837,5.531,5.5581,5.5681,5.5647,5.5175,5.3923,5.1995,4.8714,4.55,4.2388,3.9512,3.6028,0.0,0.0,0.0,0.0,0.0,0.0,0.0,0.0,0.0,0.0,0.0,0.0,0.0,0.0,0.0,0.0,0.0,0.0,0.0,0.0,0.0,0.0,0.0,0.0,0.0,0.0,0.0,0.0,0.0,0.0,0.0,0.0,0.0,0.0,0.0,0.0,0.0,5.4113,5.6598,0.0,5.5721,5.7666,5.9355,6.0162,6.1998,6.3759,6.5411,6.5778,6.6366,6.7247,6.754,6.7687,6.7687,6.8201,6.8458,6.8495,6.9009,6.9376,6.9669,6.9669,6.9816,7.011,7.011,7.011,7.0036,6.9486,6.8531,6.754,6.7834,6.7247,6.6402,6.7834,6.8385,6.8568,0.0,0.0,0.0,0.0,2.6691,2.6691,2.6691,2.7317,2.8263,2.9514,3.3186,3.6806,3.9817,4.347,4.6413,4.8139,4.8714,4.7834,4.5099,4.1238,3.8667,3.7956,3.552,3.7584,4.479,4.7631,5.0845,5.46,5.5074,5.5581,5.6089,5.6325,5.6461,5.6427,5.619,5.5818,5.5175,5.2942,4.9695,4.5877,4.4418,4.1001,3.6535,0.0,0.0,0.0,0.0,0.0,0.0,0.0,0.0,0.0,0.0,0.0,0.0,0.0,0.0,0.0,0.0,0.0,0.0,0.0,0.0,0.0,0.0,0.0,0.0,0.0,0.0,0.0,0.0,0.0,0.0,0.0,0.0,0.0,0.0,5.3148,5.6181,5.5662,5.8951,6.0615,5.8988,6.152,6.3576,6.4383,6.5962,6.7136,6.765,6.7687,6.7687,6.7687,6.7944,6.8091,6.8091,6.8898,6.9302,6.9302,6.9853,7.022,7.0513,7.0513,7.066,7.0917,7.0917,7.0917,7.0917,7.0917,7.0917,7.0881,7.0624,7.0513,7.055,7.0807,7.1064,7.1358,0.0,0.0,0.0,2.6691,2.6691,2.6691,2.6691,2.7368,2.9176,3.2916,3.6062,3.9648,4.4141,4.6616,4.821,4.8951,4.9018,4.8714,4.7939,4.3707,4.0865,4.013,4.0299,4.2124,4.5805,4.9458,5.2435,5.4668,5.6089,5.6799,5.6867,5.7577,5.7881,5.7848,5.7137,5.6833,5.6799,5.6089,5.4059,5.115,4.8173,4.5602,4.3139,0.0,0.0,0.0,0.0,0.0,0.0,0.0,0.0,0.0,0.0,0.0,0.0,0.0,0.0,0.0,0.0,0.0,0.0,0.0,0.0,0.0,0.0,0.0,0.0,0.0,0.0,0.0,0.0,0.0,0.0,0.0,0.0,0.0,5.3424,5.6726,5.8988,5.8217,6.2365,6.464,6.3,6.5081,6.6843,6.7614,6.7687,6.7687,6.7687,6.7724,6.7724,6.7724,6.8531,6.8935,6.8935,6.9743,7.0146,7.0146,7.0146,7.0587,7.1329,7.1329,7.1762,7.2496,7.2496,7.2496,7.2496,7.2532,7.2532,7.2459,7.1651,7.1329,7.1439,7.2275,7.3046,7.3854,2.6315,2.6521,2.6691,2.6691,2.6691,2.6691,2.6691,2.7807,2.9803,3.2983,3.6952,4.0798,4.4242,4.7056,4.8781,4.8984,4.9018,4.8714,4.7939,4.3707,4.0865,4.0121,4.4756,4.8071,4.9661,5.23,5.4499,5.619,5.6596,5.707,5.7577,5.7814,5.7881,5.7881,5.7679,5.7577,5.7577,5.7374,5.6528,5.5006,5.1995,4.912,4.638,0.0,0.0,0.0,0.0,0.0,0.0,0.0,0.0,0.0,0.0,0.0,0.0,0.0,0.0,0.0,0.0,0.0,0.0,0.0,0.0,0.0,0.0,0.0,0.0,0.0,0.0,0.0,0.0,0.0,0.0,0.0,5.4216,5.6748,5.5941,5.8767,6.086,6.0639,6.2879,6.4494,6.4604,6.5778,6.6843,6.7614,6.7687,6.7687,6.7687,6.8238,6.8568,6.8568,6.9339,6.9779,6.9779,7.0587,7.0991,7.0991,7.1578,7.1945,7.2165,7.2165,7.2312,7.2496,7.2496,7.2496,7.2569,7.312,7.3377,7.3303,7.2496,7.2532,7.3083,7.3303,7.3891,7.4625,2.6385,2.6556,2.6691,2.6691,2.6691,2.6691,2.6691,2.8028,3.0296,3.3842,3.7696,4.1482,4.5156,4.7597,4.9018,4.9018,4.8714,4.797,4.6616,4.347,4.2151,4.3301,4.7665,5.0744,5.2131,5.4363,5.5953,5.6799,5.7103,5.7476,5.7881,5.7881,5.7881,5.7881,5.7881,5.7881,5.7918,5.8209,5.7899,5.7105,5.5315,5.3036,5.0507,4.8545,4.6544,4.4597,4.286,4.1801,4.117,4.0988,0.0,0.0,0.0,0.0,0.0,0.0,0.0,0.0,0.0,0.0,0.0,0.0,0.0,0.0,0.0,0.0,0.0,0.0,0.0,0.0,0.0,0.0,0.0,0.0,5.7299,5.9465,5.9355,6.1227,6.2658,6.2658,6.3796,6.4934,6.5742,6.6219,6.6843,6.7614,6.7687,6.7687,6.7687,6.8458,6.8898,6.8898,7.0,7.0587,7.0587,7.1394,7.1798,7.1835,7.2275,7.2496,7.2496,7.2863,7.301,7.301,7.3377,7.3523,7.356,7.4001,7.4184,7.4147,0.0,0.0,0.0,0.0,7.4992,7.5469,2.6691,2.6691,2.6691,2.6691,2.6691,2.6691,2.6691,2.8028,3.0635,3.5126,3.8203,4.1745,4.6413,4.8105,4.8917,4.8984,4.8409,4.7124,4.4987,4.3639,4.4384,4.7601,4.9357,5.1251,5.345,5.5581,5.6765,5.6934,5.7577,5.7881,5.7881,5.7881,5.7881,5.7881,5.7881,5.7881,5.7954,5.8528,5.8493,5.8031,5.7947,5.6713,5.4668,5.3247,5.1859,5.0399,4.8406,4.6811,4.5592,4.4785,0.0,0.0,0.0,0.0,0.0,0.0,0.0,0.0,0.0,0.0,0.0,0.0,0.0,0.0,0.0,0.0,0.0,0.0,0.0,0.0,0.0,0.0,0.0,0.0,6.0089,6.1998,6.267,6.3466,6.3943,6.3943,6.4567,6.5375,6.6292,6.6366,6.6733,6.7614,6.7687,6.7724,6.7834,6.8605,0.0,0.0,0.0,7.1439,7.1439,7.2165,7.2496,7.2496,7.2496,7.2569,7.2679,7.3377,7.3744,7.3891,7.4588,7.4918,7.4918,7.5028,7.5102,7.5175,7.5065,7.5065,7.5139,7.5946,7.624,7.6319,2.6691,2.6691,2.6691,2.6691,2.6691,2.6691,2.6691,2.8028,3.0838,3.5915,3.8091,4.1373,4.709,4.7939,4.8376,4.8951,4.8883,4.8105,4.6481,4.665,4.6887,4.6989,4.956,5.1792,5.345,5.5108,5.6494,5.7679,5.7814,5.7881,5.7881,5.7881,5.7881,5.7881,5.7881,5.7881,5.7918,5.8063,5.8317,5.8703,5.8702,5.774,5.6292,5.5378,5.4737,5.4278,5.3413,5.2796,5.2386,5.2018,4.9922,4.7423,4.7148,4.4474,0.0,0.0,0.0,0.0,0.0,0.0,0.0,0.0,0.0,0.0,0.0,0.0,0.0,0.0,0.0,0.0,0.0,0.0,0.0,5.7776,6.0566,6.2622,6.278,6.2952,6.3062,6.3062,6.3209,6.3881,6.5411,6.5521,6.6145,6.7577,6.7687,6.7981,6.8641,6.9412,7.0183,7.0844,7.1762,7.2275,7.2275,7.2422,7.2496,7.2496,7.2496,0.0,7.345,7.3634,7.4037,7.4698,7.4845,7.4918,7.4955,7.5616,7.6276,7.676,7.613,7.5873,7.5983,7.679,7.7053,7.6992,2.6657,2.6691,2.6691,2.6691,2.6691,2.6691,2.6691,2.7672,3.0006,3.4506,3.6705,3.958,4.4079,4.4891,4.5094,4.5094,4.5094,4.5263,4.5669,4.638,4.7293,4.8376,5.0236,5.1928,5.3484,5.4972,5.6258,5.734,5.7712,5.7881,5.7881,5.7881,5.7881,5.7881,5.7881,5.7881,5.7918,5.828,5.8388,5.8389,5.8359,5.7706,5.6836,5.7123,5.6738,5.5949,5.5276,5.4562,5.3913,5.4141,5.278,5.1049,5.1154,4.8982,4.5829,0.0,0.0,0.0,0.0,0.0,0.0,0.0,0.0,0.0,0.0,0.0,0.0,0.0,0.0,5.2123,5.4546,0.0,5.807,6.0089,6.1777,6.278,6.278,6.278,6.278,6.278,6.278,6.3319,6.4567,6.5081,6.5632,6.6439,6.7247,6.7687,6.7687,6.8825,6.9889,7.066,7.1505,7.2092,7.2496,7.2496,7.2496,7.2496,7.2496,7.2936,7.3707,7.4111,7.4735,7.5542,7.5946,7.6099,7.6099,7.6533,7.6937,7.7237,7.6864,7.6717,7.6754,7.7127,7.7087,7.67,2.6624,2.6691,2.6691,2.6691,2.6691,2.6691,2.6691,2.7317,2.9041,3.251,3.481,3.7212,4.0054,4.1001,4.1305,4.1035,4.1373,4.2523,4.4654,4.5771,4.7394,4.9763,5.0608,5.1657,5.3044,5.4532,5.5649,5.6359,5.7103,5.7476,5.7476,5.7476,5.7476,5.7476,5.7611,5.7611,5.7512,5.8219,5.815,5.7661,5.7603,5.7329,5.7055,5.8014,5.7602,5.6434,5.5783,5.4836,5.3991,5.4348,5.3903,5.3195,5.3456,5.214,4.9997,4.7189,4.6439,0.0,0.0,0.0,0.0,0.0,0.0,0.0,0.0,4.9025,4.9901,5.3188,5.3849,5.484,5.8107,5.8694,5.9538,6.2144,6.267,6.278,6.278,6.278,6.278,6.278,6.278,6.3135,6.4016,6.4677,6.5154,6.5301,6.6659,6.7247,6.6769,6.8128,6.9339,7.0293,7.0954,7.1688,7.2496,7.2496,7.2496,7.2496,7.2496,7.301,7.3964,7.4625,7.5432,7.6387,7.7047,7.7273,7.7273,7.7273,7.7273,7.7273,7.7273,7.7273,7.7273,7.715,7.6733,7.6169,2.6624,2.6691,2.6691,2.6691,2.6691,2.6691,2.6691,2.7317,2.8669,3.1123,3.2814,3.4675,3.7032,3.7956,3.8903,4.0096,4.2023,4.3842,4.5466,4.7496,4.8781,4.912,4.983,5.0608,5.1454,5.2976,5.4126,5.4837,5.5581,5.5953,5.5953,5.5953,5.5953,5.5987,5.663,5.6562,5.5987,5.6701,5.6951,5.6844,5.684,5.7129,5.753,5.6987,5.6376,5.5788,5.572,5.5548,5.5379,5.4907,5.4601,5.4262,5.3423,5.2838,5.223,5.0858,4.9368,4.7984,4.692,4.6198,4.6377,4.9184,4.9184,5.0138,0.0,5.6703,5.6638,5.9869,6.0529,6.0639,6.1117,6.119,6.13,6.1667,6.2328,6.278,6.278,6.278,6.278,6.278,6.278,6.3135,6.4016,6.4163,6.453,6.5264,6.6145,6.6916,6.7504,6.8421,6.9596,7.1109,7.1219,7.1688,7.2496,7.2496,7.2496,7.2496,7.2496,7.3303,7.4771,7.4882,7.5763,7.7163,7.7237,7.7273,7.7273,7.7273,7.7273,7.7273,7.7273,7.7273,7.7212,7.6534,7.627,7.6,2.6263,2.6157,2.6086,2.6298,2.6522,2.6691,2.6691,2.6962,2.7807,2.9687,3.0818,3.2002,3.341,3.3423,3.3964,3.5419,3.8802,4.1677,4.3572,4.7022,4.9018,4.9018,4.9289,4.9796,5.0541,5.1623,5.2536,5.3247,5.4059,5.4431,5.4431,5.4871,5.5074,5.5074,5.5378,5.5581,5.5716,5.5581,5.5755,5.6065,5.5655,5.5651,5.5813,5.5023,5.4629,5.4465,5.4836,5.4396,0.0,5.3449,5.3381,5.3379,5.3058,5.2672,5.2255,5.1851,5.1389,5.1272,5.2546,5.1896,5.1325,5.3124,5.3213,5.3734,5.7033,5.6932,5.7005,6.0236,6.0529,6.0493,6.141,6.1594,6.1741,6.2218,6.2672,6.291,6.291,6.3311,6.3602,6.3602,6.3591,6.3503,6.3356,6.3796,6.4237,6.4567,6.5778,6.6659,6.699,6.776,6.8715,6.9889,6.9926,7.0513,7.1798,7.1798,7.2275,7.3193,7.3193,7.4037,7.5616,7.5616,7.624,7.7273,7.7273,7.7273,7.7273,7.7273,7.7273,7.7273,7.7273,7.7273,7.7243,7.6925,7.6303,7.5478,2.587,2.5797,2.5746,2.605,2.6333,2.659,2.6674,2.6691,2.7097,2.8196,2.9007,2.9668,3.0209,2.96,2.9837,3.1549,3.5588,3.9174,4.1813,4.6007,4.8578,4.8984,4.9018,4.9255,4.9763,5.0541,5.115,5.1691,5.2469,5.2875,5.2875,5.3416,5.3653,5.3653,5.3856,5.416,5.4465,5.4126,5.416,5.4431,5.389,5.3653,5.3585,5.3078,5.2739,5.2636,5.3293,5.2859,5.186,5.1048,5.1146,5.1545,5.1359,5.1244,5.1398,5.1993,5.2439,5.3211,5.5231,5.5133,5.4693,5.5941,5.6235,5.6455,5.7299,5.7189,5.7593,5.9905,6.0309,6.0542,6.1704,6.1924,6.2132,6.2761,6.2939,6.3016,6.3062,6.3567,6.3928,6.3928,6.4057,6.3785,6.2918,6.3401,6.3723,6.3723,6.5264,6.6182,6.6182,6.7136,6.8054,6.8862,6.9119,6.9889,7.1321,7.1541,7.2239,7.3377,7.3597,7.4441,7.5799,7.624,7.6754,7.7273,7.7273,7.7273,7.7273,7.7273,7.7273,7.7273,7.7273,7.7273,7.7273,7.7087,7.6133,7.5081,2.543,2.5801,2.6104,2.6104,2.6122,2.6245,2.6641,2.6691,2.6691,2.6657,2.7366,2.7891,2.7891,2.7232,2.7706,2.9973,3.3537,3.7256,4.1001,4.4756,4.7496,4.8951,4.9018,4.9018,4.9052,4.9763,5.0135,5.0168,5.0913,5.1252,5.1252,5.1286,5.1286,5.1352,5.2063,5.1995,5.1386,5.2097,5.1961,5.132,5.1319,5.1286,5.1286,5.1285,5.0845,5.027,5.1014,5.1285,5.0811,4.7936,4.7902,4.888,4.7568,4.8201,4.9725,5.1501,5.2298,5.2716,5.3164,5.3849,5.495,5.7336,5.7923,5.8143,5.8927,5.9698,6.0272,6.0382,6.163,6.2707,6.2743,6.2768,6.2786,6.2994,6.2992,6.3055,6.3188,6.3204,6.3239,6.3239,6.3804,6.3889,6.3064,6.2913,6.2842,6.2842,6.4383,6.5338,6.5338,6.6843,6.8054,6.8862,6.9669,7.0477,7.1293,7.2092,7.2496,7.2569,7.334,7.4147,7.4992,7.654,7.7273,7.7273,7.7273,7.7273,7.7273,7.7273,7.7273,7.7273,7.7273,7.7273,7.7212,7.6505,7.5722,7.5008,2.5155,2.5001,2.4981,2.5272,2.5278,2.543,2.5819,2.6139,2.6296,2.6224,2.6686,0.0,0.0,0.0,0.0,0.0,3.2307,3.552,3.8802,4.2963,4.5974,4.7462,4.8477,4.9018,4.9018,4.9255,4.9357,4.9357,4.9154,4.8987,4.8987,4.8987,4.8987,4.9021,4.9289,4.9526,4.9729,4.9492,4.9526,4.9763,4.9763,4.9763,4.9898,5.1386,5.027,4.7936,0.0,4.797,4.7327,4.5838,4.5698,4.6104,4.6209,4.63,4.6629,4.8103,5.0545,5.315,5.5049,5.5794,5.6565,5.8988,5.8804,5.7977,5.7862,5.8419,5.9045,5.9186,6.0042,6.0907,6.1412,6.152,6.1536,6.1623,6.2139,6.2553,6.2576,6.3493,6.4129,6.4129,6.4282,6.4224,6.3974,6.4239,6.4237,6.3686,6.5154,6.6109,6.6109,6.71,6.7797,6.8091,6.8862,6.9706,7.0513,7.1321,7.2239,7.3303,7.4661,7.5726,7.6503,7.7053,7.7273,7.7273,7.7273,7.7273,7.7243,7.6765,7.657,7.6501,7.5998,7.5756,7.5721,7.5477,7.5221,7.5066,2.5113,2.475,2.4594,2.4843,2.4902,0.0,0.0,0.0,0.0,0.0,0.0,0.0,0.0,0.0,0.0,0.0,0.0,3.3448,3.6502,4.0155,4.3098,4.5094,4.5838,4.6359,4.672,4.6215,4.6451,4.7527,4.6787,4.6911,4.7872,4.7631,4.753,4.753,4.753,4.7767,4.8173,4.7733,4.824,4.9323,4.8545,4.8376,4.868,4.9323,4.7564,0.0,4.4181,4.3538,4.2794,4.2076,4.2516,4.343,4.3742,4.4497,4.5603,4.7508,5.0113,5.3128,5.6679,5.7446,5.7767,5.9956,5.9505,5.8373,5.7742,5.8223,5.8942,5.9366,5.938,5.9666,6.0701,6.0665,6.0606,6.0904,6.2158,6.3026,6.2787,6.3834,6.4567,6.4288,6.4381,6.4353,6.407,6.4848,6.5058,6.4217,6.5669,6.6665,6.6916,6.7944,6.8531,6.8531,6.9339,7.0,7.0513,7.1321,7.2532,7.4147,7.5175,7.624,7.7273,7.7273,7.7273,7.7273,7.7273,7.715,7.6861,7.637,7.6034,7.5722,7.5192,7.501,7.4974,7.4679,7.4935,7.5484,2.5321,2.5144,2.4958,0.0,0.0,0.0,0.0,0.0,0.0,0.0,0.0,0.0,0.0,0.0,0.0,0.0,0.0,0.0,3.4066,3.6377,3.8946,4.1854,4.1388,4.1486,4.2418,4.1067,4.1792,4.4673,4.3876,4.4909,4.7537,4.6824,4.6486,4.6549,4.6616,4.6616,4.6616,4.6616,4.78,4.9492,4.7327,4.6853,4.7259,4.5229,4.2997,4.0798,3.9512,3.8531,3.7753,3.7134,3.8928,4.1271,4.0654,4.3163,4.6859,4.9574,5.1126,5.3023,5.7909,5.8671,5.8529,6.0264,6.0069,5.9267,5.8595,5.9086,5.9834,6.0446,5.9472,5.8923,6.022,5.9971,5.987,6.0704,6.2851,6.4183,6.3641,6.4186,6.4393,6.3669,6.4147,6.4251,6.3481,6.468,6.514,6.426,6.5779,6.6975,6.7633,6.9128,7.0008,7.011,7.0852,7.1264,7.1293,7.2063,7.3245,7.4859,7.4859,7.5702,7.7243,7.7273,7.7273,7.7273,7.7243,7.6829,7.6203,7.6135,7.5653,7.4937,7.4901,7.4901,7.479,7.4068,7.4738,7.607,0.0,0.0,0.0,0.0,0.0,0.0,0.0,0.0,0.0,0.0,0.0,0.0,0.0,0.0,0.0,0.0,0.0,0.0,3.1069,3.3033,3.5131,3.7436,3.8613,3.9467,4.0123,4.0261,4.0688,4.1466,4.0808,4.1358,4.2965,4.235,4.254,4.347,4.4012,4.4282,4.4282,4.4282,4.4282,4.4147,0.0,4.161,4.1373,4.2455,4.0798,3.8115,3.9377,3.8633,3.7235,3.8125,4.0841,4.4034,4.4952,4.7238,4.9738,5.0799,5.3789,5.7119,5.8749,5.959,6.0134,6.0557,5.9708,5.8595,5.8018,5.8496,5.8479,5.6544,5.6182,5.5841,5.4487,5.5886,5.728,5.7697,6.0566,6.2774,6.2772,6.3427,6.3807,6.36,6.3749,6.3754,6.3581,6.3899,6.4218,6.4473,6.5848,6.6765,6.6975,6.7855,6.8895,7.0073,7.0347,7.0718,7.1293,7.155,7.2507,7.4074,7.407,7.4938,7.6469,7.7056,7.7273,7.7243,7.6733,7.637,7.6102,7.4901,7.4302,7.4033,7.3512,7.3305,7.3334,7.3643,7.4391,7.5292,0.0,0.0,0.0,0.0,0.0,0.0,0.0,0.0,0.0,0.0,0.0,0.0,0.0,0.0,0.0,0.0,0.0,0.0,0.0,2.9954,3.1375,3.3125,3.386,3.4529,3.5214,3.4915,3.5719,3.763,3.6373,3.7053,3.9555,3.8617,3.8671,3.9656,4.0127,4.0488,4.068,4.0461,0.0,0.0,0.0,0.0,0.0,3.9598,3.8183,3.6017,3.7584,3.8599,3.9503,4.1305,4.3647,4.5988,4.729,4.9126,5.1081,5.2702,5.5347,5.8053,5.991,6.0583,6.0796,6.0796,5.998,5.8799,5.7485,5.7468,5.7129,5.4812,5.3793,5.2978,5.2052,5.4044,5.5927,5.637,6.0174,6.2987,6.2867,6.3486,6.3833,6.3634,6.36,6.36,6.36,6.36,6.3749,6.4111,6.5811,6.6952,6.7235,6.8278,6.9296,7.0174,7.0229,7.0414,7.0863,7.0915,7.1516,7.2672,7.3099,7.389,7.5008,7.5885,7.63,7.6267,7.5861,7.5441,7.5083,7.4187,7.3637,7.327,7.2846,7.2713,7.2774,7.3413,7.4127,7.4841,0.0,0.0,0.0,0.0,0.0,0.0,0.0,0.0,0.0,0.0,2.4212,2.3773,0.0,0.0,0.0,0.0,0.0,0.0,0.0,0.0,2.7939,2.9189,2.8662,2.8698,2.9539,2.8311,2.955,3.3325,3.1532,3.2609,3.6367,3.5156,3.5054,0.0,0.0,0.0,0.0,0.0,0.0,0.0,0.0,0.0,0.0,0.0,0.0,3.4607,3.5588,3.8599,4.2523,4.5021,4.6661,4.7817,4.8968,5.0381,5.2205,5.4974,5.6399,5.7718,6.0896,6.1265,6.0796,6.0796,6.0313,5.9227,5.6877,5.6402,5.5854,5.3633,5.1722,5.053,5.0803,5.2889,5.4938,5.5961,6.0371,6.3589,6.3371,6.3889,6.4136,6.3669,6.36,6.36,6.36,6.36,6.3563,6.3563,6.5538,6.7095,6.7783,6.9169,7.0021,7.0163,7.0232,7.03,7.03,7.0197,7.045,7.1055,7.1944,7.2726,7.3398,7.4365,7.4867,7.501,7.4901,7.4419,7.3799,7.3681,7.327,7.2671,7.2671,7.2697,7.287,7.3335,7.4037,7.4748,0.0,0.0,0.0,0.0,0.0,0.0,0.0,0.0,0.0,0.0,2.5715,2.3653,0.0,0.0,0.0,0.0,0.0,0.0,0.0,0.0,0.0,2.6282,2.6301,2.6572,2.7194,2.7478,2.7986,2.8732,0.0,2.9298,3.1029,3.1029,3.2166,0.0,0.0,0.0,0.0,0.0,0.0,0.0,0.0,0.0,0.0,0.0,0.0,0.0,3.6772,3.9174,4.1941,4.5569,4.8635,5.1213,5.2611,5.4236,5.5844,5.6982,5.8213,5.9536,6.0747,6.0615,6.016,6.016,5.9582,5.8393,5.6125,5.5992,5.4865,4.9564,4.9035,4.8809,4.6459,4.9236,5.2632,5.5004,5.8766,6.1884,6.3317,6.3666,6.3701,6.36,6.36,6.36,6.36,6.3452,6.334,6.334,6.4675,6.5887,6.6811,6.7653,6.8533,6.9348,6.9989,7.03,7.03,6.9707,6.966,7.0211,7.0426,7.1271,7.2602,7.3393,7.4187,7.4974,7.4302,7.3917,7.376,7.3142,7.2838,7.2671,7.2459,7.2751,7.3326,7.3861,7.4524,7.531,0.0,0.0,0.0,0.0,0.0,0.0,0.0,2.8609,2.9435,3.1389,3.0253,2.8607,2.6901,2.5704,2.5094,0.0,0.0,0.0,0.0,0.0,0.0,0.0,0.0,0.0,0.0,2.5704,0.0,0.0,0.0,0.0,0.0,0.0,0.0,0.0,0.0,0.0,0.0,0.0,0.0,0.0,0.0,0.0,0.0,0.0,0.0,0.0,3.7246,3.958,4.2144,4.4366,4.8005,5.1904,5.3502,5.4817,5.5958,5.6688,5.7773,5.8889,5.9878,5.9741,5.9417,5.9646,5.9182,5.7843,5.4662,5.4187,5.2861,4.7559,4.6961,4.6971,4.5546,4.8199,5.1315,5.3343,5.7151,6.0356,6.1745,6.2713,6.334,6.3414,6.3526,6.36,6.36,6.3414,6.3302,6.3302,6.4366,6.5265,6.5849,6.7069,6.7981,6.8478,6.8938,6.9163,6.9163,6.8711,6.8535,6.872,6.914,6.986,7.0884,7.1837,7.2748,7.3597,7.3351,7.3229,7.3223,7.288,7.2713,7.2671,7.2416,7.2777,7.3454,7.3888,7.4537,7.5241,0.0,0.0,0.0,0.0,0.0,0.0,0.0,3.1022,3.1957,3.4801,3.5282,3.4264,3.1389,2.8427,2.6531,0.0,0.0,0.0,0.0,0.0,0.0,0.0,0.0,0.0,0.0,0.0,0.0,0.0,0.0,0.0,0.0,0.0,0.0,0.0,0.0,0.0,0.0,0.0,0.0,0.0,0.0,0.0,0.0,0.0,0.0,0.0,0.0,3.9242,4.1576,4.2963,4.6365,5.0351,5.2316,5.3845,5.5005,5.5757,5.6645,5.7603,5.8697,5.8875,5.884,5.9147,5.8841,5.7395,5.3307,5.2459,5.1138,4.624,4.5466,4.5669,4.55,4.7733,5.0234,5.2094,5.5753,5.8875,6.0282,6.1794,6.2905,6.3265,6.3414,6.3489,6.3526,6.3302,6.3152,6.3152,6.4244,6.5079,6.5619,6.6907,6.7678,6.7719,6.7959,6.8039,6.7999,6.7879,6.7678,6.7428,6.8008,6.8573,6.9195,7.0285,7.1242,7.2005,7.2432,7.2586,7.2544,7.2586,7.2586,7.2501,7.2288,7.2604,7.3313,7.3697,7.4262,7.4996,0.0,0.0,0.0,0.0,0.0,0.0,0.0,3.4091,3.6463,4.0194,3.911,3.7464,3.5998,3.2377,2.8873,0.0,0.0,0.0,0.0,0.0,0.0,0.0,0.0,0.0,0.0,0.0,0.0,0.0,0.0,0.0,0.0,0.0,0.0,0.0,0.0,0.0,0.0,0.0,0.0,0.0,0.0,0.0,0.0,0.0,0.0,0.0,0.0,3.7516,3.8836,4.2226,4.4215,4.5727,4.8572,5.1607,5.4254,5.4971,5.5723,5.6543,5.7364,5.8048,5.8525,5.8562,5.8385,5.705,5.2628,5.1989,5.0642,4.4823,4.4756,4.55,4.4818,4.6549,4.9114,5.2187,5.4703,5.7323,6.0369,6.1462,6.2323,6.3196,6.3152,6.3114,6.3302,6.2962,6.2765,6.2765,6.3928,6.5311,6.695,6.7154,6.7346,6.7516,6.7719,6.7759,6.7591,6.7719,6.7597,6.7222,6.729,6.7732,6.8404,6.9238,7.0115,7.1071,7.1936,7.2245,7.2072,7.2245,7.2245,7.2029,7.1776,7.2121,7.2824,7.3344,7.3997,7.4728,0.0,0.0,0.0,0.0,0.0,0.0,3.4273,3.4999,3.6797,4.1513,4.17,4.0606,3.8482,3.6118,3.2527,2.726,0.0,0.0,0.0,0.0,0.0,0.0,0.0,0.0,0.0,0.0,0.0,0.0,0.0,0.0,0.0,0.0,0.0,0.0,0.0,0.0,0.0,0.0,0.0,0.0,0.0,0.0,0.0,0.0,0.0,0.0,0.0,0.0,3.8802,4.0257,4.2455,4.4818,4.5974,4.8162,5.0762,5.2835,5.4022,5.5043,5.6606,5.7662,5.8312,5.8171,5.7757,5.6296,5.2229,5.1146,4.9796,4.5635,4.4925,4.5365,4.638,4.6955,4.8237,5.128,5.3279,5.5111,5.6844,5.8957,6.0461,6.0842,6.177,6.2525,6.308,6.2847,6.2989,6.3786,6.4316,6.5297,6.687,6.7097,6.7222,6.7304,6.7516,6.7557,6.751,6.7469,6.7346,6.718,6.7056,6.7345,6.8057,6.8974,6.9884,7.0676,7.1687,7.2072,7.1985,7.2072,7.2072,7.1985,7.1688,7.2076,7.2779,7.3298,7.395,7.4728,0.0,0.0,0.0,0.0,0.0,3.0964,3.5125,3.5696,3.7315,4.1934,4.2509,4.1803,3.9918,3.7464,3.4083,2.9472,2.8154,0.0,0.0,0.0,0.0,0.0,0.0,0.0,0.0,0.0,2.7525,2.8261,2.8925,0.0,0.0,0.0,0.0,0.0,0.0,0.0,0.0,0.0,0.0,0.0,0.0,0.0,0.0,0.0,0.0,0.0,0.0,0.0,0.0,0.0,0.0,4.3606,4.387,4.5128,4.7263,5.0913,5.2771,5.4059,5.5955,5.7279,5.8063,5.7918,5.734,5.5818,5.2063,5.0811,4.9526,4.6346,4.5466,4.5635,4.7022,4.7192,4.7733,4.9593,5.1555,5.3247,5.4431,5.6908,5.8848,5.9531,6.0864,6.1961,6.2548,6.2799,6.3419,6.4512,6.4783,6.5459,6.6745,6.7014,6.7097,6.7097,6.7304,6.7353,6.727,6.7222,6.7139,6.7097,6.6896,6.7083,6.7624,6.8506,6.9372,7.0153,7.1119,7.165,7.1766,7.1854,7.1854,7.1766,7.159,7.1807,7.2383,7.323,7.3815,7.4424,0.0,0.0,0.0,0.0,0.0,0.0,3.4425,3.6574,3.8983,4.2,4.1235,4.0427,4.0397,3.5699,3.2497,3.2467,2.9475,0.0,0.0,0.0,0.0,0.0,0.0,0.0,0.0,0.0,2.8985,2.9776,3.044,3.1539,3.3072,3.2743,0.0,0.0,0.0,0.0,0.0,0.0,0.0,0.0,0.0,0.0,3.3339,0.0,0.0,0.0,0.0,0.0,0.0,0.0,0.0,0.0,0.0,4.2828,4.4457,4.9664,5.23,5.3822,5.531,5.6799,5.7881,5.7881,5.734,5.5818,5.2063,5.1185,5.0137,4.6481,4.6278,4.6549,4.5838,4.6921,4.7665,4.6955,4.9323,5.2029,5.4262,5.5886,5.7717,6.0106,6.0939,6.1375,6.1571,6.2736,6.3802,6.4546,6.5256,6.6,6.6779,6.6812,6.6812,6.6812,6.7056,6.7097,6.6812,6.7056,6.7056,6.6812,6.6812,6.6812,6.6846,6.759,6.8335,6.9147,7.0119,7.0822,7.1312,7.1512,7.1501,7.1312,7.1312,7.1312,7.1515,7.2935,7.3477,7.3713,0.0,0.0,0.0,0.0,0.0,0.0,0.0,3.3425,3.4875,3.809,3.7687,3.7375,3.8242,3.4861,3.2527,3.2527,0.0,0.0,0.0,0.0,0.0,0.0,0.0,0.0,0.0,0.0,3.0071,3.1656,3.2463,3.3811,3.5591,3.5072,3.5312,3.6158,0.0,0.0,0.0,0.0,0.0,0.0,0.0,3.3467,3.3873,0.0,0.0,0.0,0.0,0.0,0.0,0.0,0.0,0.0,0.0,0.0,0.0,4.6346,4.9593,5.2029,5.247,5.4499,5.6156,5.5141,5.4296,5.3145,5.0947,5.0067,4.9221,4.7534,4.6989,4.6887,4.7158,4.7597,4.848,5.027,5.1792,5.3382,5.5108,5.707,5.8389,5.8632,6.0254,6.154,6.2092,6.2488,6.326,6.4512,6.5256,6.6,6.6779,6.6812,6.6812,6.6812,6.6854,6.6896,6.6812,6.6854,6.6854,6.6812,6.6812,6.6812,6.6846,6.7557,6.8335,6.9147,6.9945,7.069,7.1312,7.1401,7.1356,7.1312,7.1312,7.1312,7.1481,7.2935,7.3477,7.368,0.0,0.0,0.0,0.0,0.0,0.0,0.0,3.1581,3.2613,3.4841,3.4445,3.4681,3.6507,3.3305,3.1539,3.2766,0.0,0.0,0.0,0.0,0.0,0.0,0.0,0.0,0.0,2.9342,3.108,3.391,3.5001,3.6815,3.9375,3.8907,3.8465,3.802,3.7249,3.6411,0.0,0.0,0.0,0.0,3.359,3.3521,3.3893,0.0,0.0,0.0,0.0,0.0,0.0,0.0,0.0,0.0,0.0,0.0,0.0,0.0,4.6447,4.939,5.0473,5.2367,5.3822,5.3213,5.2469,5.1522,4.9999,4.9526,4.9052,4.7767,4.7327,4.7259,4.7462,4.7496,4.7902,4.9187,5.0744,5.2435,5.4194,5.6359,5.8017,5.866,5.9979,6.1163,6.1907,6.2482,6.3294,6.4512,6.5527,6.6305,6.6779,6.6812,6.6812,6.6812,6.6812,6.6812,6.6812,6.6812,6.6812,6.6812,6.6812,6.6812,6.6846,6.7557,6.8335,6.9147,6.9857,7.0635,0.0,7.1312,7.1312,7.1312,7.1312,7.1312,7.1481,7.2935,7.3477,7.368,0.0,0.0,0.0,0.0,0.0,0.0,0.0,3.0774,3.1742,3.2228,3.172,3.2228,3.4741,3.112,2.9771,3.2856,0.0,0.0,0.0,0.0,0.0,0.0,0.0,0.0,2.8871,2.9565,3.2027,3.6289,3.7726,4.0247,4.3654,4.3622,4.2383,4.0214,3.9411,3.7787,3.5554,0.0,0.0,0.0,3.4018,3.3573,0.0,0.0,0.0,0.0,0.0,0.0,0.0,0.0,0.0,0.0,0.0,0.0,0.0,0.0,0.0,0.0,0.0,5.0236,5.115,5.1758,5.1454,5.0608,4.9187,4.9458,0.0,4.7225,4.7394,4.7669,4.6989,4.6819,4.6413,4.5258,4.7462,5.0101,5.23,5.4634,5.7171,6.0013,6.0216,6.0452,6.1366,6.2651,6.3768,6.4546,6.5967,6.6812,6.6812,6.6812,6.6812,6.6812,6.6812,6.6812,6.6812,6.6812,6.6812,6.6812,6.6812,6.6812,6.6846,6.7557,6.8335,6.9147,6.9857,7.0635,7.1312,7.1312,7.1312,7.1312,7.1312,7.1312,7.1481,7.2902,7.3443,7.368,0.0,0.0,0.0,0.0,0.0,0.0,0.0,0.0,0.0,0.0,2.9714,2.9535,3.0163,2.8786,2.8277,0.0,0.0,0.0,0.0,0.0,0.0,0.0,0.0,0.0,2.9535,3.0822,3.2968,3.6068,3.8608,4.1369,4.4301,4.4333,4.3401,4.1737,4.0426,3.8237,3.5633,3.6001,0.0,0.0,3.5808,3.5299,0.0,0.0,0.0,0.0,3.6514,3.8044,0.0,0.0,0.0,0.0,0.0,0.0,0.0,0.0,4.2151,4.2523,4.3775,0.0,4.8578,4.8173,4.8409,4.8443,0.0,4.8308,4.8781,4.7124,4.7394,4.7838,4.7669,4.7192,4.7428,4.9357,5.1217,5.3213,5.5446,5.8186,6.0655,6.2482,6.1163,6.0858,6.2821,6.2787,6.3193,6.4512,6.5967,6.6812,6.6812,6.6812,6.6812,6.6812,6.6812,6.6812,6.6812,6.6812,6.6812,6.6812,6.6812,6.6812,6.6846,6.7557,6.8335,6.9147,6.9857,7.0635,7.1312,7.1312,7.1312,7.1312,7.1312,7.1312,7.1413,7.2326,7.3003,7.3612,0.0,0.0,0.0,0.0,0.0,0.0,0.0,0.0,0.0,0.0,0.0,0.0,0.0,0.0,0.0,0.0,0.0,0.0,0.0,0.0,0.0,0.0,0.0,2.8474,2.9853,3.1049,3.357,3.7602,3.9814,4.2848,4.6532,4.653,4.5371,4.3166,3.9986,3.7483,3.5633,3.6202,3.6497,3.6574,3.6372,0.0,0.0,0.0,0.0,0.0,3.633,3.7911,0.0,4.1474,4.2726,4.3295,0.0,0.0,0.0,0.0,4.1508,4.1373,4.2083,4.4282,4.638,4.6312,4.6616,4.6887,4.6819,4.7158,4.7259,4.6447,4.6887,4.7394,4.7394,4.7902,4.8714,4.9999,5.2638,5.5547,5.8457,6.0858,6.2347,6.2482,6.14,6.0994,6.1873,6.2212,6.299,6.4478,6.5967,6.6812,6.6812,6.6812,6.6812,6.6812,6.6812,6.6812,6.6812,6.6812,6.6812,6.6812,6.6812,6.6812,6.6846,6.7963,6.8707,6.9147,7.0229,7.0939,7.1312,7.1312,7.1312,7.1312,7.1312,7.1312,7.1447,7.2496,7.3138,7.3646,0.0,0.0,0.0,0.0,0.0,0.0,0.0,0.0,0.0,0.0,0.0,0.0,0.0,0.0,0.0,0.0,0.0,0.0,0.0,0.0,0.0,0.0,0.0,2.8586,3.0289,3.0975,3.3988,3.9318,4.1175,4.439,4.8787,4.9267,4.7704,4.4316,3.9469,3.6671,3.5611,3.5957,3.6224,3.6371,3.6358,0.0,0.0,0.0,0.0,0.0,0.0,0.0,0.0,4.2151,4.3673,4.4282,4.347,0.0,0.0,0.0,0.0,0.0,4.2354,4.3768,4.4993,4.5297,4.5602,4.5974,4.6346,4.6244,4.5974,4.5771,4.638,4.709,4.7564,4.8984,5.0067,5.0033,5.3416,5.7273,6.0791,6.2482,6.2888,6.1637,6.1264,6.0926,6.0486,6.1637,6.299,6.4478,6.5967,6.6812,6.6812,6.6812,6.6812,6.6812,6.6812,6.6812,6.6812,6.6812,6.6812,6.6812,6.6812,6.6812,6.688,6.8402,6.9113,6.918,7.0669,7.1312,7.1312,7.1312,7.1312,7.1312,7.1312,7.1312,7.1481,7.2834,7.3375,7.368,0.0,0.0,0.0,0.0,0.0,0.0,0.0,0.0,0.0,0.0,0.0,0.0,0.0,0.0,0.0,0.0,0.0,0.0,0.0,0.0,0.0,0.0,2.8238,2.904,3.1658,3.1921,3.4191,3.856,4.2471,4.5677,4.82,5.1272,4.9793,4.4445,4.1094,3.8091,3.5633,3.6365,3.7013,3.755,3.6594,0.0,0.0,0.0,0.0,0.0,0.0,0.0,0.0,4.0967,4.2455,4.347,4.2692,0.0,0.0,0.0,0.0,0.0,4.3532,4.5331,4.6007,4.4215,4.5196,4.6312,4.5224,4.6312,4.7225,4.5974,4.6786,4.8511,5.1014,5.071,5.1082,5.4194,5.6292,5.8423,6.096,6.2042,6.2482,6.2245,6.1061,6.0757,6.1907,6.2245,6.299,6.4478,6.5967,6.6812,6.6812,6.6812,6.6812,6.6812,6.6812,6.6812,6.6812,6.6812,6.6812,6.6812,6.6812,6.6812,6.688,6.8402,6.9113,6.918,7.0669,7.1312,7.1312,7.1312,7.1312,7.1312,7.1312,7.1312,7.1413,7.2259,7.2969,7.368,0.0,0.0,0.0,0.0,0.0,0.0,0.0,0.0,0.0,0.0,0.0,0.0,0.0,0.0,0.0,0.0,0.0,0.0,0.0,0.0,0.0,3.2482,3.1438,3.1534,3.3042,3.4815,3.7733,4.1916,4.5101,4.8111,5.0955,5.0593,4.8104,4.3809,4.0426,3.7686,3.5633,3.6468,3.6811,3.6786,0.0,0.0,0.0,0.0,0.0,0.0,0.0,0.0,0.0,0.0,4.2185,4.3274,4.2523,0.0,0.0,0.0,0.0,0.0,4.2861,4.4479,4.5635,4.5805,4.7834,4.9862,4.9965,5.0135,4.9999,4.8917,4.9526,5.071,5.2063,5.3078,5.4803,5.8186,5.893,5.9742,6.1637,6.1839,6.1806,6.1806,6.0791,6.0385,6.1095,6.1907,6.299,6.4478,6.5967,6.6812,6.6812,6.6812,6.6812,6.6812,6.6812,6.6812,6.6812,6.6812,6.6812,6.6812,6.6812,6.6812,6.688,6.8402,6.9113,6.918,7.0669,7.1312,7.1345,7.1751,7.1887,7.1954,7.2326,7.2732,7.3172,7.3916,7.439,7.4796,0.0,0.0,0.0,0.0,0.0,0.0,0.0,0.0,0.0,0.0,0.0,0.0,0.0,0.0,0.0,0.0,0.0,0.0,0.0,0.0,3.1967,3.4883,3.4477,3.4732,3.5928,3.8189,4.1429,4.5636,4.7993,5.0803,5.393,5.0351,4.6891,4.3538,4.0189,3.7527,3.5633,3.6265,3.637,3.6149,0.0,0.0,0.0,0.0,0.0,0.0,0.0,0.0,0.0,0.0,0.0,0.0,0.0,0.0,0.0,4.1982,4.1339,4.1508,4.2963,4.4079,4.5534,4.8477,5.0304,5.186,5.3856,5.3145,5.2029,5.1995,5.2604,5.3213,5.3551,5.5953,5.8626,6.0926,6.0791,6.0791,6.1975,6.1501,6.1028,6.1028,6.0317,5.9979,6.0351,6.1603,6.3057,6.4715,6.6068,6.6812,6.6812,6.6812,6.6812,6.6812,6.6812,6.6812,6.6812,6.6812,6.6812,6.6812,6.6812,6.6914,6.7117,6.847,6.918,6.9417,7.0737,7.1413,7.1616,7.2157,7.2496,7.2699,7.3274,7.395,7.4695,7.5439,7.5709,7.5709,0.0,0.0,0.0,0.0,0.0,0.0,0.0,0.0,0.0,0.0,0.0,0.0,0.0,0.0,0.0,0.0,0.0,0.0,3.1065,3.1639,3.2609,3.4126,3.5631,3.8139,4.172,4.1395,4.3354,4.7801,5.0788,5.3369,5.5477,5.2402,4.8646,4.4412,4.2016,3.8971,3.56,3.5667,3.6107,3.6679,3.6246,0.0,0.0,0.0,0.0,0.0,0.0,0.0,0.0,0.0,0.0,0.0,0.0,0.0,4.2422,4.2252,4.1745,4.1982,4.55,4.6075,4.6819,5.186,5.0642,4.9156,5.2773,5.2401,5.186,5.3923,5.4938,5.5886,5.7239,5.9404,6.1061,6.1264,6.1264,6.1264,6.1366,6.0689,6.0182,6.0182,5.9539,5.9641,6.1061,6.1907,6.3294,6.5459,6.6339,6.6812,6.6812,6.6812,6.6812,6.6812,6.6812,6.6812,6.6812,6.6812,6.6812,6.6812,6.6812,6.7184,6.7861,6.8707,6.9451,7.0161,7.0973,7.1684,7.2326,7.2394,7.28,7.3409,7.3477,7.395,7.4695,7.5439,7.5709,7.5709,0.0,0.0,0.0,0.0,0.0,0.0,0.0,0.0,0.0,0.0,0.0,0.0,0.0,0.0,0.0,0.0,0.0,0.0,3.121,3.1808,3.3466,3.6569,3.7734,4.0094,4.3916,4.5861,4.8564,5.2102,5.3296,5.372,5.343,4.9591,4.6129,4.3064,4.0832,3.8802,3.6986,3.6535,3.6772,3.7401,3.637,3.5497,0.0,0.0,0.0,0.0,0.0,0.0,0.0,0.0,3.9276,4.073,4.0358,4.1508,4.2794,4.188,4.1407,4.161,4.347,4.55,4.7767,5.0676,5.1725,5.2909,5.619,5.6494,5.6427,5.7746,5.8254,5.849,5.8592,6.0452,6.1501,6.0114,6.025,6.0385,5.9945,5.9201,5.9066,5.9979,5.9471,5.981,6.1772,6.2651,6.3802,6.5561,6.6373,6.6812,6.6812,6.6812,6.6812,6.6812,6.6812,6.6812,6.6812,6.6812,6.6812,6.6812,6.6812,6.7184,6.7929,6.9214,7.0195,7.0939,7.2157,7.2834,7.3105,7.3578,7.395,7.4322,7.5743,7.6183,7.6053,7.6559,7.6574,7.6323,0.0,0.0,0.0,0.0,0.0,0.0,0.0,0.0,0.0,0.0,0.0,0.0,0.0,0.0,0.0,0.0,0.0,0.0,3.1371,3.1916,3.3698,3.717,3.8373,4.0757,4.4619,4.7836,5.0786,5.3376,5.4156,5.3636,5.1773,4.8129,4.5299,4.3267,4.0798,3.9411,3.887,3.7652,3.7449,3.7807,3.6908,3.591,0.0,0.0,0.0,0.0,0.0,0.0,0.0,0.0,3.8328,3.9851,3.9986,4.1271,4.2598,4.2049,4.2726,4.3707,4.3978,4.6278,4.912,5.1319,5.2706,5.4566,5.8457,5.8998,5.9066,6.052,6.0655,6.0419,6.0114,6.1163,6.1467,5.9641,5.9776,5.9911,5.9438,5.8727,5.8795,6.0317,6.0047,6.052,6.255,6.3429,6.4478,6.5933,6.6508,6.6812,6.6812,6.6812,6.6812,6.6812,6.6812,6.6812,6.6812,6.6812,6.6812,6.6812,6.6812,6.7455,6.8639,6.9722,7.0838,7.2056,7.3037,7.3612,7.3883,7.439,7.4897,7.5506,7.7299,7.7475,7.6742,7.7148,7.7022,7.6441,0.0,0.0,0.0,0.0,0.0,0.0,0.0,0.0,0.0,0.0,0.0,0.0,0.0,0.0,0.0,0.0,0.0,0.0,3.1589,3.2085,3.3178,3.5111,3.7103,4.002,4.3968,4.6684,4.8936,5.0829,5.3188,5.3232,5.098,4.8845,4.706,4.5534,4.2557,0.0,0.0,0.0,0.0,3.7922,3.7922,3.755,3.7011,0.0,0.0,0.0,0.0,0.0,0.0,0.0,3.7381,3.7472,4.1102,4.1779,4.1508,4.2936,4.6041,4.8815,4.8071,4.8984,5.1014,5.4735,5.345,5.2875,5.8761,5.8964,5.8761,6.1772,6.1806,6.1535,6.2245,6.1806,6.1028,6.0216,6.0114,6.0114,6.008,5.9471,5.9573,6.1129,6.1298,6.1907,6.3396,6.4174,6.5222,6.6711,6.677,6.677,6.6812,6.677,6.677,6.6812,6.6812,6.6812,6.6812,6.6812,6.6812,6.6812,6.6812,6.7996,7.0195,7.0195,7.1413,7.351,7.351,7.395,7.4627,7.4627,7.554,7.6961,7.7705,7.7263,7.6272,7.7,7.6802,7.5917,0.0,0.0,0.0,0.0,0.0,0.0,0.0,0.0,0.0,0.0,0.0,0.0,0.0,0.0,0.0,0.0,0.0,0.0,3.0513,3.1653,3.2787,3.3905,3.6214,3.8264,3.9915,4.1884,4.5381,5.05,5.0322,4.9134,4.6994,4.6052,4.4767,4.3301,4.3504,0.0,0.0,0.0,0.0,4.0121,3.9106,3.8337,3.7775,0.0,0.0,0.0,0.0,0.0,0.0,0.0,0.0,0.0,3.9478,4.1238,4.2726,4.2658,4.4181,4.5737,4.4959,4.8545,5.2503,5.2536,5.5852,5.9268,5.9945,5.937,5.937,6.1873,6.2212,6.1975,6.167,6.1873,6.1467,5.9641,5.9776,5.9911,5.9404,5.9167,5.9573,6.1129,6.1772,6.2651,6.414,6.4952,6.5764,6.6745,6.6148,6.6062,6.677,6.6148,6.6062,6.677,6.6812,6.6812,6.6812,6.6812,6.6812,6.6812,6.7354,6.8504,7.0195,7.0737,7.2191,7.4289,7.483,7.5168,7.5371,7.5371,7.598,7.6864,7.676,7.6816,7.6842,7.5894,7.5588,7.5526,0.0,0.0,0.0,0.0,0.0,0.0,0.0,0.0,3.1317,3.1824,3.1996,3.2135,0.0,0.0,0.0,3.1767,3.0819,3.0409,3.0858,3.1662,3.2547,3.3478,3.5379,3.6972,3.8206,4.002,4.2376,4.5241,4.6103,4.5585,4.3832,4.5307,4.533,4.4212,0.0,4.5534,0.0,0.0,0.0,4.1542,4.0663,3.9943,3.9309,0.0,0.0,0.0,0.0,0.0,0.0,0.0,0.0,0.0,3.8227,3.9783,4.1542,4.3166,4.5534,4.78,4.8545,5.2604,5.6528,5.619,5.8829,6.14,6.1095,6.0655,6.0757,6.211,6.2381,6.2245,6.1806,6.211,6.1839,6.0182,6.0283,6.0419,5.9979,5.9843,6.0332,6.2003,6.2737,6.3598,6.4911,6.5696,6.6137,6.6201,6.5636,6.5382,6.5592,6.5024,6.4979,6.5592,6.6019,6.6192,6.6192,6.6567,6.6812,6.6812,6.7861,6.918,7.0669,7.1413,7.2935,7.5067,7.5506,7.5436,7.5064,7.5484,7.6352,7.7269,7.6504,7.6538,7.6834,7.5374,7.4956,7.5003,0.0,0.0,0.0,0.0,0.0,0.0,0.0,3.1655,3.1828,3.1968,3.2079,3.2247,0.0,0.0,0.0,3.2351,3.1243,3.0933,3.196,3.1888,3.2389,3.3636,3.4853,3.6347,3.8152,3.9968,3.9634,3.7169,4.1227,4.2498,4.1366,4.5832,4.7466,4.6802,0.0,4.8612,0.0,4.4784,4.3362,4.2185,4.2117,4.1745,4.1102,4.0316,0.0,0.0,0.0,0.0,0.0,0.0,0.0,0.0,3.7391,3.7956,3.8971,4.3775,4.8376,5.2503,5.5344,5.8592,6.1535,6.2956,6.1839,6.0757,6.2076,6.2381,6.2381,6.2381,6.2381,6.2381,6.2381,6.2381,6.2144,6.1434,6.1298,6.126,6.1182,6.1005,6.1459,6.3074,6.3833,6.4571,6.5454,6.6331,6.6397,6.5382,6.5204,6.4766,6.3844,6.3703,6.3703,6.3797,6.4675,6.5159,6.5159,6.6062,6.6592,6.6761,6.8297,6.9815,7.1243,7.21,7.3599,7.5532,7.5532,7.4966,7.4089,7.531,7.6657,7.7878,7.6635,7.6299,7.6451,7.5125,7.4624,7.441,0.0,0.0,0.0,0.0,0.0,0.0,3.1511,3.1539,3.1626,3.1828,3.1968,3.2079,3.2219,3.2204,0.0,3.2382,3.1643,3.1297,3.1526,3.1711,3.2373,3.3732,3.6259,3.7602,3.7609,3.7071,3.6321,3.5451,3.8886,4.0247,3.9627,4.4229,0.0,4.528,0.0,4.679,4.3978,4.1305,4.0663,4.1407,4.0832,4.0806,4.1068,3.9749,3.8421,0.0,0.0,0.0,0.0,0.0,0.0,0.0,3.7391,3.8294,3.9106,4.0798,4.4891,4.9089,5.0338,5.5412,6.0588,6.1535,6.2279,6.2719,6.2448,6.2381,6.2381,6.2381,6.2381,6.2381,6.2381,6.2381,6.2144,6.1434,6.1298,6.1032,6.0324,6.0605,6.1,6.1208,6.2991,6.4277,6.4494,6.5917,6.6397,6.5382,6.4584,6.4031,6.3844,6.3036,6.2988,6.3797,6.4031,6.4124,6.4124,6.4355,6.4956,6.6053,6.7897,6.9339,7.0416,7.2357,7.3696,7.439,7.439,7.424,7.4122,7.5916,7.7164,7.7813,7.624,7.6011,7.6338,7.4176,7.3385,7.3293,0.0,0.0,0.0,0.0,0.0,0.0,0.0,0.0,3.1237,3.171,3.1885,3.209,3.2621,3.2458,0.0,0.0,3.2259,3.1859,3.1859,3.194,3.2712,3.4292,3.6407,3.7122,3.629,3.5693,3.4758,3.3426,3.641,3.7871,3.7934,0.0,0.0,4.4877,0.0,4.6519,4.3308,4.2151,4.1474,4.1238,4.155,4.1482,4.1001,3.9174,3.7384,3.5649,3.4013,0.0,0.0,0.0,0.0,0.0,0.0,0.0,3.7889,4.0417,4.3842,4.7631,5.1251,5.6359,6.1028,6.2516,6.3193,6.3328,6.255,6.2381,6.2381,6.2381,6.2381,6.2381,6.2381,6.2381,6.2245,6.1873,6.1839,6.1531,6.058,6.0896,6.124,6.1154,6.2404,6.3511,6.3936,6.5271,6.5459,6.3984,6.3844,6.3371,6.2436,6.1872,6.1822,6.2337,6.2826,6.3084,6.3084,6.3561,6.4462,6.5805,6.7589,6.9368,7.1213,7.2345,7.2722,7.242,7.2946,7.3187,7.3323,7.4872,7.6487,7.7813,7.5775,7.5626,7.6338,7.3905,7.2983,7.2983,0.0,0.0,0.0,0.0,0.0,0.0,0.0,0.0,0.0,3.2012,3.2131,3.2428,3.3233,3.2743,3.2616,0.0,0.0,0.0,3.2358,3.2433,3.3205,3.4759,3.5935,3.6086,3.5002,3.5003,3.4145,3.2332,3.4317,3.5812,3.6909,0.0,0.0,4.4886,0.0,4.638,4.32,4.3098,4.2016,4.0527,4.1474,4.1136,3.9851,3.8024,3.5994,3.3952,3.2598,3.2645,3.3491,3.41,0.0,0.0,0.0,0.0,3.6197,4.0189,4.3132,4.6413,5.2367,5.7476,6.1637,6.3869,6.4072,6.3463,6.2584,6.2381,6.2381,6.2381,6.2381,6.2381,6.2381,6.2381,6.2381,6.2381,6.2263,6.1864,6.1027,6.115,6.1345,6.1349,6.1917,6.2632,6.3466,6.4447,6.4262,6.2467,6.3036,6.2729,6.0897,6.0794,6.0794,6.0794,6.1602,6.2022,6.2022,6.2971,6.4191,6.5682,6.7401,6.958,7.1993,7.1778,7.1288,7.0655,7.1615,7.21,7.2367,7.3679,7.5723,7.7779,7.5513,7.54,7.6338,7.3905,7.2983,7.2983,0.0,0.0,0.0,0.0,0.0,0.0,0.0,0.0,0.0,0.0,3.3457,3.3547,3.3788,3.327,3.2935,3.3026,3.2418,3.2053,3.2053,0.0,0.0,3.4031,3.5304,3.5636,3.491,3.42,3.4056,3.4485,3.3681,3.4892,3.8059,4.1855,4.4032,4.4759,0.0,0.0,0.0,3.843,3.7043,3.7303,3.6129,3.5554,3.5351,3.5047,3.3964,3.2496,3.165,3.2239,3.3423,3.3525,3.4472,0.0,0.0,0.0,3.5013,3.6965,4.0011,4.3369,4.6278,5.3518,6.0825,6.3091,6.4072,6.4106,6.2719,6.2381,6.2381,6.2381,6.2381,6.2381,6.2381,6.2381,6.2381,6.2381,6.1716,6.1093,6.0694,6.0522,6.0311,6.0085,6.1352,6.2369,6.2516,6.3419,6.3514,6.2418,6.2418,6.1972,6.0845,6.0794,6.0794,6.0794,6.0949,6.1,6.1,6.1712,6.3034,6.5049,6.7559,6.9495,7.0822,6.9782,6.9782,7.0599,7.0767,7.1397,7.2432,7.4206,7.6157,7.7813,7.6037,7.5853,7.6338,7.3905,7.2983,7.2983,0.0,0.0,0.0,0.0,0.0,0.0,0.0,0.0,0.0,0.0,0.0,3.3818,3.4455,3.3939,3.3786,3.433,3.3412,3.2463,3.1699,3.2555,3.3047,3.3047,3.3906,3.4119,3.3536,3.3536,3.3464,3.3266,3.4014,3.5687,3.8219,4.135,4.2848,0.0,0.0,0.0,0.0,0.0,0.0,3.4844,3.4167,0.0,0.0,0.0,0.0,0.0,3.1765,3.1021,3.1698,3.251,3.3491,3.4518,3.5329,0.0,0.0,0.0,3.6941,4.0223,4.797,5.4363,5.9708,6.326,6.3639,6.294,6.1829,6.1227,6.0986,6.1513,6.1595,6.179,6.2302,6.2381,6.2381,6.2381,6.1595,6.0915,6.0647,6.0355,6.0132,5.9838,6.0772,6.145,6.145,6.2337,6.2534,6.1551,6.1972,6.1853,6.0845,6.0794,6.0794,6.0794,6.0794,6.0978,6.1379,6.2025,6.3595,6.6057,6.7966,6.9151,6.9641,6.8917,6.8976,6.9641,6.9641,7.0293,7.1461,7.3199,7.4747,7.5977,7.5514,7.5442,7.5359,7.3661,7.2983,7.2983,0.0,0.0,0.0,0.0,0.0,0.0,0.0,0.0,0.0,0.0,0.0,3.4297,3.5091,0.0,0.0,0.0,3.3744,3.2483,3.1159,3.1559,3.1863,3.189,3.2272,3.2241,3.1643,3.2398,3.2609,3.2222,3.4104,3.6338,3.889,4.0642,4.1756,4.2286,4.1443,4.0216,0.0,0.0,0.0,0.0,0.0,0.0,0.0,0.0,0.0,0.0,0.0,3.2476,3.2645,3.2598,3.3051,3.3863,3.4957,3.3931,0.0,0.0,0.0,3.7358,4.8037,5.2942,5.6325,6.1603,6.224,6.1558,6.1383,6.0652,6.0151,6.0861,6.0986,6.1193,6.1911,6.2263,6.2381,6.2381,6.1432,6.0693,6.083,6.0263,5.9902,6.0034,6.0486,6.0794,6.0794,6.145,6.1602,6.0845,6.15,6.1602,6.0845,6.0794,6.0794,6.0794,6.0978,6.1379,6.2056,6.3256,6.498,6.7196,6.8335,6.8889,6.8889,6.8564,6.8535,6.8772,6.8772,6.9352,7.0494,7.1998,7.3311,7.4383,7.4678,7.4754,7.4652,7.3355,7.2859,7.2889,0.0,0.0,0.0,0.0,0.0,0.0,0.0,0.0,0.0,0.0,0.0,3.5464,3.5627,3.5086,3.4211,3.3034,3.2394,3.1564,3.0326,3.0291,3.0374,3.0509,3.054,0.0,2.9556,3.0474,3.1578,3.2853,3.3405,3.6206,4.0906,3.9847,4.1227,4.4503,4.3683,4.2446,4.0754,0.0,0.0,0.0,0.0,0.0,0.0,0.0,0.0,0.0,0.0,0.0,3.8962,3.4742,3.3829,3.4438,3.4539,3.3512,3.2327,0.0,0.0,0.0,4.2023,4.5602,4.912,5.6427,5.9231,6.0579,6.2003,6.1595,6.0945,6.0986,6.0986,6.0986,6.1069,6.183,6.2381,6.2381,6.0861,6.0117,6.1375,5.9994,5.9305,6.0578,6.0763,6.0794,6.0794,6.0845,6.0845,6.0794,6.0845,6.0845,6.0794,6.0794,6.0794,6.0794,6.1409,6.2086,6.2764,6.538,6.7104,6.7873,6.8551,6.8889,6.8889,6.8564,6.8386,6.8446,6.8446,6.8945,6.987,7.1131,7.2588,7.3987,7.3823,7.417,7.4624,7.3108,7.2546,7.2607,0.0,0.0,0.0,0.0,0.0,0.0,0.0,0.0,0.0,0.0,0.0,0.0,0.0,3.5762,3.5369,3.4606,3.3533,3.2152,3.0457,3.0334,3.015,2.9771,2.974,2.9648,2.9427,3.0307,3.0712,3.0543,3.2489,3.4325,3.6098,3.8166,3.9692,4.064,4.0293,4.0564,4.0852,3.6042,0.0,0.0,0.0,0.0,0.0,0.0,0.0,0.0,0.0,0.0,0.0,3.9648,3.7381,0.0,0.0,0.0,0.0,0.0,3.1258,3.394,3.8866,4.2451,4.6364,5.2774,5.5259,5.6704,5.8651,5.8689,5.8628,5.962,5.9466,5.9543,6.0778,6.179,6.2381,6.2381,6.082,6.0061,6.1439,5.9977,5.9285,6.064,6.0794,6.0794,6.0794,6.0794,6.0794,6.0794,6.0794,6.0794,6.0794,6.1225,6.144,6.144,6.2086,6.3225,6.4795,6.6642,6.7904,6.8551,6.8766,6.8889,6.8889,6.8358,6.8238,6.8386,6.8238,6.8386,6.9037,7.1174,7.2002,7.2113,7.3362,7.3595,7.3231,7.2452,7.2167,7.2259,0.0,0.0,0.0,0.0,0.0,0.0,0.0,0.0,0.0,3.5827,0.0,0.0,0.0,0.0,3.632,3.4937,3.3493,3.1835,2.9863,3.014,2.9986,2.9119,2.9304,2.9279,2.9064,2.998,3.0055,2.9198,3.1603,3.3168,3.3988,3.6578,3.8394,3.9408,3.7995,3.8806,0.0,0.0,0.0,3.7541,0.0,0.0,4.9018,0.0,0.0,0.0,0.0,0.0,0.0,0.0,0.0,0.0,0.0,0.0,0.0,0.0,0.0,0.0,3.543,3.8679,4.2759,4.9076,5.1006,5.2643,5.7462,5.7337,5.6856,5.9217,5.9107,5.8924,6.0302,6.1309,6.203,6.2341,6.082,6.0061,6.1439,5.9977,5.9285,6.064,6.0794,6.0794,6.0794,6.0794,6.0794,6.0794,6.0794,6.0886,6.1132,6.1458,6.1989,6.2634,6.3555,6.4838,6.6581,6.7689,6.8458,6.8889,6.8889,6.8889,6.8889,6.8269,6.809,6.8238,6.809,6.8211,6.8785,7.0934,7.1554,7.1261,7.2798,7.3077,7.2452,7.1977,7.1937,7.221,0.0,0.0,0.0,0.0,0.0,0.0,0.0,0.0,3.5824,3.6622,0.0,0.0,0.0,0.0,0.0,3.38,3.218,3.0527,2.8602,2.971,2.9802,2.8473,0.0,0.0,0.0,2.9312,2.9572,2.9198,3.068,3.2724,3.5245,0.0,3.7343,4.1243,3.7281,3.7649,4.1107,0.0,3.8937,4.0917,0.0,4.9355,4.9224,0.0,0.0,0.0,5.6562,5.5005,0.0,5.1962,0.0,0.0,0.0,0.0,0.0,0.0,0.0,0.0,0.0,0.0,0.0,4.5106,4.6418,4.8591,5.856,5.7707,5.5927,5.9766,5.9713,5.9139,5.9528,6.0312,6.1227,6.2183,6.082,6.0073,6.1407,6.0026,5.9336,6.0609,6.0794,6.0794,6.0794,6.0794,6.0794,6.0794,6.0794,6.1071,6.1748,6.1553,6.234,6.4382,6.5757,6.6912,6.7904,6.8551,6.8889,6.8889,6.8889,6.8889,6.8889,6.8269,6.803,6.803,6.8,6.8425,6.9154,7.0402,7.1138,7.1597,7.2208,7.2483,7.242,7.1692,7.1827,7.249,0.0,0.0,0.0,0.0,0.0,3.7331,3.7367,3.7301,3.7392,0.0,0.0,0.0,3.8338,3.8407,3.7858,3.6507,3.5092,3.3247,3.072,3.0905,3.032,2.8473,2.9494,2.9802,2.915,2.9242,2.9234,2.912,2.9466,0.0,0.0,0.0,0.0,3.6443,3.6291,3.6817,3.7809,3.71,0.0,4.3755,4.7726,5.1021,0.0,0.0,0.0,0.0,0.0,6.1272,5.8025,0.0,5.3443,4.7135,0.0,0.0,0.0,0.0,0.0,0.0,3.08,0.0,0.0,0.0,0.0,0.0,4.8885,4.9448,5.0372,5.5326,5.5362,5.5499,5.8712,5.9539,5.9846,6.0292,6.0525,6.065,6.0862,6.0248,5.9884,6.0065,6.0486,6.0794,6.0794,6.0794,6.0794,0.0,6.0638,6.0573,6.0757,6.1896,6.3493,6.5761,6.6705,6.7341,6.7904,6.8551,6.8889,6.8889,6.8889,6.8772,6.8535,6.8119,6.803,6.8,6.8243,6.9002,7.0129,7.0647,7.126,7.1844,7.205,7.2104,7.204,7.1307,7.1438,7.2098,0.0,0.0,3.7361,3.7701,3.8375,3.8865,3.8964,3.8899,3.8956,0.0,0.0,0.0,4.0063,0.0,3.9585,3.8046,3.6938,3.5029,3.2013,3.2074,3.1336,2.9335,3.0258,3.0505,2.9833,2.989,2.9674,2.9097,2.9532,2.9736,2.9706,0.0,0.0,0.0,3.4014,3.4991,3.603,0.0,0.0,0.0,4.9093,0.0,0.0,6.0554,6.2956,0.0,0.0,0.0,5.9743,6.2104,5.7345,0.0,0.0,0.0,0.0,0.0,0.0,0.0,0.0,0.0,0.0,0.0,0.0,0.0,4.7786,4.8349,4.9345,5.6062,5.651,5.6479,5.916,5.9397,5.9376,5.9928,6.0218,6.0326,6.0064,5.9538,5.9238,5.9386,5.9963,6.0363,6.0363,6.064,6.0794,6.0794,6.0534,6.0516,6.0852,6.2849,6.4637,6.5994,6.7054,6.7777,6.8102,6.8646,6.8889,6.8889,6.8889,6.8713,6.8386,6.8119,6.791,6.782,6.8303,6.9152,7.0343,7.0893,7.1629,7.2367,7.2078,7.2007,7.1944,7.1178,7.1487,7.2385,0.0,0.0,3.8503,3.9375,4.0008,4.0492,4.0725,4.0558,4.0705,0.0,4.1158,4.1347,0.0,0.0,0.0,0.0,3.8169,3.623,3.2936,3.309,3.2471,3.0582,3.1288,3.1407,3.0691,3.1112,3.0695,2.9411,3.0206,3.016,2.9327,3.0448,0.0,0.0,3.1424,3.2765,3.5003,3.4036,0.0,4.1484,5.0196,5.2858,0.0,0.0,6.1267,5.9152,6.2373,6.1755,6.0018,6.4354,6.0875,0.0,0.0,0.0,0.0,0.0,3.5327,0.0,0.0,0.0,0.0,0.0,0.0,0.0,4.9957,4.9852,4.978,5.7619,5.8522,5.8102,5.8798,5.8467,5.8367,5.9177,5.9149,5.9043,5.9063,5.8431,5.814,5.8658,5.9347,5.9778,5.9778,6.0393,6.0794,6.0794,6.0595,6.0761,6.1549,6.3963,6.5408,6.5618,6.7123,6.8059,6.8386,6.8713,6.8889,6.8889,6.8889,6.8713,6.8358,6.815,6.7789,6.7456,6.8271,6.9151,7.0065,7.1106,7.2089,7.2921,7.2231,7.2007,7.1944,7.1178,7.1697,7.2804,3.7831,3.8937,4.0078,4.0816,4.2027,4.3082,4.3673,4.3304,4.3144,4.3857,4.3826,4.4288,4.568,0.0,0.0,0.0,0.0,3.7338,3.5029,3.3429,3.2137,3.1105,3.2767,3.3324,3.2513,3.2652,3.2248,3.1361,2.9589,2.9393,3.07,3.0055,0.0,0.0,3.1424,3.172,3.2381,3.4835,0.0,4.2518,4.6005,4.9924,5.4162,5.8554,6.1708,6.3833,6.3744,6.3382,6.2522,6.0372,5.7882,5.4832,0.0,0.0,0.0,3.9755,0.0,0.0,0.0,0.0,0.0,0.0,0.0,0.0,0.0,4.0256,4.2207,4.5549,4.6113,4.6951,5.0244,5.1246,5.1456,5.1005,5.3588,5.6294,5.8119,5.8688,5.87,5.806,5.9039,5.9778,5.9778,6.0393,6.0794,6.0794,6.0813,6.1135,6.1935,6.3464,6.4931,6.6251,6.7125,6.7879,6.8386,6.8446,6.8623,6.8889,6.8889,6.8595,6.809,6.803,6.7669,6.7181,6.8691,6.9574,7.0126,7.1624,7.2611,7.2921,7.2231,7.2007,7.1944,7.1178,7.1398,7.2176,3.8828,4.0213,4.1659,4.2339,4.3642,4.4939,4.6046,4.5934,4.5966,4.6615,4.6632,4.648,4.6142,0.0,0.0,0.0,0.0,0.0,3.6168,3.4412,3.2953,3.1852,3.2471,3.2949,3.3188,3.257,3.2258,3.2377,3.0817,3.0188,3.0447,3.0585,3.1831,0.0,3.1797,3.2598,3.5399,3.4722,3.6631,4.0624,4.6875,0.0,5.7429,6.099,6.3859,6.5975,6.5504,6.4979,6.4074,6.0913,5.8221,0.0,0.0,5.0579,4.7774,0.0,4.3448,4.3925,0.0,0.0,0.0,3.9708,0.0,0.0,0.0,0.0,4.1243,4.5711,4.5557,4.5649,4.9035,4.9097,4.8758,4.9097,5.199,5.4252,5.4425,5.7059,5.8829,5.8369,5.8885,5.9408,5.9747,6.0086,6.0475,6.0835,6.1156,6.1624,6.2088,6.3617,6.4874,6.5742,6.6914,6.7729,6.8179,6.8358,6.8595,6.8889,6.8889,6.8595,6.803,6.8304,6.8091,6.7629,6.9261,7.0209,7.0582,7.193,7.2734,7.2921,7.2231,7.2007,7.1944,7.1178,7.1547,7.2445,3.9767,4.1278,4.2786,4.3279,4.4603,4.5974,4.7164,4.7372,4.7655,4.8435,4.9054,4.8769,0.0,0.0,0.0,0.0,0.0,0.0,0.0,3.6384,3.5115,3.397,3.2777,3.2924,3.4641,3.2862,3.2069,3.2426,3.1877,3.0983,2.9865,3.0923,3.2898,0.0,0.0,0.0,3.8539,3.546,3.6445,4.0763,0.0,5.448,5.7544,6.2004,6.4421,6.5572,6.6369,6.5758,6.4276,6.198,5.9184,5.6488,5.6018,5.3767,0.0,0.0,0.0,0.0,0.0,0.0,0.0,0.0,0.0,4.0539,0.0,0.0,0.0,4.6726,4.6111,4.5372,4.7711,4.6788,4.608,4.7342,0.0,0.0,0.0,5.3868,0.0,5.7192,5.8146,5.8793,5.8824,5.8916,5.9522,6.0805,6.1025,6.1412,6.2088,6.3947,6.5024,6.5024,6.6613,6.7669,6.803,6.8298,6.8595,6.8889,6.8889,6.8656,6.8272,6.8698,6.8726,6.8475,6.9958,7.0787,7.1193,7.2177,7.2796,7.2921,7.2231,7.2007,7.1944,7.1328,7.1697,7.2565,4.029,4.1586,4.2633,4.2694,4.4295,4.5657,4.5835,4.5835,4.6298,4.7596,5.0497,5.23,5.1955,0.0,0.0,0.0,0.0,0.0,4.2202,0.0,0.0,3.9407,3.6426,3.6216,3.9292,3.5701,3.2919,3.1135,3.0631,3.0267,3.0062,0.0,0.0,0.0,3.5276,3.6415,3.6138,3.9247,4.3895,0.0,5.0487,4.9491,0.0,5.5067,5.8991,6.1132,6.4691,6.436,6.1867,0.0,5.8479,5.6881,0.0,5.3942,5.5517,4.8512,0.0,0.0,0.0,0.0,0.0,0.0,4.3248,0.0,0.0,0.0,3.9185,3.7554,0.0,3.7923,0.0,0.0,0.0,0.0,0.0,0.0,4.5349,4.8419,5.0944,5.1528,5.5869,5.7869,5.5483,5.5838,5.7469,6.0654,5.9326,5.9425,6.1998,6.3947,6.5024,6.5024,6.6613,6.7669,6.803,6.8298,6.8595,6.8889,6.8889,6.902,6.9243,6.9032,6.9214,6.982,7.0579,7.1132,7.1505,7.252,7.2983,7.2921,7.2231,7.2007,7.2004,7.1838,7.1517,7.1308,3.9705,4.1063,4.214,4.254,4.3925,4.5317,4.6153,4.7973,4.9475,4.9997,5.1681,5.2448,5.1634,0.0,0.0,0.0,0.0,4.8235,0.0,0.0,0.0,3.8742,3.5772,3.5191,3.7367,3.4487,3.2456,3.1399,3.0431,0.0,0.0,0.0,0.0,0.0,3.7892,4.0786,4.4264,4.3618,4.4818,0.0,0.0,4.6634,0.0,5.6606,6.1233,6.2379,6.4103,6.38,6.2558,0.0,5.9278,0.0,0.0,0.0,0.0,0.0,0.0,0.0,0.0,0.0,0.0,0.0,0.0,0.0,3.8908,0.0,3.7184,0.0,0.0,0.0,0.0,0.0,0.0,0.0,4.1586,0.0,0.0,0.0,4.9035,0.0,0.0,0.0,5.4006,5.5343,5.7412,6.0684,5.8949,5.9168,6.2508,6.3797,6.4605,6.5024,6.6042,6.7095,6.797,6.8119,6.8417,6.8889,6.8889,6.905,6.9426,6.9641,6.9974,7.0361,7.1437,7.1867,7.1835,7.2673,7.2983,7.2921,7.2231,7.1764,7.1398,7.1328,7.1128,7.1038,3.9,0.0,4.1463,4.1955,4.3279,4.4799,4.6247,4.893,5.0884,5.1236,5.2324,5.2719,5.1911,5.2483,0.0,0.0,5.2975,5.1436,0.0,0.0,4.3215,4.1986,3.7157,3.5732,3.8428,3.4676,3.2285,3.1537,3.0603,3.0301,0.0,0.0,0.0,0.0,0.0,4.3926,4.8912,4.725,4.7157,4.8245,4.8327,4.8727,5.0283,5.9033,6.2826,6.3612,6.419,6.3738,6.2794,6.2248,5.9594,0.0,5.9932,0.0,0.0,0.0,0.0,0.0,4.9158,0.0,0.0,0.0,0.0,0.0,0.0,0.0,0.0,0.0,0.0,0.0,0.0,0.0,0.0,0.0,0.0,4.1432,0.0,0.0,0.0,0.0,0.0,0.0,0.0,5.3024,5.5145,5.9395,0.0,5.8219,6.2867,6.3647,6.4306,6.4994,6.5712,6.6764,6.797,6.809,6.8358,6.8889,6.8889,6.9202,6.9822,7.0221,7.0677,7.1216,7.2017,7.2202,7.205,7.2579,7.2798,7.2675,7.2352,7.1825,7.1246,7.1208,7.1068,7.1009,3.8415,3.9582,4.0536,4.0566,4.2263,4.4086,4.5411,4.6948,4.8364,4.9603,5.2184,5.4035,5.4499,5.6946,0.0,0.0,0.0,5.8454,5.3714,0.0,5.0362,5.3067,4.2891,3.9943,4.5933,3.8212,3.3093,3.093,3.0898,3.1602,0.0,0.0,0.0,0.0,4.2025,4.4523,4.5064,4.9558,5.3745,5.7272,5.5899,5.7715,6.1175,0.0,6.1186,6.3105,6.5134,0.0,0.0,5.9582,5.8843,0.0,0.0,0.0,0.0,0.0,0.0,0.0,0.0,0.0,0.0,4.451,0.0,0.0,0.0,0.0,3.9982,0.0,0.0,0.0,0.0,0.0,0.0,0.0,0.0,0.0,0.0,0.0,0.0,0.0,0.0,0.0,0.0,0.0,0.0,0.0,0.0,0.0,6.2747,6.3647,6.4306,6.4994,6.5982,6.7004,6.797,6.8238,6.8595,6.8889,6.8889,6.9597,7.0799,7.0557,7.1292,7.289,7.2294,7.1991,7.1998,7.2395,7.2335,7.2091,7.2657,7.2523,7.1974,7.1899,7.1457,7.1009,3.9123,4.0293,4.1093,4.0566,4.1863,4.3833,4.6511,4.8109,4.9832,5.2065,5.354,5.5024,5.6594,5.7562,5.8485,0.0,0.0,5.867,5.5253,5.2445,0.0,5.2329,4.4514,4.1738,0.0,0.0,3.5399,3.3754,3.2732,3.2991,0.0,0.0,0.0,0.0,0.0,4.6701,4.9466,0.0,0.0,0.0,0.0,5.6977,5.988,0.0,6.1181,6.2192,6.2445,6.2498,0.0,6.1163,5.9901,5.8978,6.0055,5.8577,5.6761,5.83,5.7962,0.0,0.0,0.0,5.6053,4.9035,0.0,0.0,0.0,0.0,0.0,0.0,0.0,0.0,0.0,0.0,0.0,0.0,0.0,0.0,0.0,0.0,0.0,0.0,0.0,0.0,0.0,0.0,0.0,0.0,0.0,0.0,0.0,6.3049,6.3887,6.4994,6.5293,6.6192,6.7638,6.7759,6.7939,6.8329,6.8476,6.93,7.0618,7.0678,7.1415,7.264,7.1931,7.1563,7.1319,7.0982,7.0738,7.08,7.1891,7.2031,7.1654,7.1833,7.1457,7.0949,4.0293,4.1186,4.174,4.1032,4.2448,4.4572,4.7188,4.9189,5.119,5.3437,5.473,5.6053,5.7641,5.8423,5.9101,0.0,6.024,5.9347,5.6607,5.436,0.0,5.3498,4.7711,4.5401,0.0,0.0,0.0,0.0,0.0,3.5513,0.0,0.0,0.0,0.0,0.0,4.6733,5.0728,5.2821,5.5191,0.0,0.0,5.83,0.0,0.0,6.1348,6.1184,0.0,6.2372,6.2764,6.2302,6.144,6.0886,6.2641,6.0948,5.8731,6.0671,6.0147,5.8793,5.8054,5.8978,0.0,5.2637,5.1128,0.0,4.3125,0.0,0.0,0.0,0.0,0.0,0.0,0.0,0.0,0.0,0.0,0.0,0.0,0.0,0.0,0.0,0.0,0.0,0.0,0.0,0.0,0.0,0.0,0.0,0.0,0.0,6.3677,6.4994,6.5024,6.5772,6.7457,6.7487,6.7669,6.803,6.8179,6.906,7.0526,7.0678,7.1476,7.264,7.1962,7.1379,7.0767,7.0336,6.9972,6.9853,7.1676,7.1967,7.1431,7.1929,7.1618,7.0889,4.1771,4.2232,4.254,4.1894,4.3864,4.6018,4.7496,4.9989,5.2236,5.3683,5.5622,5.7179,5.7949,5.9655,6.0547,5.9932,6.1071,6.0701,5.8134,5.6607,0.0,0.0,5.2421,5.0782,5.2676,0.0,0.0,0.0,0.0,0.0,0.0,0.0,0.0,0.0,4.1914,0.0,4.8943,5.2298,5.6515,6.0948,6.1594,6.1809,6.1787,6.2526,6.1572,6.025,6.317,6.361,6.2856,6.2825,6.3256,6.3779,6.3779,6.4241,6.4672,6.4026,6.4303,6.4149,6.0917,6.0517,5.987,5.5191,5.396,0.0,0.0,0.0,4.8543,0.0,0.0,0.0,0.0,0.0,0.0,0.0,0.0,0.0,0.0,0.0,0.0,0.0,0.0,0.0,0.0,0.0,0.0,0.0,0.0,0.0,0.0,0.0,6.3498,6.4934,6.5024,6.5772,6.7457,6.7487,6.7669,6.797,6.797,6.885,7.0465,7.0465,7.1384,7.2921,7.22,7.1376,7.0435,7.0391,6.9814,6.9214,7.1855,7.2266,7.1556,7.2219,7.1813,7.0919,4.2479,4.3679,4.4787,4.4603,4.4726,4.5803,4.8696,5.0605,5.2729,5.5622,5.7315,5.8916,6.0578,6.0794,6.0948,6.1255,6.1594,0.0,0.0,0.0,0.0,5.9716,5.5222,5.3599,5.5583,4.8817,0.0,4.451,0.0,0.0,3.9766,0.0,0.0,0.0,0.0,4.5813,5.0328,5.2698,5.7038,6.2302,6.2487,6.1805,6.0941,0.0,6.2127,6.0829,6.2584,6.3348,6.3502,6.2979,6.2918,6.3071,6.3071,6.3195,6.341,6.3718,6.3964,6.4026,6.3687,6.3718,6.2948,5.9162,5.7469,5.5715,0.0,0.0,0.0,0.0,0.0,0.0,0.0,0.0,0.0,0.0,0.0,0.0,0.0,0.0,0.0,0.0,0.0,0.0,0.0,0.0,0.0,0.0,0.0,0.0,0.0,0.0,0.0,6.4904,6.5024,6.5652,6.7091,6.7121,6.7182,6.7243,6.7487,6.8364,6.9757,7.0005,7.0889,7.2231,7.1271,7.0449,6.9695,6.8928,6.8473,6.8447,7.0383,7.1594,7.2219,7.2109,7.1553,7.0984,4.3987,4.5526,4.6911,4.6911,4.7588,4.8789,5.0728,5.1927,5.3806,5.6902,5.8736,6.0198,6.1328,6.2112,6.261,6.2671,6.2702,0.0,6.0455,0.0,0.0,5.9501,5.7777,5.7078,5.7586,5.2644,0.0,4.7851,0.0,0.0,4.0798,0.0,0.0,0.0,0.0,4.4921,4.8358,5.3375,5.7654,6.1194,6.2511,6.2526,0.0,6.3146,6.3097,6.2378,6.3104,6.3636,6.3991,6.3623,6.3609,6.3718,6.3718,6.3718,6.3749,6.381,6.4057,6.4279,6.423,6.4316,6.391,6.1866,6.0659,5.9221,5.6264,5.5829,5.598,0.0,5.4931,5.4483,0.0,0.0,0.0,0.0,0.0,0.0,0.0,0.0,0.0,0.0,0.0,0.0,0.0,0.0,0.0,0.0,0.0,0.0,0.0,0.0,0.0,6.4455,6.4036,6.4665,6.655,6.5981,6.6131,6.6999,6.7452,6.8328,6.9539,7.0028,7.088,7.1947,7.0899,7.0109,6.9416,6.8443,6.7956,6.8168,6.9676,7.1221,7.243,7.1708,7.1218,7.0984,4.5865,4.7558,4.8943,4.8666,5.1036,5.3067,5.3345,5.4099,5.5561,5.7934,6.0052,6.1307,6.1119,6.3149,6.4272,6.3749,6.3626,6.2579,6.0209,6.1779,6.1471,5.8423,5.9993,6.0393,5.9193,5.6884,5.4002,0.0,0.0,0.0,0.0,0.0,0.0,0.0,0.0,0.0,0.0,5.4453,5.8547,5.9839,6.2441,6.347,6.3532,6.3806,6.3936,6.388,6.388,6.4075,6.4326,6.4382,6.4579,6.4832,6.4888,6.4888,6.4764,6.4094,6.434,6.4623,6.3642,6.3568,6.3616,6.3268,6.2832,6.2112,6.0214,5.8975,5.8628,5.9822,5.684,5.5715,0.0,0.0,0.0,0.0,0.0,0.0,0.0,0.0,0.0,0.0,0.0,0.0,0.0,0.0,0.0,0.0,0.0,0.0,0.0,0.0,0.0,6.4006,6.2959,6.3438,6.5712,6.4755,6.5054,6.661,6.7448,6.8383,6.9356,7.0049,7.0809,7.1577,7.0839,7.0049,6.9233,6.844,6.8166,6.8375,6.9602,7.0993,7.2184,7.1258,7.0889,7.0984,4.725,4.9374,5.0636,4.8912,5.1761,5.4945,5.6638,5.7986,5.895,5.9444,6.1711,6.2884,6.1772,6.21,6.2517,6.2948,6.2487,0.0,0.0,0.0,0.0,6.1163,6.144,6.1502,6.1286,5.7592,5.3805,0.0,0.0,0.0,0.0,0.0,0.0,0.0,0.0,0.0,5.2346,5.647,0.0,6.3817,6.3848,6.3923,6.3867,6.3649,6.3481,6.3252,6.3252,6.3595,6.4075,6.4356,6.4437,6.4524,6.4832,6.4888,6.4802,6.4426,6.4401,6.4315,6.3611,6.3293,6.2994,6.2242,6.1684,6.1492,6.2191,6.1536,6.1379,6.3557,6.2436,6.0732,5.9686,0.0,0.0,0.0,0.0,0.0,0.0,0.0,0.0,0.0,0.0,0.0,0.0,0.0,0.0,0.0,0.0,0.0,0.0,0.0,0.0,0.0,6.4066,0.0,0.0,0.0,6.5263,6.4545,6.6311,6.7569,6.829,6.9263,6.9655,6.9553,7.0257,6.9652,6.829,6.8707,6.9123,6.9692,7.044,7.0954,7.1133,7.0949,7.0889,7.0984,5.0174,5.1313,5.2236,5.2267,5.4514,5.6884,5.8547,6.0578,6.1535,6.059,6.1523,6.2083,6.143,6.2597,6.3533,6.3872,6.3595,6.341,6.341,6.3718,6.3595,6.2887,6.2856,6.2517,6.184,5.987,5.6023,5.0205,0.0,0.0,0.0,0.0,0.0,0.0,0.0,4.7736,0.0,0.0,0.0,6.2833,6.364,6.3993,6.3936,6.3481,6.3194,6.3079,6.3079,6.3309,6.3595,6.3849,6.4075,6.4244,6.4387,6.4443,6.4387,6.4244,6.43,6.4173,6.3168,6.2798,6.2421,6.1416,6.1186,6.1433,6.207,6.2125,6.2476,6.4121,6.3716,6.2181,5.9144,5.501,0.0,0.0,0.0,0.0,0.0,0.0,0.0,0.0,0.0,0.0,0.0,0.0,0.0,0.0,0.0,0.0,0.0,0.0,0.0,0.0,0.0,0.0,6.5024,0.0,6.5024,6.6071,6.7029,6.8016,6.9034,6.9523,6.9853,6.9961,6.9823,6.9283,6.8525,6.8854,6.9393,7.0051,7.0649,7.0889,7.0889,7.0889,7.0889,7.0984,5.3037,5.3375,5.4083,5.5653,5.7315,5.8824,6.0024,6.2271,6.3193,6.1558,6.1628,6.169,6.1408,6.3344,6.4672,6.4672,6.4549,6.4518,6.4672,6.4672,6.4426,6.3841,6.3841,6.3318,6.2271,6.2086,5.8731,0.0,0.0,0.0,0.0,0.0,0.0,0.0,0.0,0.0,0.0,0.0,6.0413,6.1682,6.328,6.388,6.3823,6.3309,6.3079,6.3079,6.3079,6.3079,6.3137,6.3424,6.3709,6.3936,6.3993,6.4049,6.4049,6.3936,6.4075,6.4036,6.2863,6.24,6.2014,6.0868,6.0963,6.1418,6.169,6.1933,6.2476,6.3877,6.3893,6.2486,5.8716,5.6453,0.0,0.0,0.0,0.0,0.0,0.0,0.0,0.0,0.0,0.0,0.0,0.0,0.0,0.0,0.0,0.0,0.0,0.0,0.0,0.0,0.0,6.2271,6.4725,0.0,6.4934,6.7358,6.7627,6.8468,6.9669,6.9733,7.0006,7.0213,6.9343,6.898,6.9004,6.9153,6.9602,7.0231,7.0709,7.0889,7.0889,7.0889,7.0889,7.0954,5.4468,5.553,5.6502,5.6686,5.8793,6.0763,6.1502,6.2887,6.3502,6.2747,6.3734,6.4042,6.2778,6.3402,6.3933,6.3933,6.3379,6.3256,6.3872,6.3933,6.3903,6.3841,6.3841,6.3779,6.3656,6.3041,6.0578,0.0,0.0,4.9223,0.0,0.0,0.0,0.0,0.0,0.0,0.0,5.8981,6.1172,6.4045,6.3702,6.3538,6.3508,6.3194,6.3079,6.3079,6.3079,6.3079,6.3137,6.3424,6.3538,6.3595,6.3936,6.4188,6.43,6.3679,6.3766,6.3841,6.2781,6.2314,6.1898,6.1044,6.0805,6.1082,6.2288,6.1433,6.1239,6.4429,6.4671,6.2829,5.7942,6.0022,6.0494,0.0,0.0,0.0,0.0,0.0,0.0,0.0,0.0,0.0,0.0,0.0,0.0,0.0,0.0,0.0,0.0,0.0,0.0,6.1224,6.1194,6.0954,6.0655,6.4036,6.5592,6.5323,6.652,6.7633,6.8662,6.897,6.8789,6.8304,6.8789,6.8996,6.9064,6.9632,7.026,7.0829,7.0889,7.0889,7.0889,7.0889,7.0889,7.0889,5.83,5.8146,5.8485,6.0116,6.027,6.0824,6.2733,6.3472,6.3718,6.3472,6.3903,6.4057,6.3472,6.4057,6.4457,6.4457,6.421,6.418,6.4457,6.4457,6.4457,6.4457,6.4457,6.4087,6.3225,6.2948,6.064,0.0,0.0,0.0,0.0,4.4396,4.6297,5.0798,0.0,5.7757,5.9532,6.1765,6.3353,6.4382,6.3963,6.3709,6.3481,6.3194,6.3079,6.3079,6.3079,6.3079,6.3137,6.3424,6.3538,6.3595,6.388,6.3936,6.3793,6.3595,6.3595,6.3501,6.2498,6.2288,6.2134,6.1258,6.1629,6.2061,6.1317,6.1277,6.1659,6.253,6.3094,6.2682,6.0167,5.9964,5.9801,5.8308,0.0,0.0,0.0,0.0,0.0,0.0,0.0,0.0,0.0,0.0,0.0,0.0,0.0,0.0,0.0,0.0,0.0,5.8022,0.0,6.2959,6.1882,6.5024,6.667,6.6789,6.7574,6.8298,6.9054,6.894,6.8698,6.8364,6.8968,6.9267,6.9349,7.001,7.0671,7.1212,7.1212,7.1113,7.0889,7.0889,7.0889,7.0889,6.0948,6.0332,6.0393,6.2702,6.1933,6.1686,6.381,6.4149,6.4149,6.4149,6.4149,6.4149,6.4149,6.458,6.4888,6.4888,6.4888,6.4888,6.4888,6.4888,6.4888,6.4888,6.4888,0.0,6.3441,6.3225,6.1471,5.8066,5.4545,0.0,4.8751,4.8576,5.0632,0.0,5.9543,6.1597,6.144,6.3872,6.4666,6.43,6.4106,6.3766,6.3367,6.3194,6.3079,6.3079,6.3079,6.3137,6.3252,6.3424,6.3595,6.3709,6.3823,6.3709,6.3481,6.3424,6.3424,6.3304,6.2625,6.2532,6.2465,6.1609,6.2434,6.2976,6.123,6.1523,6.1823,6.0943,6.1855,6.2587,6.1825,6.0496,5.9787,6.0526,0.0,0.0,0.0,0.0,0.0,0.0,0.0,0.0,0.0,0.0,0.0,0.0,0.0,0.0,0.0,0.0,0.0,0.0,0.0,0.0,6.3348,6.5951,6.7597,6.8286,6.8448,6.8754,6.9239,6.9002,6.882,6.8696,6.9361,6.9754,6.987,7.0628,7.1171,7.1564,7.1435,7.1242,7.1048,7.0919,7.0889,7.0889,6.1656,6.1779,6.221,6.3564,6.3779,6.4026,6.4764,6.4888,6.4888,6.4888,6.4888,6.4888,6.4888,6.4888,6.4888,6.4888,6.4888,6.4888,6.4888,6.4888,6.4888,0.0,0.0,6.4888,6.4857,6.418,6.3779,6.3718,0.0,0.0,5.6642,5.5697,5.652,5.8845,6.1372,6.3372,6.4826,6.4888,6.4554,6.3993,6.3993,6.3652,6.3079,6.3079,6.3079,6.3079,6.3079,6.3252,6.3481,6.3538,6.3709,6.3936,6.3595,6.3538,6.3481,6.3194,6.3309,6.3481,6.3164,6.3079,6.2899,6.2241,6.29,6.351,6.2833,6.2157,6.1431,6.0331,6.1413,6.2427,6.2118,6.26,6.2265,5.9982,0.0,0.0,0.0,0.0,0.0,0.0,0.0,4.997,5.7284,0.0,0.0,0.0,0.0,0.0,0.0,0.0,0.0,6.0924,6.2391,0.0,6.3977,6.664,6.8315,6.8974,6.8659,6.8666,6.888,6.8901,6.8903,6.8941,6.9976,7.04,7.0595,7.1577,7.1977,7.1913,7.1564,7.1435,7.1371,7.1018,7.0889,7.0889,6.3779,6.3903,6.4057,6.4487,6.4549,6.4641,6.4857,6.4888,6.4888,6.4888,6.4888,6.4888,6.4888,6.4888,6.4888,0.0,6.4888,6.4888,0.0,6.4888,6.4888,6.4888,6.4888,6.4672,6.418,6.3933,6.3595,6.3133,0.0,0.0,5.7536,5.864,6.0656,6.3438,6.4897,6.5738,6.5938,6.4936,6.4544,6.463,6.4432,6.4086,6.3707,6.3707,6.3438,6.3079,6.3079,6.3252,6.3538,6.3538,6.3595,6.3652,6.3538,6.3538,6.3481,6.3424,6.3309,6.3194,6.3137,6.3079,6.3019,6.281,6.3264,6.3445,6.2491,6.1946,6.1431,6.1132,6.1992,6.2587,6.1799,6.2811,6.3105,6.1212,6.1915,0.0,6.1368,0.0,0.0,0.0,0.0,5.9024,0.0,5.6627,0.0,0.0,0.0,0.0,0.0,0.0,0.0,0.0,6.3169,0.0,6.4006,6.7119,6.8555,6.8315,6.9086,6.9276,6.8901,6.8923,6.8903,6.8911,6.9731,7.0338,7.088,7.1704,7.2104,7.2294,7.1977,7.1628,7.1371,7.1018,7.0889,7.0889,6.4629,6.4691,6.4666,6.4554,6.4666,6.4691,6.4691,6.4832,6.498,6.5226,6.5072,6.5011,6.5257,6.5042,0.0,6.4888,6.4888,6.4832,6.4721,6.4832,6.4832,6.4721,6.4832,6.4672,6.4241,6.3964,0.0,6.3195,6.0824,5.9532,5.9336,6.1567,6.3532,6.512,6.6294,6.683,6.6764,6.5527,6.512,6.5329,6.5097,6.4806,6.4366,6.4096,6.3767,6.3378,6.3169,6.3252,6.3538,6.3538,6.3538,6.3538,6.3538,6.3424,6.3367,6.3367,6.3252,6.3079,6.3079,6.3079,6.3079,6.3079,6.329,6.3234,6.2322,6.1958,6.1881,6.1881,6.2435,6.2845,6.2526,6.3304,6.3689,6.2728,6.2772,6.2841,6.2712,0.0,0.0,0.0,0.0,0.0,0.0,5.9235,5.794,0.0,0.0,0.0,0.0,0.0,5.8082,6.0386,6.4934,6.6879,6.5892,6.7956,6.8794,6.8345,6.8938,6.9062,6.8889,6.8772,6.8906,6.9275,6.9761,7.0489,7.1433,7.1921,7.2357,7.2671,7.2167,7.185,7.1564,7.1113,7.0889,7.0889,6.4437,6.4382,6.4356,6.4049,6.4218,6.4443,6.4443,6.4758,6.5201,6.5847,6.5442,6.5288,6.5903,6.5411,6.5042,6.4986,0.0,0.0,6.4499,6.4783,6.4813,6.459,6.4844,6.5042,6.5042,6.4334,6.3933,6.3841,6.3195,6.2548,6.1902,6.4319,6.5172,6.4716,6.5943,6.6955,6.7597,6.6437,6.5967,6.6057,6.6057,6.5617,6.5024,6.4395,6.4066,6.3917,6.3348,6.3282,6.3538,6.3481,6.3481,6.3538,6.3481,6.3309,6.3079,6.3079,6.3079,6.3079,6.3079,6.3079,6.3079,6.3079,6.3079,6.2929,6.2301,6.2378,6.2574,6.263,6.2854,6.332,6.3928,6.4049,6.4162,6.4326,6.3906,6.3441,6.3087,6.2548,0.0,0.0,0.0,0.0,5.8377,5.9131,6.0874,0.0,0.0,0.0,0.0,0.0,5.8943,6.5982,6.739,6.8378,6.9067,6.9007,6.9007,6.8977,6.8303,6.8238,6.883,6.8505,6.891,6.9881,6.9943,7.0732,7.2007,7.2357,7.2671,7.2921,7.2231,7.2007,7.1944,7.1178,7.0889,7.0889,6.4437,6.4382,6.4356,6.4049,6.4444,6.4805,6.4805,6.549,6.609,6.6243,6.6349,6.6488,6.6673,6.6519,6.6313,6.6086,6.5305,6.4992,6.5172,6.5233,6.5591,6.6283,6.6143,6.6143,6.6427,6.575,6.4888,6.3841,6.3656,6.3256,6.2579,6.3933,6.5562,6.7236,6.6699,6.7599,6.9431,6.7225,6.6436,6.6695,6.6489,6.6132,6.5772,6.5592,6.4904,6.3977,6.3827,6.3642,6.3481,6.3252,6.3367,6.3451,6.3252,6.3137,6.3079,6.3079,6.3079,6.3079,6.3079,6.3079,6.3079,6.3079,6.3079,6.3049,6.2869,6.3069,6.3354,6.3551,6.3888,6.4087,6.427,6.4524,6.461,6.4437,6.4132,6.3876,6.378,6.324,6.254,0.0,6.1898,6.2233,6.2566,6.2964,6.267,0.0,0.0,6.234,6.3954,6.2208,6.3339,6.8153,6.8607,6.8968,6.9414,6.8902,6.8599,6.8631,6.794,6.785,6.8209,6.8119,6.8638,6.9508,6.9508,7.0482,7.2007,7.2134,7.2483,7.2921,7.2231,7.2007,7.1944,7.1178,7.0889,7.0919,6.43,6.4075,6.3997,6.4015,6.4435,6.4825,6.5127,6.5723,6.6348,6.6769,6.6729,6.6782,6.7089,6.6844,6.6518,6.6024,6.5731,6.557,6.5447,6.5593,6.586,6.6487,6.643,6.6576,6.6919,6.655,6.5842,6.4764,6.4764,6.4272,6.3287,6.4466,6.587,6.7375,6.6834,6.7823,6.9745,6.7915,6.7197,6.7393,6.7244,6.6884,6.643,6.6131,6.5562,6.4874,6.4575,6.4153,6.373,6.376,6.3549,6.3309,6.3309,6.3194,6.3079,6.3079,6.3079,6.3079,6.3079,6.3079,6.3079,6.3079,6.3079,6.3079,6.3079,6.3309,6.3595,6.3936,6.4188,6.4437,6.4579,6.4777,6.4777,6.4437,6.4188,6.3936,6.3823,6.3367,6.3079,6.3079,6.3607,6.3954,6.4023,6.4519,6.4437,6.3524,6.3708,0.0,6.6151,6.643,6.7352,6.8972,6.9336,6.9304,6.9056,6.8509,6.8178,6.7999,6.7638,6.7669,6.803,6.8153,6.8666,6.9384,6.9589,7.0438,7.1722,7.1913,7.2294,7.2734,7.2167,7.2007,7.1944,7.1178,7.0889,7.0919,6.4049,6.3766,6.3574,6.3825,6.418,6.4686,6.5348,6.5734,6.63,6.7293,6.6955,6.6833,6.7441,6.6955,6.6387,6.5858,6.627,6.6298,6.5707,6.5853,6.609,6.627,6.6503,6.6793,6.7112,6.7077,6.6735,6.6057,6.5965,6.5288,6.4149,6.5349,6.6206,6.6817,6.6964,6.8008,6.958,6.8489,6.8045,6.809,6.803,6.7608,6.7,6.637,6.6101,6.5951,6.5383,6.4725,6.4215,6.4417,6.391,6.3256,6.3574,6.3399,6.3109,6.3199,6.3139,6.3079,6.3079,6.3079,6.3079,6.3079,6.3079,6.3079,6.3079,6.3309,6.3595,6.3936,6.4305,6.4616,6.4863,6.498,6.4832,6.4126,6.4061,6.3815,6.323,6.3246,6.3286,6.3199,6.4116,6.4586,6.4327,6.5124,6.6051,6.7077,6.7658,6.8551,6.9967,7.049,7.0249,6.9154,6.9702,6.9488,6.8454,6.8084,6.7723,6.7426,6.7426,6.7638,6.8001,6.8272,6.8811,6.9502,6.9849,7.0513,7.1435,7.185,7.2167,7.2452,7.2167,7.2071,7.1944,7.1242,7.0954,7.0889,6.4049,6.3766,6.3454,6.3256,6.3706,6.4305,6.4993,6.5861,6.6702,6.7427,6.7667,6.7816,6.7907,6.7846,6.7606,6.7216,6.7306,6.7065,6.6372,6.6401,6.6821,6.7636,6.7726,6.7874,6.814,6.7853,6.7442,6.6765,6.618,6.578,6.5596,6.5811,6.6758,6.8261,6.7863,6.8748,7.0329,6.9228,6.8621,6.8358,6.8059,6.7789,6.7396,6.7001,6.649,6.6011,6.5892,6.5413,6.4784,6.4597,6.421,6.3915,6.4236,6.376,6.3169,6.3707,6.3498,6.3079,6.3079,6.3079,6.3079,6.3079,6.3079,6.3079,6.3079,6.3309,6.3595,6.3936,6.4645,6.5167,6.4925,6.5349,6.498,6.2618,6.3391,6.3634,6.1601,6.3049,6.4178,6.3915,6.4983,6.5784,6.5663,6.6273,6.72,6.8489,6.8181,6.8735,7.0644,7.0305,6.9938,6.9786,6.9878,6.9302,6.8061,6.7455,6.715,6.706,6.706,6.7391,6.7993,6.8051,6.877,6.9875,6.9995,7.0513,7.1435,7.185,7.2167,7.2452,7.2483,7.2231,7.1913,7.15,7.1148,7.0889,6.4049,6.3595,6.3462,6.4006,6.4366,6.4784,6.5443,6.6222,6.6823,6.6944,6.7427,6.7729,6.7729,6.7729,6.7608,6.7243,6.7243,6.7093,6.6793,6.6793,6.7034,6.7699,6.7729,6.7788,6.7867,6.7884,6.7596,6.6919,6.6441,6.6143,6.6173,6.6338,6.6959,6.792,6.8089,6.8756,6.9641,6.9093,6.8713,6.8417,6.815,6.7789,6.7487,6.7121,6.6819,6.655,6.655,6.6131,6.5503,6.5382,6.4993,6.4545,6.4752,6.4483,6.4186,6.4485,6.3857,6.3079,6.3079,6.3079,6.3079,6.3079,6.3079,6.3079,6.3079,6.3194,6.3367,6.3652,6.4205,6.4789,6.5101,6.5576,6.554,6.4451,6.4983,6.4976,6.3555,6.4319,6.4987,6.484,6.5853,6.663,6.6805,6.7549,6.8212,6.8828,6.8951,6.9382,7.0305,6.9879,6.9695,6.9905,6.9546,6.8909,6.803,6.7696,6.7358,6.6999,6.7358,6.7687,6.7986,6.8734,6.9393,6.9991,7.032,7.0714,7.1178,7.15,7.1913,7.2231,7.2231,7.2104,7.1913,7.1564,7.1148,7.0889,6.4448,6.399,6.3857,6.4844,6.5024,6.5293,6.6131,6.655,6.6822,6.6854,6.7125,6.7365,6.7365,6.7365,6.7304,6.706,6.6999,6.6999,6.6999,6.6999,6.7121,6.7365,6.7487,6.7456,6.7291,6.7614,6.745,6.6774,6.6545,6.6372,6.6403,6.6721,6.7025,6.7291,6.7993,6.8476,6.8713,6.8772,6.8595,6.8298,6.809,6.7789,6.7487,6.7121,6.6999,6.6999,6.6999,6.667,6.6221,6.6132,6.5742,6.5263,6.5323,6.5203,6.5054,6.5203,6.4425,6.3498,6.3318,6.3199,6.3079,6.3079,6.3079,6.3079,6.3079,6.3079,6.3194,6.3481,6.383,6.4297,6.5028,6.5499,6.5673,6.5351,6.5871,6.5887,6.4943,6.546,6.5916,6.5739,6.6608,6.7329,6.7566,6.8288,6.8892,6.9105,6.9597,6.9905,6.9755,6.9515,6.9394,6.9421,6.9001,6.8516,6.803,6.7908,6.7691,6.7238,6.7717,6.8136,6.8465,6.9512,7.0051,7.0231,7.0709,7.0889,7.0919,7.1242,7.1628,7.2007,7.2134,7.204,7.1944,7.1628,7.1307,7.0889,6.5814,6.5288,6.4904,6.4964,6.5024,6.5473,6.6729,6.643,6.649,6.7749,6.739,6.706,6.706,6.706,6.706,6.6999,6.6999,6.6999,6.6999,6.6999,6.6999,6.706,6.7365,6.7336,6.7057,6.7291,6.713,6.6457,6.643,6.6372,6.6403,6.6721,6.6907,6.6938,6.7696,6.803,6.809,6.8358,6.8298,6.803,6.803,6.7789,6.7487,6.7121,6.6999,6.6999,6.6999,6.6969,6.688,6.6583,6.6222,6.6012,6.6282,6.5772,6.5144,6.5772,6.5443,6.4755,6.4096,6.3528,6.3079,6.3079,6.3079,6.3079,6.3079,6.3079,6.3194,6.3481,6.399,6.4462,6.4453,6.5019,6.4708,6.2526,6.4279,6.5151,6.2951,6.5334,6.7023,6.6461,6.7305,6.7969,6.7969,6.8268,6.884,6.9782,6.9874,6.9755,6.9455,6.9395,6.9,6.8181,6.8299,6.8299,6.803,6.7699,6.7665,6.7897,6.7956,6.8615,6.9842,6.9931,7.029,7.0829,7.0889,7.0889,7.0919,7.1242,7.1628,7.2071,7.2357,7.2294,7.2007,7.2007,7.153,7.0889,6.5732,6.532,6.5144,6.5562,6.5652,6.5951,6.6849,6.6789,6.6789,6.7298,6.7148,6.6999,6.6999,6.6999,6.6819,6.643,6.637,6.637,6.637,6.637,6.658,6.6969,6.7304,6.7246,6.6701,6.7173,6.7072,6.643,6.6595,6.6749,6.6691,6.6883,6.7095,6.7276,6.7548,6.7879,6.8238,6.8327,6.8476,6.8535,6.815,6.791,6.7729,6.7243,6.6999,6.6999,6.6999,6.6999,6.6939,6.6822,6.6853,6.6914,6.6853,6.6673,6.6523,6.6611,6.6161,6.5592,6.5323,6.4455,6.3647,6.3647,6.3378,6.3079,6.3079,6.3079,6.3137,6.3252,6.3604,6.3988,6.4395,6.498,6.5264,6.4763,6.5729,6.6283,6.5631,6.6409,6.7267,6.7634,6.7847,6.8302,6.9117,6.9267,6.9509,6.9874,6.9695,6.9332,6.8784,6.8604,6.8273,6.7729,6.7999,6.809,6.803,6.8061,6.8149,6.8296,6.853,6.9093,6.9991,7.038,7.0679,7.0889,7.0889,7.0889,7.0919,7.1048,7.1435,7.2007,7.2104,7.2231,7.2294,7.2071,7.1658,7.1148,6.6309,6.5952,6.5772,6.6251,6.6311,6.655,6.7208,6.7119,6.7059,6.7268,6.7119,6.6999,6.6999,6.6999,6.6819,6.634,6.6131,6.6101,6.6311,6.6311,6.652,6.6969,6.7243,6.7034,6.6372,6.6819,6.681,6.6083,6.6545,6.676,6.676,6.6913,6.7121,6.7365,6.7365,6.7578,6.7999,6.8179,6.8298,6.8298,6.809,6.785,6.7669,6.7182,6.6999,6.6999,6.6999,6.6999,6.6999,6.6999,6.7243,6.7487,6.7243,6.7304,6.7487,6.7243,6.6731,6.6311,6.6311,6.5503,6.4545,6.4096,6.3677,6.3318,6.3109,6.3079,6.3079,6.3079,6.3252,6.3544,6.4196,6.4688,6.5181,6.581,6.6313,6.6713,6.7069,6.7169,6.7417,6.8028,6.8119,6.8421,6.9238,6.9388,6.9448,6.9566,6.9269,6.8816,6.8119,6.7819,6.7608,6.7365,6.7669,6.8001,6.8334,6.8213,6.8361,6.8783,6.8953,6.9453,7.029,7.0709,7.0889,7.0889,7.0889,7.0889,7.0889,7.0889,7.1307,7.2007,7.2007,7.2231,7.2483,7.2104,7.1786,7.1371,6.803,6.7487,6.6999,6.6999,6.6999,6.7208,6.7867,6.7418,6.7238,6.7897,6.7418,6.6999,6.6999,6.6999,6.6999,6.6969,6.637,6.6281,6.6939,6.6999,6.6999,6.6999,6.6999,6.67,6.6041,6.6312,6.6161,6.5528,6.6161,6.6492,6.6492,6.6852,6.6999,6.6999,6.6999,6.6999,6.706,6.7729,6.7608,6.706,6.7729,6.7608,6.6999,6.6999,6.6999,6.6999,6.6999,6.6999,6.6999,6.6999,6.7243,6.7487,6.7487,6.7487,6.7487,6.7487,6.7243,6.6999,6.6999,6.652,6.5682,6.4366,6.4006,6.3857,6.3228,6.3079,6.3079,6.3079,6.3079,6.3309,6.388,6.3993,6.4218,6.4777,6.5472,6.6037,6.6338,6.7273,6.7801,6.7517,6.8059,6.8298,6.803,6.8238,6.8505,6.8889,6.8595,6.8119,6.7548,6.7182,6.6999,6.6999,6.7304,6.7971,6.9032,6.8001,6.815,6.9384,6.913,6.9662,7.0889,7.0889,7.0889,7.0889,7.0889,7.0889,7.0889,7.0889,7.1307,7.2007,7.2007,7.2167,7.2483,7.2104,7.1786,7.1371,6.7729,6.7487,6.7304,6.706,6.6999,6.7358,6.8525,6.7717,6.7388,6.8555,6.7717,6.6999,6.6999,6.6999,6.6819,6.634,6.6131,6.6101,6.6281,6.6729,6.6999,6.6999,6.6999,6.6909,6.67,6.7004,6.6854,6.6191,6.6854,6.6944,6.6492,6.6852,6.6999,6.6999,6.6999,6.7121,6.7365,6.7548,6.7669,6.7729,6.7669,6.7548,6.7365,6.7121,6.6999,6.6999,6.6999,6.6999,6.6999,6.6999,6.7365,6.791,6.8059,6.7819,6.7487,6.7487,6.7243,6.6999,6.6999,6.6849,6.649,6.5622,6.5054,6.4665,6.4485,6.4455,6.4455,6.4455,6.4455,6.4514,6.4691,6.4677,6.4688,6.4858,6.5468,6.6037,6.6338,6.7069,6.7594,6.7819,6.803,6.8179,6.8298,6.8327,6.8505,6.8889,6.8417,6.7819,6.7182,6.706,6.6999,6.6999,6.7121,6.7727,6.9032,6.8698,6.9213,7.0454,7.0169,7.0367,7.0889,7.0889,7.1048,7.1212,7.1212,7.1212,7.1212,7.1212,7.1371,7.1564,7.1564,7.1947,7.2483,7.2104,7.1913,7.1786,6.7789,6.7608,6.7426,6.706,6.6999,6.7358,6.8435,6.7687,6.7388,6.8465,6.7657,6.6999,6.6999,6.6999,6.6819,6.643,6.6161,6.6011,6.6011,6.637,6.6819,6.7358,6.7388,6.7268,6.6999,6.7182,6.7094,6.6703,6.7094,6.7094,6.6703,6.6941,6.6999,6.6999,6.6999,6.7121,6.7304,6.7426,6.7548,6.7608,6.7548,6.7426,6.7304,6.706,6.6999,6.6999,6.6999,6.6999,6.6999,6.6999,6.7426,6.809,6.8476,6.8179,6.7729,6.7729,6.7365,6.706,6.7182,6.7121,6.694,6.6672,6.5952,6.5353,6.5084,6.5024,6.5024,6.5024,6.5024,6.5024,6.5143,6.5166,6.5213,6.5444,6.5818,6.6235,6.6561,6.7164,6.7624,6.7578,6.7939,6.8119,6.8059,6.8298,6.8446,6.8713,6.8269,6.7789,6.7243,6.706,6.6999,6.6999,6.7238,6.8057,6.9397,6.967,7.0155,7.0882,7.0597,7.0611,7.0889,7.0889,7.1083,7.1435,7.1435,7.1435,7.1435,7.1435,7.1435,7.1435,7.1435,7.1883,7.2483,7.2104,7.2007,7.1913,6.803,6.7729,6.7426,6.706,6.7029,6.7298,6.7956,6.7567,6.7418,6.8076,6.7567,6.7178,6.7178,6.7178,6.7178,6.7178,6.658,6.6161,6.6101,6.6161,6.6759,6.8016,6.8136,6.7897,6.7358,6.7178,6.7089,6.7089,6.7029,6.6999,6.6999,6.6999,6.6999,6.6999,6.6999,6.6999,6.6999,6.7365,6.7304,6.706,6.7365,6.7304,6.6999,6.6999,6.6999,6.6999,6.6999,6.6999,6.6999,6.706,6.7487,6.809,6.8654,6.8476,6.803,6.803,6.7548,6.706,6.7426,6.7304,6.7121,6.7426,6.6793,6.5951,6.5353,6.5203,6.5203,6.5203,6.5203,6.5263,6.556,6.5618,6.5765,6.6348,6.6464,6.662,6.6875,6.7528,6.7744,6.7092,6.7819,6.8119,6.7548,6.8059,6.8386,6.8358,6.8119,6.785,6.7487,6.7182,6.7029,6.7089,6.7657,6.8689,7.0096,7.0704,7.0975,7.1036,7.0751,7.0735,7.0954,7.0889,7.1083,7.1435,7.1435,7.1435,7.1435,7.1435,7.1341,7.1371,7.1371,7.1819,7.2326,7.2104,7.2007,7.1913,6.7729,6.7789,6.7729,6.7121,6.7418,6.7986,6.8675,6.8645,6.8794,6.9453,6.8974,6.8555,6.8555,6.8555,6.8555,6.8555,6.7926,6.7328,6.6819,6.7268,6.7926,6.8734,6.9273,6.9692,7.0051,6.8555,6.7747,6.7747,6.7238,6.6999,6.6999,6.6999,6.6999,6.6999,6.6999,6.6999,6.6999,6.706,6.706,6.6999,6.706,6.706,6.6999,6.6999,6.6999,6.6999,6.6999,6.6999,6.706,6.7304,6.7669,6.809,6.8417,6.8238,6.803,6.803,6.7548,6.706,6.7426,6.7487,6.7426,6.7487,6.7306,6.7034,6.6671,6.658,6.658,6.658,6.658,6.658,6.6672,6.6433,6.637,6.6725,6.7019,6.7225,6.726,6.8102,6.8382,6.7517,6.7789,6.797,6.7548,6.8059,6.8298,6.809,6.803,6.7729,6.7121,6.706,6.7238,6.7747,6.7897,6.89,7.0795,7.0947,7.1406,7.2176,7.1828,7.1507,7.1277,7.1048,7.1242,7.185,7.1564,7.1564,7.185,7.15,7.1242,7.1048,7.1048,7.1307,7.1692,7.1913,7.2007,7.1913,6.6725,6.7183,6.7608,6.7121,6.7537,6.8196,6.8884,6.9243,6.9572,6.9931,6.9692,6.9363,6.9034,6.9004,6.9004,6.9004,6.8076,6.7478,6.7448,6.7208,6.7777,6.9393,6.9782,7.056,7.1846,7.0231,6.9213,6.8914,6.7956,6.7627,6.7926,6.7298,6.7148,6.7448,6.7119,6.6999,6.6999,6.6999,6.6999,6.6999,6.6999,6.6999,6.6999,6.6999,6.6999,6.6999,6.6999,6.6999,6.706,6.7365,6.7729,6.803,6.8298,6.8238,6.803,6.803,6.7548,6.7121,6.7608,6.7608,6.7548,6.7729,6.7608,6.7426,6.706,6.6999,6.6999,6.6999,6.6999,6.6999,6.6999,6.6822,6.6824,6.7125,6.7483,6.7661,6.7661,6.838,6.8535,6.7608,6.7789,6.791,6.7789,6.7999,6.8238,6.8417,6.8423,6.8243,6.7939,6.7963,6.8106,6.8465,6.8764,6.9622,7.1007,7.1279,7.1865,7.2734,7.2231,7.1786,7.1405,7.1018,7.1178,7.1722,7.1722,7.1722,7.1722,7.1722,7.1371,7.0889,7.0889,7.1083,7.1435,7.1628,7.185,7.1913,6.5576,6.6293,6.7091,6.706,6.7627,6.8345,6.8914,6.9632,7.0141,7.029,7.0201,6.9961,6.9542,6.9393,6.9273,6.9183,6.8136,6.7627,6.7956,6.7178,6.7717,7.0021,7.032,7.1278,7.3043,7.1876,7.0889,7.0141,6.8794,6.8435,6.8974,6.7867,6.7627,6.8136,6.7567,6.7268,6.7148,6.7148,6.7089,6.6999,6.6999,6.6999,6.6999,6.6999,6.6999,6.6999,6.6999,6.6999,6.706,6.7304,6.7669,6.803,6.8238,6.8238,6.809,6.803,6.7548,6.7243,6.785,6.7789,6.7608,6.791,6.7729,6.7426,6.706,6.6999,6.6999,6.6999,6.6999,6.6999,6.6999,6.6999,6.7121,6.7426,6.7789,6.803,6.809,6.8535,6.8595,6.7729,6.7729,6.785,6.791,6.797,6.824,6.8866,6.9,6.9002,6.9062,6.9113,6.9127,6.9217,6.9756,7.0404,7.1127,7.1704,7.2357,7.2983,7.2357,7.1913,7.15,7.1148,7.1178,7.1435,7.1722,7.1658,7.1435,7.1722,7.1435,7.0889,7.0889,7.1113,7.1371,7.1435,7.1786,7.2104,6.4787,6.5387,6.5981,6.6846,6.8016,6.8884,6.9004,7.0021,7.0979,7.1547,7.1128,7.0949,7.1427,7.0979,7.044,6.9901,6.9692,6.9123,6.8046,6.8914,6.9842,7.0739,7.1906,7.2894,7.3762,7.3043,7.2026,7.0769,6.9482,6.8914,6.9004,6.8824,6.8764,6.8854,6.8764,6.8405,6.7837,6.7837,6.7508,6.6999,6.6999,6.6999,6.6999,6.6999,6.6999,6.6999,6.6999,6.6999,6.6999,6.706,6.7487,6.803,6.803,6.8179,6.8298,6.809,6.7729,6.7548,6.791,6.7789,6.7608,6.791,6.7729,6.7426,6.706,6.6999,6.6999,6.6999,6.6999,6.6999,6.6999,6.6999,6.7121,6.7426,6.7789,6.809,6.8298,6.8654,6.8654,6.803,6.7487,6.7243,6.7548,6.785,6.8273,6.8971,6.9184,6.9489,6.9853,6.9603,6.9685,7.0287,7.0123,7.0581,7.1855,7.1947,7.2357,7.2983,7.2608,7.2231,7.1913,7.15,7.1371,7.1371,7.1178,7.1178,7.1341,7.1178,7.0984,7.0889,7.0889,7.0919,7.1018,7.1658,7.2294,7.2796,6.3627,6.4467,6.5543,6.6785,6.8106,6.9004,6.9004,7.038,7.1547,7.1846,7.1966,7.1996,7.1906,7.1308,7.0649,7.0021,6.9662,6.9183,6.8585,6.8734,6.9482,7.0829,7.1487,7.2265,7.3313,7.2684,7.2056,7.1457,7.0171,6.9722,7.0051,6.9333,6.9183,6.9512,6.8764,6.8256,6.7956,6.7567,6.7268,6.6999,6.6999,6.6999,6.6999,6.6999,6.6999,6.6999,6.6999,6.6999,6.706,6.7243,6.7608,6.803,6.8179,6.8298,6.8358,6.809,6.7789,6.7608,6.791,6.7789,6.7608,6.791,6.7729,6.7426,6.706,6.6999,6.6999,6.6999,6.6999,6.6999,6.6999,6.6999,6.706,6.7182,6.7669,6.803,6.8179,6.8595,6.8654,6.809,6.7608,6.7365,6.7487,6.7789,6.8363,6.9184,6.9701,7.0221,7.0769,7.0666,7.0682,7.1013,7.0693,7.0972,7.2007,7.2007,7.2357,7.2983,7.2859,7.2483,7.2007,7.1564,7.1277,7.1083,7.1178,7.1178,7.1148,7.1371,7.1242,7.0919,7.1371,7.153,7.1594,7.2104,7.2483,7.2671]}]]